[[{"header":{"parameterUnit":"m.s-1","parameterCategory":1,"la1":31.0,"la2":29.5877,"lo1":-88.7671,"lo2":-86.6584,"dy":0.0162,"dx":0.0185,"nx":115,"ny":88,"refTime":"2026-05-10T12:00:00:Z","depth":0,"parameterNumber":2,"parameterNumberName":"U-component_of_WINDS"},"data":[0.0,0.0,0.0,0.0,0.0,0.0,0.0,0.0,0.0,0.0,0.0,0.0,0.0,0.0,0.0,0.0,0.0,0.0,0.0,0.0,0.0,0.0,0.0,0.0,0.0,0.0,0.0,0.0,0.0,0.0,0.0,0.0,0.0,0.0,0.0,0.0,0.0,0.0,0.0,0.0,0.0,0.0,0.0,0.0,0.0,0.0,0.0,0.0,0.0,0.0,0.0,0.0,0.0,0.0,0.0,0.0,0.0,0.0,0.0,0.0,0.0,0.0,0.0,0.0,0.0,0.0,0.0,0.0,0.0,0.0,0.0,0.0,0.0,0.0,0.0,0.0,0.0,0.0,0.0,0.0,0.0,0.0,0.0,0.0,0.0,0.0,0.0,0.0,0.0,0.0,0.0,0.0,0.0,0.0,0.0,0.0,0.0,0.0,0.0,0.0,0.0,0.0,0.0,0.0,0.0,0.0,0.0,0.0,0.0,0.0,0.0,0.0,0.0,0.0,0.0,0.0,0.0,0.0,0.0,0.0,0.0,0.0,0.0,0.0,0.0,0.0,0.0,0.0,0.0,0.0,0.0,0.0,0.0,0.0,0.0,0.0,0.0,0.0,0.0,0.0,0.0,0.0,0.0,0.0,0.0,0.0,0.0,0.0,0.0,0.0,0.0,0.0,0.0,0.0,0.0,0.0,0.0,0.0,0.0,0.0,0.0,0.0,0.0,0.0,0.0,0.0,0.0,0.0,0.0,0.0,0.0,0.0,0.0,0.0,0.0,0.0,0.0,0.0,0.0,0.0,0.0,0.0,0.0,0.0,0.0,0.0,0.0,0.0,0.0,0.0,0.0,0.0,0.0,0.0,0.0,0.0,0.0,0.0,0.0,0.0,0.0,0.0,0.0,0.0,0.0,0.0,0.0,0.0,0.0,0.0,0.0,0.0,0.0,0.0,0.0,0.0,0.0,0.0,0.0,0.0,0.0,0.0,0.0,0.0,0.0,0.0,0.0,0.0,0.0,0.0,0.0,0.0,0.0,0.0,0.0,0.0,0.0,0.0,0.0,0.0,0.0,0.0,0.0,0.0,0.0,0.0,0.0,0.0,0.0,0.0,0.0,0.0,0.0,0.0,0.0,0.0,0.0,0.0,0.0,0.0,0.0,0.0,0.0,0.0,0.0,0.0,0.0,0.0,0.0,0.0,0.0,0.0,0.0,0.0,0.0,0.0,0.0,0.0,0.0,0.0,0.0,0.0,0.0,0.0,0.0,0.0,0.0,0.0,0.0,0.0,0.0,0.0,0.0,0.0,0.0,0.0,0.0,0.0,0.0,0.0,0.0,0.0,0.0,0.0,0.0,0.0,0.0,0.0,0.0,0.0,0.0,0.0,0.0,0.0,0.0,0.0,0.0,0.0,0.0,0.0,0.0,0.0,0.0,0.0,0.0,0.0,0.0,0.0,0.0,0.0,0.0,0.0,0.0,0.0,0.0,0.0,0.0,0.0,0.0,0.0,0.0,0.0,0.0,0.0,0.0,0.0,0.0,0.0,0.0,0.0,0.0,0.0,0.0,0.0,0.0,0.0,0.0,0.0,0.0,0.0,0.0,0.0,0.0,0.0,0.0,0.0,0.0,0.0,0.0,0.0,0.0,0.0,0.0,0.0,0.0,0.0,0.0,0.0,0.0,0.0,0.0,0.0,0.0,0.0,0.0,0.0,0.0,0.0,0.0,0.0,0.0,0.0,0.0,0.0,0.0,0.0,0.0,0.0,0.0,0.0,0.0,0.0,0.0,0.0,0.0,0.0,0.0,0.0,0.0,0.0,0.0,0.0,0.0,0.0,0.0,0.0,0.0,0.0,0.0,0.0,0.0,0.0,0.0,0.0,0.0,0.0,0.0,0.0,0.0,0.0,0.0,0.0,0.0,0.0,0.0,0.0,0.0,0.0,0.0,0.0,0.0,0.0,0.0,0.0,0.0,0.0,0.0,0.0,0.0,0.0,0.0,0.0,0.0,0.0,0.0,0.0,0.0,0.0,0.0,0.0,0.0,0.0,0.0,0.0,0.0,0.0,0.0,0.0,0.0,0.0,0.0,0.0,0.0,0.0,0.0,0.0,0.0,0.0,0.0,0.0,0.0,0.0,0.0,0.0,0.0,0.0,0.0,0.0,0.0,0.0,0.0,0.0,0.0,0.0,0.0,0.0,0.0,0.0,0.0,0.0,0.0,0.0,0.0,0.0,0.0,0.0,0.0,0.0,0.0,0.0,0.0,0.0,0.0,0.0,0.0,0.0,0.0,0.0,0.0,0.0,0.0,0.0,0.0,0.0,0.0,0.0,0.0,0.0,0.0,0.0,0.0,0.0,0.0,0.0,0.0,0.0,0.0,0.0,0.0,0.0,0.0,0.0,0.0,0.0,0.0,0.0,0.0,0.0,0.0,0.0,0.0,0.0,0.0,0.0,0.0,0.0,0.0,0.0,0.0,0.0,0.0,0.0,0.0,0.0,0.0,0.0,0.0,0.0,0.0,0.0,0.0,0.0,0.0,0.0,0.0,0.0,0.0,0.0,0.0,0.0,0.0,0.0,0.0,0.0,0.0,0.0,0.0,0.0,0.0,0.0,0.0,0.0,0.0,0.0,0.0,0.0,0.0,0.0,0.0,0.0,0.0,0.0,0.0,0.0,0.0,0.0,0.0,0.0,0.0,0.0,0.0,0.0,0.0,0.0,0.0,0.0,0.0,0.0,0.0,0.0,0.0,0.0,0.0,0.0,0.0,0.0,0.0,0.0,0.0,0.0,0.0,0.0,0.0,0.0,0.0,0.0,0.0,0.0,0.0,0.0,0.0,0.0,0.0,0.0,0.0,0.0,0.0,0.0,0.0,0.0,0.0,0.0,0.0,0.0,0.0,0.0,0.0,0.0,0.0,0.0,0.0,0.0,0.0,0.0,0.0,0.0,0.0,0.0,0.0,0.0,0.0,0.0,0.0,0.0,0.0,0.0,0.0,0.0,0.0,0.0,0.0,0.0,0.0,0.0,0.0,0.0,0.0,0.0,0.0,0.0,0.0,0.0,0.0,0.0,0.0,0.0,0.0,0.0,0.0,0.0,0.0,0.0,0.0,0.0,0.0,0.0,0.0,0.0,0.0,0.0,0.0,0.0,0.0,0.0,0.0,0.0,0.0,0.0,0.0,0.0,0.0,0.0,0.0,0.0,0.0,0.0,0.0,0.0,0.0,0.0,0.0,0.0,0.0,0.0,0.0,0.0,0.0,0.0,0.0,0.0,0.0,0.0,0.0,0.0,0.0,0.0,0.0,0.0,0.0,0.0,0.0,0.0,0.0,0.0,0.0,0.0,0.0,0.0,0.0,0.0,0.0,0.0,0.0,0.0,0.0,0.0,0.0,0.0,0.0,0.0,0.0,0.0,0.0,0.0,0.0,0.0,0.0,0.0,0.0,0.0,0.0,0.0,0.0,0.0,0.0,0.0,0.0,0.0,0.0,0.0,0.0,0.0,0.0,0.0,0.0,0.0,0.0,0.0,0.0,0.0,0.0,0.0,0.0,0.0,0.0,0.0,0.0,0.0,0.0,0.0,0.0,0.0,0.0,0.0,0.0,0.0,0.0,0.0,0.0,0.0,0.0,0.0,0.0,0.0,0.0,0.0,0.0,0.0,0.0,0.0,0.0,0.0,0.0,0.0,0.0,0.0,0.0,0.0,0.0,0.0,0.0,0.0,0.0,0.0,0.0,0.0,0.0,0.0,0.0,0.0,0.0,0.0,0.0,0.0,0.0,0.0,0.0,0.0,0.0,0.0,0.0,0.0,0.0,0.0,0.0,0.0,0.0,0.0,0.0,0.0,0.0,0.0,0.0,0.0,0.0,0.0,0.0,0.0,0.0,0.0,0.0,0.0,0.0,0.0,0.0,0.0,0.0,0.0,0.0,0.0,0.0,0.0,0.0,0.0,0.0,0.0,0.0,0.0,0.0,0.0,0.0,0.0,0.0,0.0,0.0,0.0,0.0,0.0,0.0,0.0,0.0,0.0,0.0,0.0,0.0,0.0,0.0,0.0,0.0,0.0,0.0,0.0,0.0,0.0,0.0,0.0,0.0,0.0,0.0,0.0,0.0,0.0,0.0,0.0,0.0,0.0,0.0,0.0,0.0,0.0,0.0,0.0,0.0,0.0,0.0,0.0,0.0,0.0,0.0,0.0,0.0,0.0,0.0,0.0,0.0,0.0,0.0,0.0,0.0,0.0,0.0,0.0,0.0,0.0,0.0,0.0,0.3992,0.0,0.0,0.0,0.0,0.0,0.0,0.0,0.0,0.0,0.0,0.0,0.0,0.0,0.0,0.0,0.0,0.0,0.0,0.0,0.0,0.0,0.0,0.0,0.0,0.0,0.0,0.0,0.0,0.0,0.0,0.0,0.0,0.0,0.0,0.0,0.0,0.0,0.0,0.0,0.0,0.0,0.0,0.0,0.0,0.0,0.0,0.0,0.0,0.0,0.0,0.0,0.0,0.0,0.0,0.0,0.0,0.0,0.0,0.0,0.0,0.0,0.0,0.0,0.0,0.0,0.0,0.0,0.0,0.0,0.0,0.0,0.0,0.0,0.0,0.0,0.0,0.0,0.0,0.0,0.0,0.0,0.0,0.0,0.0,0.0,0.0,0.0,0.0,0.0,0.0,0.0,0.0,0.0,0.0,0.0,0.0,0.0,0.0,0.0,0.0,0.0,0.0,0.0,0.0,0.0,0.0,0.0,0.0,0.0,0.0,0.3299,0.375,0.3788,0.4013,0.4479,0.0,0.0,0.0,0.0,0.0,0.0,0.0,0.0,0.0,0.0,0.0,0.0,0.0,0.0,0.0,0.0,0.0,0.0,0.0,0.0,0.0,0.0,0.0,0.0,0.0,0.0,0.0,0.0,0.0,0.0,0.0,0.0,0.0,0.0,0.0,0.0,0.0,0.0,0.0,0.0,0.0,0.0,0.0,0.0,0.0,0.0,0.0,0.0,0.0,0.0,0.0,0.0,0.0,0.0,0.0,0.0,0.0,0.0,0.0,0.0,0.0,0.0,0.0,0.0,0.0,0.0,0.0,0.0,0.0,0.0,0.0,0.0,0.0,0.0,0.0,0.0,0.0,0.0,0.0,0.0,0.0,0.0,0.0,0.0,0.0,0.0,0.0,0.0,0.0,0.0,0.0,0.0,0.0,0.0,0.0,0.0,0.0,0.0,0.0,0.0,0.0,0.0,0.0,0.0,0.0,0.0,0.0,0.0,0.0,0.0,0.0,0.0,0.4259,0.4475,0.494,0.0,0.0,0.0,0.0,0.0,0.0,0.0,0.0,0.0,0.0,0.0,0.0,0.0,0.0,0.0,0.0,0.0,0.0,0.0,0.0,0.0,0.0,0.0,0.0,0.0,0.0,0.0,0.0,0.0,0.0,0.0,0.0,0.0,0.0,0.0,0.0,0.0,0.0,0.0,0.0,0.0,0.0,0.0,0.0,0.0,0.0,0.0,0.0,0.0,0.0,0.0,0.0,0.0,0.0,0.0,0.0,0.0,0.0,0.0,0.0,0.0,0.0,0.0,0.0,0.0,0.0,0.0,0.0,0.0,0.0,0.0,0.0,0.0,0.0,0.0,0.0,0.0,0.0,0.0,0.0,0.0,0.0,0.0,0.0,0.0,0.0,0.0,0.0,0.0,0.0,0.0,0.0,0.0,0.0,0.0,0.0,0.0,0.0,0.0,0.0,0.0,0.0,0.0,0.0,0.0,0.0,0.0,0.0,0.0,0.0,0.3826,0.4696,0.474,0.0,0.5398,0.0,0.0,0.0,0.0,0.0,0.0,0.0,0.0,0.0,0.0,0.0,0.0,0.0,0.0,0.0,0.0,0.0,0.0,0.0,0.0,0.0,0.0,0.0,0.0,0.0,0.0,0.0,0.0,0.0,0.0,0.0,0.0,0.0,0.0,0.0,0.0,0.0,0.0,0.0,0.0,0.0,0.0,0.0,0.0,0.0,0.0,0.0,0.0,0.0,0.0,0.0,0.0,0.0,0.0,0.0,0.0,0.0,0.0,0.0,0.0,0.0,0.0,0.0,0.0,0.0,0.0,0.0,0.0,0.0,0.0,0.0,0.0,0.0,0.0,0.0,0.0,0.0,0.0,0.0,0.0,0.0,0.0,0.0,0.0,0.0,0.0,0.0,0.0,0.0,0.0,0.0,0.0,0.0,0.0,0.0,0.0,0.0,0.0,0.0,0.0,0.0,0.0,0.0,0.0,0.0,0.0,0.0,0.0,0.0,0.0,0.4442,0.5601,0.5588,0.5656,0.0,0.0,0.0,0.0,0.0,0.0,0.0,0.0,0.0,0.0,0.0,0.0,0.0,0.0,0.0,0.0,0.0,0.0,0.0,0.0,0.0,0.0,0.0,0.0,0.0,0.0,0.0,0.0,0.0,0.0,0.0,0.0,0.0,0.0,0.0,0.0,0.0,0.0,0.0,0.0,0.0,0.0,0.0,0.0,0.0,0.0,0.0,0.0,0.0,0.0,0.0,0.0,0.0,0.0,0.0,0.0,0.0,0.0,0.0,0.0,0.0,0.0,0.0,0.0,0.0,0.0,0.0,0.0,0.0,0.0,0.0,0.0,0.0,0.0,0.0,0.0,0.0,0.0,0.0,0.0,0.0,0.0,0.0,0.0,0.0,0.0,0.0,0.0,0.0,0.0,0.0,0.0,0.0,0.0,0.0,0.0,0.0,0.0,0.0,0.0,0.0,0.0,0.0,0.0,0.0,0.0,0.0,0.0,0.0,0.0,0.4131,0.477,0.593,0.5956,0.5936,0.5941,0.0,0.0,0.0,0.0,0.0,0.0,0.0,0.0,0.0,0.0,0.0,0.0,0.0,0.0,0.0,0.0,0.0,0.0,0.0,0.0,0.0,0.0,0.0,0.0,0.0,0.0,0.0,0.0,0.0,0.0,0.0,0.0,0.0,0.0,0.0,0.0,0.0,0.0,0.0,0.0,0.0,0.0,0.0,0.0,0.0,0.0,0.0,0.0,0.0,0.0,0.0,0.0,0.0,0.0,0.0,0.0,0.0,0.0,0.0,0.0,0.0,0.0,0.0,0.0,0.0,0.0,0.0,0.0,0.0,0.0,0.0,0.0,0.0,0.0,0.0,0.0,0.0,0.0,0.0,0.0,0.0,0.0,0.0,0.0,0.0,0.0,0.0,0.0,0.0,0.0,0.0,0.0,0.0,0.0,0.0,0.0,0.0,0.0,0.0,0.0,0.0,0.0,0.0,0.0,0.0,0.0,0.0,0.0,0.0,0.3982,0.4631,0.5512,0.5524,0.5529,0.0,0.0,0.0,0.0,0.0,0.0,0.0,0.0,0.0,0.0,0.0,0.0,0.0,0.0,0.0,0.0,0.0,0.0,0.0,0.0,0.0,0.0,0.0,0.0,0.0,0.0,0.0,0.0,0.0,0.0,0.0,0.0,0.0,0.0,0.0,0.0,0.0,0.0,0.0,0.0,0.0,0.0,0.0,0.0,0.0,0.0,0.0,0.0,0.0,0.0,0.0,0.0,0.0,0.0,0.0,0.0,0.0,0.0,0.0,0.0,0.0,0.0,0.0,0.0,0.0,0.0,0.0,0.0,0.0,0.0,0.0,0.0,0.0,0.0,0.0,0.0,0.0,0.0,0.0,0.0,0.0,0.0,0.0,0.0,0.0,0.0,0.0,0.0,0.0,0.0,0.0,0.0,0.0,0.0,0.0,0.0,0.0,0.0,0.0,0.0,0.0,0.0,0.0,0.0,0.0,0.0,0.0,0.0,0.0,0.3526,0.4544,0.5251,0.5546,0.5759,0.5884,0.0,0.0,0.0,0.0,0.0,0.0,0.0,0.0,0.0,0.0,0.0,0.0,0.0,0.0,0.0,0.0,0.0,0.0,0.0,0.0,0.0,0.0,0.0,0.0,0.0,0.0,0.0,0.0,0.0,0.0,0.0,0.0,0.0,0.0,0.0,0.0,0.0,0.0,0.0,0.0,0.0,0.0,0.0,0.0,0.0,0.0,0.0,0.0,0.0,0.0,0.0,0.0,0.0,0.0,0.0,0.0,0.0,0.0,0.0,0.0,0.0,0.0,0.0,0.0,0.0,0.0,0.0,0.0,0.0,0.0,0.0,0.0,0.0,0.0,0.0,0.0,0.0,0.0,0.0,0.0,0.0,0.0,0.0,0.0,0.0,0.0,0.0,0.0,0.0,0.0,0.0,0.0,0.0,0.0,0.0,0.0,0.0,0.0,0.0,0.0,0.0,0.0,0.0,0.0,0.0,0.0,0.0,0.0,0.0,0.3994,0.0,0.5472,0.0,0.5794,0.5899,0.0,0.0,0.0,0.0,0.0,0.0,0.0,0.0,0.0,0.0,0.0,0.0,0.0,0.0,0.0,0.0,0.0,0.0,0.0,0.0,0.0,0.0,0.0,0.0,0.0,0.0,0.0,0.0,0.0,0.0,0.0,0.0,0.0,0.0,0.0,0.0,0.0,0.0,0.0,0.0,0.0,0.0,0.0,0.0,0.0,0.0,0.0,0.0,0.0,0.0,0.0,0.0,0.0,0.0,0.0,0.0,0.0,0.0,0.0,0.0,0.0,0.0,0.0,0.0,0.0,0.0,0.0,0.0,0.0,0.0,0.0,0.0,0.0,0.0,0.0,0.0,0.0,0.0,0.0,0.0,0.0,0.0,0.0,0.0,0.0,0.0,0.0,0.0,0.0,0.0,0.0,0.0,0.0,0.0,0.0,0.0,0.0,0.0,0.0,0.0,0.0,0.0,0.0,0.0,0.0,0.0,0.0,0.0,0.4462,0.4953,0.5018,0.5258,0.5579,0.5556,0.5518,0.0,0.0,0.0,0.0,0.0,0.0,0.0,0.0,0.0,0.0,0.0,0.0,0.0,0.0,0.0,0.0,0.0,0.0,0.0,0.0,0.0,0.0,0.0,0.0,0.0,0.0,0.0,0.0,0.0,0.0,0.0,0.0,0.0,0.0,0.0,0.0,0.0,0.0,0.0,0.0,0.0,0.0,0.0,0.0,0.0,0.0,0.0,0.0,0.0,0.0,0.0,0.0,0.0,0.0,0.0,0.0,0.0,0.0,0.0,0.0,0.0,0.0,0.0,0.0,0.0,0.0,0.0,0.0,0.0,0.0,0.0,0.0,0.0,0.0,0.0,0.0,0.0,0.0,0.0,0.0,0.0,0.0,0.0,0.0,0.0,0.0,0.0,0.0,0.0,0.0,0.0,0.0,0.0,0.0,0.0,0.0,0.0,0.0,0.0,0.0,0.0,0.0,0.0,0.0,0.0,0.0,0.0,0.0,0.0,0.5012,0.5589,0.5826,0.569,0.5874,0.5845,0.0,0.0,0.0,0.0,0.0,0.0,0.0,0.0,0.0,0.0,0.0,0.0,0.0,0.0,0.0,0.0,0.0,0.0,0.0,0.0,0.0,0.0,0.0,0.0,0.0,0.0,0.0,0.0,0.0,0.0,0.0,0.0,0.0,0.0,0.0,0.0,0.0,0.0,0.0,0.0,0.0,0.0,0.0,0.0,0.0,0.0,0.0,0.0,0.0,0.0,0.0,0.0,0.0,0.0,0.0,0.0,0.0,0.0,0.0,0.0,0.0,0.0,0.0,0.0,0.0,0.0,0.0,0.0,0.0,0.0,0.0,0.0,0.0,0.0,0.0,0.0,0.0,0.0,0.0,0.0,0.0,0.0,0.0,0.0,0.0,0.0,0.0,0.0,0.0,0.0,0.0,0.0,0.0,0.0,0.0,0.0,0.0,0.0,0.0,0.0,0.0,0.0,0.0,0.0,0.0,0.0,0.0,0.0,0.0,0.627,0.6473,0.6441,0.6164,0.6207,0.6081,0.5748,0.0,0.0,0.0,0.0,0.0,0.0,0.0,0.0,0.0,0.0,0.0,0.0,0.0,0.0,0.0,0.0,0.0,0.0,0.0,0.0,0.0,0.0,0.0,0.0,0.0,0.0,0.0,0.0,0.0,0.0,0.0,0.0,0.0,0.0,0.0,0.0,0.0,0.0,0.0,0.0,0.0,0.0,0.0,0.0,0.0,0.0,0.0,0.0,0.0,0.0,0.0,0.0,0.0,0.0,0.0,0.0,0.0,0.0,0.0,0.0,0.0,0.0,0.0,0.0,0.0,0.0,0.0,0.0,0.0,0.0,0.0,0.0,0.0,0.0,0.0,0.0,0.0,0.0,0.0,0.0,0.0,0.0,0.0,0.0,0.0,0.0,0.0,0.0,0.0,0.0,0.0,0.0,0.0,0.0,0.0,0.0,0.0,0.0,0.0,0.0,0.0,0.0,0.0,0.0,0.0,0.0,0.0,0.0,0.8372,0.7652,0.7178,0.6988,0.6635,0.6329,0.0,0.0,0.0,0.0,0.0,0.0,0.0,0.0,0.0,0.0,0.0,0.0,0.0,0.0,0.0,0.0,0.0,0.0,0.0,0.0,0.0,0.0,0.0,0.0,0.0,0.0,0.0,0.0,0.0,0.0,0.0,0.0,0.0,0.0,0.0,0.0,0.0,0.0,0.0,0.0,0.0,0.0,0.0,0.0,0.0,0.0,0.0,0.0,0.0,0.0,0.0,0.0,0.0,0.0,0.0,0.0,0.0,0.0,0.0,0.0,0.0,0.0,0.0,0.0,0.0,0.0,0.0,0.0,0.0,0.0,0.0,0.0,0.0,0.0,0.0,0.0,0.0,0.0,0.0,0.0,0.0,0.0,0.0,0.0,0.0,0.0,0.0,0.0,0.0,0.0,0.0,0.0,0.0,0.0,0.0,0.0,0.0,0.0,0.0,0.0,0.0,0.0,0.0,0.0,0.0,0.0,0.0,0.0,0.0,0.8248,0.8795,0.8737,0.8054,0.7848,0.7436,0.0,0.0,0.0,0.0,0.0,0.0,0.0,0.0,0.0,0.0,0.0,0.0,0.0,0.0,0.0,0.0,0.0,0.0,0.0,0.0,0.0,0.0,0.0,0.0,0.0,0.0,0.0,0.0,0.0,0.0,0.0,0.0,0.0,0.0,0.0,0.0,0.0,0.0,0.0,0.0,0.0,0.0,0.0,0.0,0.0,0.0,0.0,0.0,0.0,0.0,0.0,0.0,0.0,0.0,0.0,0.0,0.0,0.0,0.0,0.0,0.0,0.0,0.0,0.0,0.0,0.0,0.0,0.0,0.0,0.0,0.0,0.0,0.0,0.0,0.0,0.0,0.0,0.0,0.0,0.0,0.0,0.0,0.0,0.0,0.0,0.0,0.0,0.0,0.0,0.0,0.0,0.0,0.0,0.0,0.0,0.0,0.0,0.0,0.0,0.0,0.0,0.0,0.0,0.0,0.0,0.0,0.0,0.0,0.8259,0.8868,0.9831,0.9985,0.9269,0.8635,0.8035,0.0,0.0,0.0,0.0,0.0,0.0,0.0,0.0,0.0,0.0,0.0,0.0,0.0,0.0,0.0,0.0,0.0,0.0,0.0,0.0,0.0,0.0,0.0,0.0,0.0,0.0,0.0,0.0,0.0,0.0,0.0,0.0,0.0,0.0,0.0,0.0,0.0,0.0,0.0,0.0,0.0,0.0,0.0,0.0,0.0,0.0,0.0,0.0,0.0,0.0,0.0,0.0,0.0,0.0,0.0,0.0,0.0,0.0,0.0,0.0,0.0,0.0,0.0,0.0,0.0,0.0,0.0,0.0,0.0,0.0,0.0,0.0,0.0,0.0,0.0,0.0,0.0,0.0,0.0,0.0,0.0,0.0,0.0,0.0,0.0,0.0,0.0,0.0,0.0,0.0,0.0,0.0,0.0,0.0,0.0,0.0,0.0,0.0,0.0,0.0,0.0,0.0,0.0,0.0,0.0,0.0,0.0,0.0,0.8829,0.9754,1.0653,1.0901,1.0443,0.9185,0.844,0.0,0.0,0.0,0.0,0.0,0.0,0.0,0.0,0.0,0.0,0.0,0.0,0.0,0.0,0.0,0.0,0.0,0.0,0.0,0.0,0.0,0.0,0.0,0.0,0.0,0.0,0.0,0.0,0.0,0.0,0.0,0.0,0.0,0.0,0.0,0.0,0.0,0.0,0.0,0.0,0.0,0.0,0.0,0.0,0.0,0.0,0.0,0.0,0.0,0.0,0.0,0.0,0.0,0.0,0.0,0.0,0.0,0.0,0.0,0.0,0.0,0.0,0.0,0.0,0.0,0.0,0.0,0.0,0.0,0.0,0.0,0.0,0.0,0.0,0.0,0.0,0.0,0.0,0.0,0.0,0.0,0.0,0.0,0.0,0.0,0.0,0.0,0.0,0.0,0.0,0.0,0.0,0.0,0.0,0.0,0.0,0.0,0.0,0.0,0.0,0.0,0.0,0.0,0.0,0.0,0.0,0.0,0.0,0.9197,0.9576,1.0616,1.1058,1.0793,1.0152,0.9468,0.0,0.0,0.0,0.0,0.0,0.0,0.0,0.0,0.0,0.0,0.0,0.0,0.0,0.0,0.0,0.0,0.0,0.0,0.0,0.0,0.0,0.0,0.0,0.0,0.0,0.0,0.0,0.0,0.0,0.0,0.0,0.0,0.0,0.0,0.0,0.0,0.0,0.0,0.0,0.0,0.0,0.0,0.0,0.0,0.0,0.0,0.0,0.0,1.1057,0.0,0.0,0.0,0.0,0.0,0.0,0.0,0.0,0.0,0.0,0.0,0.0,0.0,0.0,0.0,0.0,0.0,0.0,0.0,0.0,0.0,0.0,0.0,0.0,0.0,0.0,0.0,0.0,0.0,0.0,0.0,0.0,0.0,0.0,0.0,0.0,0.0,0.0,0.0,0.0,0.0,0.0,0.0,0.0,0.0,0.0,0.0,0.0,0.0,0.0,0.0,0.0,0.0,0.0,0.0,0.0,0.0,0.0,0.0,0.9295,0.9651,1.0635,1.1101,1.0996,1.0681,1.0096,0.0,0.0,0.0,0.0,0.0,0.0,0.0,0.0,0.0,0.0,0.0,0.0,0.0,0.0,0.0,0.0,0.0,0.0,0.0,0.0,0.0,0.0,0.0,0.0,0.0,0.0,0.0,0.0,0.0,0.0,0.0,0.0,0.0,0.0,0.0,0.0,0.0,0.0,0.0,0.0,0.0,0.0,0.0,0.0,0.0,0.0,0.0,0.0,0.0,0.0,0.0,0.0,0.0,0.0,0.0,0.0,0.0,0.0,0.0,0.0,0.0,0.0,0.0,0.0,0.0,0.0,0.0,0.0,0.0,0.0,0.0,0.0,0.0,0.0,0.0,0.0,0.0,0.0,0.0,0.0,0.0,0.0,0.0,0.0,0.0,0.0,0.0,0.0,0.0,0.0,0.0,0.0,0.0,0.0,0.0,0.0,0.0,0.0,0.0,0.0,0.0,0.0,0.0,0.0,0.0,0.0,0.0,0.8385,0.9351,0.9866,1.0677,1.1082,1.1072,1.0886,1.0377,0.9513,0.0,0.0,0.0,0.0,0.0,0.0,0.0,0.0,0.0,0.0,0.0,0.0,0.0,0.0,0.0,0.0,0.0,0.0,0.0,0.0,0.0,0.0,0.0,0.0,0.0,0.0,0.0,0.0,0.0,0.0,0.0,0.0,0.0,0.0,0.0,0.0,0.0,0.0,1.0015,1.1537,0.0,0.0,0.0,0.0,0.0,0.0,0.0,0.0,1.197,0.0,0.0,0.0,0.0,0.0,0.0,0.0,0.0,0.0,0.0,0.0,0.0,0.0,0.0,0.0,0.0,0.0,0.0,0.0,0.0,0.0,0.0,0.0,0.0,0.0,0.0,0.0,0.0,0.0,0.0,0.0,0.0,0.0,0.0,0.0,0.0,0.0,0.0,0.0,0.0,0.0,0.0,0.0,0.0,0.0,0.0,0.0,0.0,0.0,0.0,0.0,0.0,0.0,0.0,0.0,0.0,0.7399,0.8845,0.9768,1.014,1.0761,1.1044,1.0929,1.0519,1.0056,0.953,0.0,0.0,0.0,0.0,0.0,0.0,0.0,0.0,0.0,0.0,0.0,0.0,0.0,0.0,0.0,0.0,0.0,0.0,0.0,0.0,0.0,0.0,0.0,0.0,0.0,0.0,0.0,0.0,0.0,0.0,0.0,0.0,0.0,0.0,0.0,0.0,0.0,0.0,0.0,1.2417,1.3153,0.0,0.0,0.0,0.0,0.0,0.0,0.0,0.0,1.2908,0.0,0.0,0.0,0.0,0.0,0.0,0.0,0.0,0.0,0.0,0.0,0.0,0.0,0.0,0.0,0.0,0.0,0.0,0.0,0.0,0.0,0.0,0.0,0.0,0.0,0.0,0.0,0.0,0.0,0.0,0.0,0.0,0.0,0.0,0.0,0.0,0.0,0.0,0.0,0.0,0.0,0.0,0.0,0.0,0.0,0.0,0.0,0.0,0.0,0.0,0.0,0.0,0.0,0.0,0.0,0.7876,0.9002,0.9787,1.019,1.0719,1.0968,1.089,1.0447,0.9973,0.0,0.0,0.0,0.0,0.0,0.0,0.0,0.0,0.0,0.0,0.0,0.0,0.0,0.0,0.0,0.0,0.0,0.0,0.0,0.0,0.0,0.0,0.0,0.0,0.0,0.0,0.0,0.0,0.0,0.0,0.0,0.0,0.0,0.0,0.0,0.0,0.0,0.0,0.0,0.0,1.2643,1.3262,1.3219,0.0,0.0,0.0,0.0,0.0,0.0,1.2628,1.2673,0.0,0.0,0.0,0.0,0.0,0.0,0.0,0.0,0.0,0.0,0.0,0.0,0.0,0.0,0.0,0.0,0.0,0.0,0.0,0.0,0.0,0.0,0.0,0.0,0.0,0.0,0.0,0.0,0.0,0.0,0.0,0.0,0.0,0.0,0.0,0.0,0.0,0.0,0.0,0.0,0.0,0.0,0.0,0.0,0.0,0.0,0.0,0.0,0.0,0.0,0.0,0.0,0.0,0.0,0.0,0.8329,0.9105,0.9777,1.0324,1.0714,1.09,1.089,1.0355,0.9891,0.0,0.0,0.0,0.0,0.0,0.0,0.0,0.0,0.0,0.0,0.0,0.0,0.0,0.0,0.0,0.0,0.0,0.0,0.0,0.0,0.0,0.0,0.0,0.0,0.0,0.0,0.0,0.0,0.0,0.0,0.0,0.0,0.0,0.0,0.0,0.0,0.0,0.0,0.0,0.0,0.0,1.3425,1.3562,1.3213,0.0,0.0,0.0,0.0,1.3041,1.294,0.0,0.0,0.0,0.0,0.0,0.0,0.0,0.0,0.0,0.0,0.0,0.0,0.0,0.0,0.0,0.0,0.0,0.0,0.0,0.0,0.0,0.0,0.0,0.0,0.0,0.0,0.0,0.0,0.0,0.0,0.0,0.0,0.0,0.0,0.0,0.0,0.0,0.0,0.0,0.0,0.0,0.0,0.0,0.0,0.0,0.0,0.0,0.0,0.0,0.0,0.0,0.0,0.0,0.0,0.0,0.0,0.8779,0.9278,0.9932,1.0777,1.087,1.09,1.088,1.0046,0.9544,0.0,0.0,0.0,0.0,0.0,0.0,0.0,0.0,0.0,0.0,0.0,0.0,0.0,0.0,0.0,0.0,0.0,0.0,0.0,0.0,0.0,0.0,0.0,0.0,0.0,0.0,0.0,0.0,0.0,0.0,0.0,0.0,0.0,0.0,0.0,0.0,0.0,0.0,0.0,0.0,0.0,1.4235,1.4882,1.4562,1.4136,0.0,0.0,1.4188,1.3177,1.3898,0.0,0.0,0.0,0.0,0.0,0.0,0.0,0.0,0.0,0.0,0.0,0.0,0.0,0.0,0.0,0.0,0.0,0.0,0.0,0.0,0.0,0.0,0.0,0.0,0.0,0.0,0.0,0.0,0.0,0.0,0.0,0.0,0.0,0.0,0.0,0.0,0.0,0.0,0.0,0.0,0.0,0.0,0.0,0.0,0.0,0.0,0.0,0.0,0.0,0.0,0.0,0.0,0.0,0.0,0.0,0.788,0.9195,0.9673,1.023,1.086,1.09,1.09,1.09,1.0003,0.9491,0.0,0.0,0.0,0.0,0.0,0.0,0.0,0.0,0.0,0.0,0.0,0.0,0.0,0.0,0.0,0.0,0.0,0.0,0.0,0.0,0.0,0.0,0.0,0.0,0.0,0.0,0.0,0.0,0.0,0.0,0.0,0.0,0.0,0.0,0.0,0.0,0.0,0.0,0.0,0.0,0.0,0.0,1.5622,1.5474,0.0,0.0,0.0,1.5316,1.5037,0.0,0.0,0.0,0.0,0.0,0.0,0.0,0.0,0.0,0.0,0.0,0.0,0.0,0.0,0.0,0.0,0.0,0.0,0.0,0.0,0.0,0.0,0.0,0.0,0.0,0.0,0.0,0.0,0.0,0.0,0.0,0.0,0.0,0.0,0.0,0.0,0.0,0.0,0.0,0.0,0.0,0.0,0.0,0.0,0.0,0.0,0.0,0.0,0.0,0.0,0.0,0.0,0.0,0.0,0.0,0.0,0.0,0.948,0.9963,1.0446,1.087,1.09,1.09,1.089,1.0099,0.0,0.0,0.0,0.0,0.0,0.0,0.0,0.0,0.0,0.0,0.0,0.0,0.0,0.0,0.0,0.0,0.0,0.0,0.0,0.0,0.0,0.0,0.0,0.0,0.0,0.0,0.0,0.5403,0.0,0.0,0.0,0.0,0.0,0.0,0.0,0.0,0.0,0.0,0.0,0.0,0.0,0.0,1.4994,1.6203,1.631,1.6395,0.0,0.0,1.6309,1.6452,1.5594,1.4802,0.0,0.0,0.0,0.0,0.0,0.0,0.0,0.0,0.0,0.0,0.0,0.0,0.0,0.0,0.0,0.0,0.0,0.0,0.0,0.0,0.0,0.0,0.0,0.0,0.0,0.0,0.0,0.0,0.0,0.0,0.0,0.0,0.0,0.0,0.0,0.0,0.0,0.0,0.0,0.0,0.0,0.0,0.0,0.0,0.0,0.0,0.0,0.0,0.0,0.0,0.0,0.0,0.0,0.0,0.0,0.946,0.9963,1.0436,1.0879,1.09,1.09,1.09,1.0426,0.9943,0.0,0.0,0.0,0.0,0.0,0.0,0.0,0.0,0.0,0.0,0.0,0.0,0.0,0.0,0.0,0.0,0.0,0.0,0.0,0.0,0.0,0.0,0.0,0.0,0.0,0.0,0.0,0.0,0.0,0.0,0.0,0.0,0.0,0.0,0.0,0.0,0.0,0.0,0.0,0.0,0.0,1.6037,1.6761,1.7267,1.7371,0.0,0.0,1.7312,1.6539,1.6478,1.6236,1.5286,0.0,0.0,0.0,0.0,0.0,0.0,0.0,0.0,0.0,0.0,0.0,0.0,0.0,0.0,0.0,0.0,0.0,0.0,0.0,0.0,0.0,0.0,0.0,0.0,0.0,0.0,0.0,0.0,0.0,0.0,0.0,0.0,0.0,0.0,0.0,0.0,0.0,0.0,0.0,0.0,0.0,0.0,0.0,0.0,0.0,0.0,0.0,0.0,0.0,0.0,0.0,0.0,0.0,0.8449,0.9499,1.0251,1.0715,1.088,1.09,1.09,1.09,1.0456,0.9973,0.0,0.0,0.0,0.0,0.0,0.0,0.0,0.0,0.0,0.0,0.0,0.0,0.0,0.0,0.0,0.0,0.0,0.0,0.0,0.0,0.0,0.0,0.0,0.0,0.0,0.0,0.0,0.0,0.6989,0.7208,0.6836,0.0,0.0,0.0,0.0,0.0,0.0,0.0,0.0,0.0,0.0,1.6508,1.7275,1.7856,0.0,0.0,1.8045,1.8049,1.7645,1.7076,1.6498,1.5869,1.4946,0.0,0.0,0.0,0.0,0.0,0.0,0.0,0.0,0.0,0.0,0.0,0.0,0.0,0.0,0.0,0.0,0.0,0.0,0.0,0.0,0.0,0.0,0.0,0.0,0.0,0.0,0.0,0.0,0.0,0.0,0.0,0.0,0.0,0.0,0.0,0.0,0.0,0.0,0.0,0.0,0.0,0.0,0.0,0.0,0.0,0.0,0.0,0.0,0.0,0.0,0.0,0.0,0.8635,0.9491,1.0436,1.09,1.09,1.09,1.09,1.088,1.0581,1.0119,0.0,0.0,0.0,0.0,0.0,0.0,0.0,0.0,0.0,0.0,0.0,0.0,0.0,0.0,0.0,0.0,0.0,0.0,0.0,0.0,0.0,0.0,0.0,0.0,0.0,0.0,0.0,0.0,0.7842,0.7906,0.7662,0.0,0.0,0.0,0.0,0.0,0.0,0.0,0.0,0.0,0.0,1.7214,1.7997,1.8628,1.8983,1.9013,1.8993,1.8877,1.8545,1.7697,1.6905,1.6435,0.0,0.0,0.0,0.0,0.0,0.0,0.0,0.0,0.0,0.0,0.0,0.0,0.0,0.0,0.0,0.0,0.0,0.0,0.0,0.0,0.0,0.0,0.0,0.0,0.0,0.0,0.0,0.4687,0.0,0.0,0.4546,0.0,0.0,0.0,0.0,0.0,0.0,0.0,0.0,0.0,0.0,0.0,0.0,0.0,0.0,0.0,0.0,0.0,0.0,0.0,0.0,0.0,0.0,0.8635,0.9509,1.0426,1.09,1.09,1.09,1.09,1.09,1.089,1.0438,0.9522,0.0,0.0,0.0,0.0,0.0,0.0,0.0,0.0,0.0,0.0,0.0,0.0,0.0,0.0,0.0,0.0,0.0,0.0,0.0,0.0,0.0,0.0,0.0,0.0,0.0,0.0,0.8846,0.8352,0.8249,0.0,0.0,0.0,0.0,0.0,0.0,0.0,0.0,0.0,0.0,1.6983,1.8381,1.8972,1.9634,1.9991,1.995,1.9983,1.9782,1.8984,1.8307,1.7675,0.0,0.0,0.0,0.0,0.0,0.0,0.0,0.0,0.0,0.0,0.0,0.0,0.0,0.0,0.0,0.0,0.0,0.0,0.0,0.0,0.0,0.0,0.0,0.0,0.0,0.0,0.0,0.5774,0.5742,0.0,0.0,0.0,0.0,0.0,0.0,0.0,0.0,0.0,0.0,0.0,0.8611,0.8762,0.0,0.0,0.0,0.0,0.0,0.0,0.0,0.0,0.0,0.0,0.0,0.0,0.8935,0.952,1.0427,1.09,1.09,1.09,1.09,1.09,1.09,1.0467,0.9524,0.0,0.0,0.0,0.0,0.0,0.0,0.0,0.0,0.0,0.0,0.0,0.0,0.0,0.0,0.0,0.0,0.0,0.0,0.0,0.0,0.0,0.0,0.0,0.0,0.0,0.9511,0.0,0.0,0.0,0.0,0.0,0.0,0.0,0.0,0.0,0.0,0.0,1.599,1.6946,1.8297,1.9287,1.947,1.9708,1.9831,0.0,0.0,0.0,0.0,0.0,0.0,0.0,0.0,0.0,0.0,0.0,0.0,0.0,0.0,1.9251,1.7601,1.6899,1.6787,1.75,0.0,0.0,0.0,0.0,0.0,0.0,0.0,0.0,0.0,0.0,0.0,0.0,0.0,0.0,0.6816,0.0,0.6466,0.0,0.0,0.0,0.0,0.0,0.0,0.0,0.0,0.9175,0.9318,0.9213,0.9195,0.9287,0.0,0.9901,0.9585,0.0,0.0,0.0,0.0,0.0,0.0,0.0,0.0,0.9213,0.9652,1.0397,1.0794,1.0794,1.0843,1.0861,1.0861,1.0726,1.0374,0.9767,0.9051,0.8583,0.0,0.0,0.0,0.0,0.0,0.0,0.0,0.0,0.0,0.0,0.0,0.0,0.0,0.0,0.0,0.0,0.0,0.0,0.0,0.0,0.0,0.0,0.0,1.0348,0.0,0.0,0.0,0.0,0.0,0.0,0.0,0.0,0.0,1.619,1.6566,1.7095,1.8079,1.9239,1.9974,1.9974,0.0,0.0,0.0,0.0,0.0,0.0,0.0,1.8541,1.853,1.9852,2.0493,1.9255,1.9727,2.0377,2.0678,0.0,0.0,2.0005,1.9138,1.8953,1.9793,1.9715,1.9599,1.9848,1.99,1.982,0.0,0.0,0.0,0.0,0.0,0.0,0.0,0.0,0.8028,0.7867,0.0,0.7531,0.0,0.0,0.0,0.0,0.7845,0.8266,0.0,0.0,0.9803,0.9783,0.9508,0.95,0.9566,0.977,1.043,1.0532,1.0135,0.9155,0.0,0.0,0.0,0.0,0.0,0.0,0.9441,0.9895,1.0384,1.0604,1.0633,1.0748,1.0804,1.0813,1.0431,1.024,1.02,0.9767,0.9352,0.8948,0.846,0.0,0.0,0.0,0.0,0.0,0.0,0.0,0.0,0.0,0.0,0.0,0.0,0.0,0.0,0.0,0.0,0.0,0.0,0.0,0.0,1.091,0.0,0.0,0.0,0.0,0.0,0.0,0.0,0.0,0.0,0.0,1.6855,1.7512,1.8198,1.8823,0.0,0.0,0.0,0.0,2.2116,2.1522,2.1941,2.1887,2.0713,2.0098,1.9768,1.977,0.0,0.0,2.1458,2.1617,2.1927,2.1941,2.2445,2.2898,2.2977,2.2297,2.187,2.1932,2.2259,2.2266,2.1396,2.1528,2.1764,0.9768,0.0,0.0,0.0,0.0,0.8932,0.9258,0.9458,0.9351,0.9259,0.9214,0.8924,0.0,0.0,0.0,0.0,0.0,0.0,0.9731,1.0217,1.0777,1.0987,1.0905,1.0891,1.0856,1.0782,1.1169,1.0981,1.0284,1.0047,0.9651,0.9061,0.0,0.0,0.0,0.0,0.9597,0.9975,1.0445,1.0766,1.0947,1.0857,1.0835,1.0863,1.0757,1.0705,1.0685,1.0252,0.996,0.9807,0.8787,0.0,0.0,0.0,0.0,0.0,0.0,0.0,0.0,0.0,0.0,0.0,0.0,0.0,0.0,0.0,0.0,0.0,0.0,0.0,1.0943,1.177,1.217,0.0,0.0,0.0,0.0,0.0,0.0,0.0,0.0,0.0,1.9285,1.9258,1.9562,0.0,0.0,2.1941,2.2362,2.2624,2.2734,2.2572,2.2615,0.0,2.1615,2.1171,2.1,2.1238,2.2189,2.2738,2.2286,2.263,2.2946,2.2864,2.3407,2.3875,2.392,2.3366,2.2965,2.3209,2.3818,2.4004,2.322,2.2996,2.2821,1.0834,1.0033,1.0163,1.0046,0.9771,1.0093,1.0351,1.055,1.0537,1.0454,1.0357,1.0268,1.0276,1.0317,0.9564,0.0,0.0,0.0,1.0542,1.0931,1.131,1.1501,1.1501,1.1501,1.144,1.1316,1.1494,1.1292,1.0785,1.0851,1.064,1.0149,0.0,0.0,0.9486,0.9737,0.9966,1.0144,1.043,1.0687,1.0901,1.0803,1.0862,1.1071,1.0945,1.0861,1.09,1.0633,1.0404,1.02,0.9609,0.8935,0.0,0.0,0.0,0.0,0.0,0.0,0.0,0.0,0.0,0.0,0.0,0.5797,0.6325,0.0,0.0,0.0,0.9756,1.0739,1.2086,1.296,0.0,0.0,0.0,0.0,0.0,0.0,0.0,1.6742,1.8521,1.9989,2.0646,2.0861,2.121,2.201,2.2429,2.2768,2.3082,0.0,2.3259,2.2964,2.3058,2.2937,2.2352,2.2094,2.2134,2.2696,2.2895,2.3121,2.3277,2.3523,2.3636,2.363,2.3923,2.4232,2.4274,2.3878,2.3687,2.408,2.4526,2.465,2.4204,2.3987,2.3784,1.151,1.178,1.1688,1.1402,1.1074,1.1374,1.1503,1.1535,1.1549,1.1439,1.1332,1.1469,1.1422,1.1205,1.0783,0.0,1.1034,1.1053,1.1241,1.1549,1.1573,1.1589,1.1589,1.1597,1.1573,1.1527,1.1549,1.1525,1.1507,1.1499,1.135,1.1032,1.0352,1.0064,1.0131,1.0286,1.0385,1.0409,1.0409,1.0471,1.0594,1.0704,1.0943,1.1328,1.1021,1.0844,1.0891,1.09,1.0705,1.0302,1.0673,1.0136,0.8536,0.0,0.0,0.0,0.0,0.0,0.0,0.0,0.0,0.0,0.0,0.0,0.0,0.0,0.0,0.0,1.1282,0.0,1.3197,1.4317,0.0,0.0,0.0,1.4755,1.5948,1.6669,1.7319,1.7994,0.0,0.0,2.1269,2.2192,2.2978,2.3271,2.327,2.3204,2.3125,2.3608,2.3687,2.3084,2.3375,2.3549,2.3043,2.2897,2.3134,2.3817,2.3742,2.3655,2.4064,2.4135,2.4099,2.4071,2.4098,2.4125,2.4111,2.4074,2.4214,2.4524,2.4592,2.4549,2.4568,2.4527,2.45,1.2455,1.2561,1.2784,1.2303,1.1398,1.1455,1.1646,1.187,1.1878,1.2019,1.2248,1.1988,1.1717,1.143,1.131,1.1302,1.1384,1.1654,1.1806,1.1894,1.2193,1.2335,1.2335,1.2328,1.2192,1.1894,1.1878,1.1757,1.1509,1.1501,1.1469,1.1374,1.1209,1.089,1.0399,1.0145,1.0177,1.0478,1.0478,1.0511,1.0606,1.1013,1.114,1.0947,1.1054,1.1044,1.0911,1.09,1.0849,1.0755,1.0848,1.0694,1.027,0.908,0.0,0.0,0.0,0.0,0.0,0.0,0.0,0.0,0.0,0.7751,0.8582,0.0,0.9902,0.0,1.2489,1.3761,1.4427,1.5508,0.0,0.0,1.6244,1.6814,1.7584,1.8645,1.9357,1.9497,2.1312,2.2603,2.2698,2.3163,2.3684,2.4182,2.3874,2.3726,2.414,2.4187,2.4141,2.3965,2.3985,2.3965,2.3834,2.3793,2.3871,2.406,2.4009,2.3999,2.4115,2.4114,2.4111,2.4111,2.4111,2.4111,2.4124,2.4111,2.4127,2.4214,2.4229,2.4301,2.4534,2.4591,2.4549,1.281,1.3022,1.3066,1.2767,1.231,1.2394,1.2551,1.271,1.271,1.2678,1.2614,1.2686,1.2567,1.2312,1.2392,1.244,1.2448,1.2623,1.271,1.2718,1.2797,1.2829,1.2821,1.267,1.2487,1.2266,1.2258,1.2177,1.2001,1.1986,1.1891,1.1733,1.1711,1.1469,1.0952,1.0724,1.0653,1.0714,1.0619,1.0658,1.0812,1.1029,1.1077,1.0931,1.0962,1.0944,1.0863,1.0861,1.0861,1.09,1.09,1.09,1.0879,1.0111,0.9103,0.0,0.0,0.0,0.0,0.0,0.0,0.0,0.0,0.0,0.0,0.0,1.2012,1.3172,1.4254,1.5178,1.5851,1.6959,1.7571,1.7446,1.7755,1.8252,1.9008,1.9849,2.0645,2.1339,2.2456,2.3268,2.3563,2.3988,2.4402,2.4734,2.4704,2.4587,2.4488,2.4589,2.4687,2.4613,2.476,2.4775,2.4633,2.4581,2.4724,2.5025,2.4988,2.4803,2.4633,2.4751,2.4801,2.4646,2.4738,2.4775,2.462,2.4279,2.428,2.4949,2.4973,2.4747,2.4451,2.4388,2.4346,1.2898,1.3292,1.305,1.3101,1.3372,1.361,1.3672,1.361,1.361,1.3275,1.2766,1.337,1.3529,1.3363,1.3513,1.361,1.361,1.361,1.361,1.3594,1.3299,1.3148,1.3076,1.279,1.2638,1.2606,1.2606,1.2606,1.2606,1.2606,1.2431,1.2084,1.2083,1.1932,1.1667,1.1636,1.143,1.1003,1.0824,1.0831,1.1015,1.0889,1.0869,1.0953,1.0795,1.0709,1.0738,1.0765,1.0804,1.09,1.09,1.09,1.09,1.109,1.0541,0.0,0.9294,0.0,0.0,0.0,0.0,0.0,0.0,0.0,0.0,1.2213,1.399,1.5676,1.6202,1.6672,1.7303,1.8373,1.8992,1.8832,1.8969,1.9383,2.0168,2.0621,2.1437,2.2964,2.3375,2.3713,2.4117,2.4679,2.5021,2.5062,2.5375,2.5328,2.4703,2.4945,2.5233,2.5125,2.5445,2.5456,2.5315,2.5315,2.5534,2.6112,2.5926,2.5665,2.5208,2.5482,2.5662,2.5443,2.556,2.561,2.5341,2.4751,2.479,2.5929,2.6073,2.5665,2.4726,2.4454,2.432,1.3363,1.3458,1.3579,1.3657,1.3736,1.4095,1.4013,1.3618,1.361,1.3521,1.3434,1.3703,1.3735,1.3545,1.3577,1.361,1.361,1.361,1.361,1.361,1.3537,1.3362,1.31,1.3036,1.2861,1.2606,1.2606,1.2606,1.2606,1.2606,1.2558,1.2495,1.2487,1.2463,1.2391,0.0,0.0,0.0,1.0958,1.0848,1.0632,1.0792,1.0669,1.0245,1.0593,0.0,1.041,1.0544,1.0727,1.0881,1.09,0.0,0.0,0.0,0.0,0.0,0.0,0.0,0.0,0.0,0.0,0.0,1.2454,1.274,1.2505,1.3556,1.5031,1.6867,1.7646,1.8104,1.8269,1.9282,1.98,1.942,2.0028,2.0546,2.0627,2.1281,2.2031,2.2622,2.3717,2.4445,2.4469,2.4944,2.5219,2.5219,2.5432,2.5472,2.5309,2.5514,2.5683,2.5667,2.5587,2.5469,2.5652,2.5981,2.6099,2.5978,2.5874,2.5678,2.5406,2.5587,2.5952,2.6086,2.5952,2.5806,2.5717,2.5573,2.5587,2.589,2.6576,2.684,2.573,2.5482,2.5482,1.3492,1.351,1.3608,1.3717,0.0,1.4018,1.406,1.4005,1.4066,1.4218,1.444,1.4542,1.4534,1.4433,1.4412,1.4388,1.4396,1.4388,1.4396,1.4372,1.4005,1.3759,1.3592,1.3418,1.3259,1.3076,1.2941,1.2837,1.2829,1.2686,1.2606,1.2606,1.2606,1.2606,1.2606,1.2606,1.224,1.1511,1.1177,1.0907,1.0759,1.0769,1.0607,1.0226,1.0641,0.0,0.0,0.0,0.0,0.0,0.0,0.0,0.0,0.0,0.0,1.1845,1.16,1.1353,1.1193,1.2036,1.2779,1.327,1.4187,1.4602,1.4255,1.4035,1.4809,1.6955,1.7995,1.8572,1.8672,1.944,1.994,1.9879,2.0308,2.06,2.0689,2.1182,2.1843,2.2604,2.33,2.3818,2.3981,2.4522,2.4917,2.5164,2.5608,2.6003,2.6203,2.6239,2.6321,2.6592,2.6501,2.6422,2.6602,2.6788,2.688,2.6697,2.6628,2.6553,2.637,2.6501,2.6707,2.6893,2.6775,2.6628,2.6628,2.6628,2.6644,2.6667,2.7085,2.7333,2.6694,2.6184,2.578,1.3601,1.3587,1.3638,1.3759,1.3933,1.3951,1.4182,1.4569,0.0,0.0,0.0,1.5247,1.5255,1.5184,1.5125,1.5144,1.52,1.52,1.52,1.5176,1.4577,1.4218,1.4083,1.3815,1.3657,1.3593,1.3323,1.3164,1.31,1.2814,1.2646,1.2598,1.2606,1.2606,1.2606,1.2606,1.2432,1.2092,1.1481,1.1114,1.0995,1.084,1.0612,1.0334,1.0726,1.1028,1.1202,1.151,1.1879,1.2255,1.1592,1.1448,1.1933,1.2256,1.2372,1.2349,1.2775,1.2913,1.2606,1.3488,1.4275,1.4746,1.5485,1.5803,1.5535,1.4429,1.4654,1.6816,1.7982,1.8735,1.8981,1.9543,1.9989,2.0208,2.0338,2.0503,2.0738,2.0997,2.1631,2.2549,2.2967,2.314,2.3545,2.4115,2.457,2.4956,2.5671,2.6496,2.6884,2.6878,2.6961,2.7311,2.7307,2.7425,2.7477,2.7438,2.7503,2.7411,2.7438,2.7503,2.7503,2.7503,2.7503,2.7425,2.749,2.7464,2.7477,2.7411,2.7503,2.7503,2.7503,2.7503,2.7425,2.6759,2.6187,1.397,1.3957,1.4254,1.4372,1.443,1.4538,1.4827,1.5245,1.517,1.4956,1.4706,1.5051,1.5012,1.47,1.4692,1.4887,1.5192,1.52,1.52,1.52,1.5104,1.4704,1.4117,1.4044,1.3878,1.3609,1.3553,1.3386,1.3132,1.3036,1.2877,1.263,1.2606,1.2606,1.2606,1.2606,1.2582,1.2511,1.2083,1.159,1.101,1.0982,1.0631,1.0031,1.0479,1.0789,1.0879,1.1365,1.1824,1.2275,1.2388,1.2491,1.2563,1.2725,1.2814,1.2836,1.3568,1.3972,1.393,1.4912,1.5702,1.6151,1.6323,1.6186,1.5635,1.5511,1.5996,1.7305,1.8203,1.9003,1.9741,2.0258,2.0467,2.0369,2.0593,2.0944,2.1221,2.1411,2.1792,2.2524,2.3297,2.3752,2.3962,2.4342,2.4531,2.4732,2.5316,2.6173,2.6748,2.722,2.7411,2.7477,2.7503,2.7503,2.7503,2.7503,2.7503,2.7503,2.7503,2.7473,2.7503,2.7486,2.7486,2.7503,2.7503,2.7503,2.7503,2.7503,2.7503,2.7503,2.7503,2.7503,2.7503,2.7281,2.7177,1.403,1.4146,1.413,1.4125,1.4145,1.4301,1.4489,1.4711,1.4943,1.51,1.5194,1.5189,1.5112,1.4917,1.4935,1.503,1.5216,1.5391,1.5375,1.5208,1.52,1.4921,1.4375,1.4187,1.4125,1.4107,1.3759,1.3608,1.3599,1.3299,1.302,1.2869,1.2694,1.2606,1.2606,1.2606,1.2606,1.2582,1.2187,1.1846,1.1559,1.1185,1.0844,1.0489,1.0839,1.1165,1.1448,1.201,1.2531,1.2977,1.3111,1.3183,1.3205,1.3541,1.3769,1.3777,1.4382,1.4802,1.495,1.5714,1.6402,1.6896,1.718,1.7087,1.6568,1.6576,1.6967,1.7826,1.8827,1.9505,1.967,1.99,2.0191,2.0604,2.0812,2.1069,2.1428,2.1545,2.1819,2.2369,2.279,2.317,2.3494,2.367,2.3772,2.3813,2.4594,2.5458,2.6013,2.641,2.6837,2.7285,2.744,2.7503,2.7503,2.7503,2.7503,2.7503,2.7436,2.7436,2.7469,2.7436,2.7386,2.7469,2.7503,2.7503,2.7503,2.7503,2.7503,2.7503,2.7503,2.7503,2.7503,2.7503,2.7503,1.3588,1.3849,1.3641,1.3554,1.3574,1.3714,1.3813,1.3901,1.4202,1.4672,1.5133,1.5151,1.5101,1.5033,1.5043,1.5141,1.5316,1.5581,1.5558,1.5335,1.5319,1.507,1.4613,1.4329,1.4344,1.4526,1.406,1.3886,1.3918,1.3474,1.3132,1.2981,1.2726,1.2606,1.2606,1.2606,1.2606,1.259,1.2297,1.2084,1.1974,1.1481,1.1172,1.1139,1.1399,1.1785,1.2286,1.2845,1.3402,1.3882,1.3919,1.3907,1.3952,1.4351,1.4606,1.4658,1.5086,1.5521,1.588,1.635,1.6841,1.7412,1.7781,1.7923,1.7751,1.7667,1.789,1.8606,1.9507,1.9933,1.9675,1.9594,1.9916,2.0785,2.0905,2.1169,2.1636,2.1756,2.1942,2.236,2.2448,2.2637,2.2903,2.302,2.3113,2.3409,2.4027,2.4713,2.5105,2.5476,2.606,2.6879,2.7346,2.7486,2.7503,2.7503,2.7503,2.7503,2.7373,2.7386,2.7436,2.7319,2.7264,2.7403,2.7486,2.7503,2.7503,2.7503,2.7503,2.7503,2.7503,2.7503,2.7503,2.7503,2.7503,1.2356,1.2658,1.2762,1.282,1.2816,1.2843,1.2943,1.3065,1.2856,1.3091,1.3797,1.4621,1.4788,1.4509,1.463,1.5028,1.5605,1.5677,1.5669,1.5648,1.5645,1.5284,1.4645,1.4557,1.4573,1.4579,1.4494,1.4155,1.372,1.3561,1.3235,1.271,1.2606,1.2606,1.2606,1.2606,1.2606,1.2606,1.2558,1.2368,1.2006,1.1941,1.1751,1.1469,1.2014,1.2574,1.3134,1.3699,1.4251,1.4798,1.4855,1.4852,1.4863,1.4912,1.4956,1.4971,1.5509,1.6143,1.6764,1.6925,1.7247,1.7853,1.801,1.832,1.8881,1.8724,1.896,1.9682,2.002,2.0058,2.0047,2.0042,2.0298,2.0861,2.0982,2.1244,2.2051,2.223,2.2404,2.2873,2.2881,2.2947,2.3009,2.302,2.3205,2.3574,2.3886,2.4256,2.4587,2.4945,2.5451,2.6477,2.7125,2.7456,2.754,2.7486,2.7514,2.7522,2.7369,2.7285,2.7222,2.715,2.7184,2.7019,2.7403,2.7473,2.7503,2.7503,2.7503,2.7469,2.7486,2.7503,2.7503,2.7503,2.7503,1.0909,1.1117,1.1925,1.2281,1.2287,1.2281,1.2324,1.2398,1.2276,1.2502,1.2995,1.3579,1.3981,1.4296,1.462,1.5006,1.5396,1.5605,1.5601,1.5414,1.5406,1.5118,1.4629,1.4383,1.4391,1.4565,1.4399,1.4163,1.3853,1.3497,1.306,1.2662,1.2606,1.2606,1.2606,1.2606,1.2606,1.2606,1.2606,1.2519,1.2352,1.2235,1.2146,1.2137,1.249,1.2963,1.3503,1.4007,1.4496,1.4958,1.501,1.501,1.501,1.5256,1.5401,1.5469,1.5966,1.6469,1.6856,1.7238,1.7622,1.7984,1.8519,1.896,1.9188,1.9397,1.972,2.002,2.0102,2.0102,2.0151,2.0374,2.0762,2.1238,2.1555,2.1985,2.263,2.2717,2.2815,2.2979,2.302,2.302,2.302,2.302,2.3113,2.3335,2.3457,2.3634,2.374,2.4186,2.4849,2.5533,2.6245,2.7131,2.7785,2.7889,2.7734,2.7567,2.7088,2.6662,2.6427,2.6,2.5849,2.638,2.7057,2.7456,2.7503,2.7419,2.7386,2.7369,2.7369,2.7386,2.7373,2.7453,2.7486,1.0016,1.0142,1.1047,1.1451,1.1456,1.1435,1.1456,1.1456,1.1456,1.1736,1.2251,1.2633,1.3318,1.4185,1.4705,1.51,1.5467,1.5637,1.5566,1.5343,1.5255,1.4972,1.4605,1.4369,1.4351,1.4534,1.4359,1.4147,1.3901,1.3275,1.2829,1.2622,1.2606,1.2606,1.2606,1.2606,1.2606,1.2606,1.2606,1.2606,1.2589,1.2516,1.2586,1.2775,1.3161,1.3607,1.4143,1.4564,1.5002,1.5356,1.5393,1.5393,1.538,1.5715,1.5929,1.6063,1.6467,1.6847,1.7165,1.7627,1.8047,1.8395,1.9043,1.9414,1.9517,1.9861,2.008,2.014,2.0336,2.0527,2.0385,2.0773,2.1282,2.1752,2.2109,2.2481,2.2914,2.302,2.3009,2.302,2.302,2.302,2.302,2.302,2.3063,2.3235,2.3238,2.3296,2.3443,2.4047,2.4636,2.5131,2.5858,2.6664,2.7797,2.7718,2.7546,2.7208,2.6533,2.5959,2.5584,2.5016,2.5022,2.6092,2.6888,2.739,2.7469,2.7403,2.7184,2.715,2.71,2.7117,2.7188,2.7352,2.7469,1.0016,1.0011,1.0077,1.0185,1.0103,1.0142,1.0125,1.0229,1.0164,1.0609,1.1412,1.201,1.2968,1.4207,1.4724,1.5375,1.6019,1.5828,1.5685,1.5605,1.5319,1.4982,1.4603,1.4571,1.4563,1.4587,1.454,1.4234,1.3641,1.2996,1.2622,1.2606,1.2638,1.2622,1.2638,1.2622,1.2606,1.2606,1.2606,1.2606,1.2636,1.2842,1.3075,1.3421,1.4049,1.4629,1.524,1.5621,1.5961,1.6315,1.6278,1.6284,1.6305,1.635,1.6529,1.6866,1.6965,1.7316,1.7953,1.8157,1.8497,1.9155,1.9359,1.9584,1.9933,2.0063,2.0129,2.0123,2.0931,2.1271,2.1025,2.1315,2.1734,2.216,2.2284,2.2546,2.2947,2.302,2.302,2.302,2.302,2.302,2.302,2.302,2.3212,2.3506,2.3659,2.3812,2.42,2.4521,2.5007,2.5676,2.6151,2.6487,2.6754,2.7036,2.6752,2.6468,2.6305,2.561,2.5158,2.4898,2.5282,2.5844,2.6769,2.7319,2.7419,2.7302,2.7002,2.6816,2.6616,2.6616,2.6952,2.7302,2.7453,0.9731,1.0016,1.0016,1.0016,1.0016,1.0016,1.0016,1.0016,1.0016,1.0402,1.1134,1.1746,1.2806,1.4165,1.4859,1.5536,1.6146,1.586,1.5693,1.5629,1.5083,1.475,1.4621,1.4587,1.4587,1.4587,1.4579,1.4258,1.3649,1.3339,1.3124,1.2941,1.2925,1.2933,1.2901,1.2717,1.2606,1.2606,1.2606,1.2606,1.2621,1.2858,1.3155,1.3502,1.4133,1.4848,1.5561,1.5788,1.6048,1.6374,1.6388,1.6388,1.6409,1.6653,1.6841,1.7017,1.7296,1.7666,1.8139,1.8503,1.8852,1.9345,1.9682,1.9911,2.0058,2.0129,2.0227,2.0653,2.1194,2.1577,2.1828,2.1964,2.2109,2.2284,2.2586,2.2805,2.2947,2.302,2.302,2.302,2.302,2.302,2.3088,2.3263,2.3506,2.3692,2.3987,2.429,2.4495,2.4785,2.518,2.5457,2.5824,2.6103,2.6181,2.6659,2.6774,2.654,2.6225,2.5676,2.5182,2.4466,2.4578,2.5517,2.6524,2.6943,2.6926,2.65,2.6294,2.6186,2.5983,2.6324,2.6731,2.7154,2.7403,0.9686,0.9992,1.0016,1.0016,1.0016,1.0016,1.0016,1.0016,1.0016,1.0337,1.0913,1.1473,1.2467,1.3749,1.4688,1.5458,1.5984,1.589,1.5812,1.5653,1.5078,1.4716,1.4603,1.4587,1.4587,1.4555,1.4478,1.4187,1.3808,1.3649,1.3498,1.3259,1.3179,1.3084,1.3044,1.2789,1.2606,1.2606,1.2606,1.2606,1.2621,1.2812,1.3103,1.3465,1.4022,1.4745,1.5561,1.5788,1.6048,1.6366,1.6508,1.6663,1.6814,1.7068,1.7306,1.7451,1.7755,1.815,1.8611,1.8956,1.9281,1.9595,1.9895,2.0162,2.0309,2.0205,2.0467,2.103,2.1708,2.2182,2.2262,2.2415,2.2531,2.2546,2.2808,2.302,2.302,2.302,2.302,2.302,2.302,2.3078,2.3285,2.3547,2.3834,2.4096,2.4508,2.4747,2.4956,2.5206,2.5424,2.5446,2.5728,2.5902,2.5982,2.6298,2.6291,2.6069,2.6026,2.5568,2.5172,2.4405,2.4344,2.527,2.5859,2.6239,2.6176,2.5728,2.5553,2.5454,2.5616,2.5913,2.6479,2.7104,2.7413,0.9985,1.0016,1.0016,1.0016,1.0016,1.0016,1.0016,1.0016,1.0016,1.0229,1.0652,1.1117,1.1965,1.3075,1.4232,1.5087,1.569,1.604,1.6031,1.5733,1.5343,1.4964,1.4678,1.4613,1.4587,1.4571,1.429,1.414,1.4036,1.3823,1.3681,1.3561,1.3314,1.3227,1.3124,1.2893,1.2662,1.2686,1.271,1.2685,1.2637,1.2817,1.3025,1.3319,1.38,1.4501,1.5357,1.572,1.6062,1.6428,1.6769,1.7198,1.7523,1.7678,1.789,1.8206,1.8377,1.8777,1.9412,1.9514,1.9672,1.9971,2.0102,2.0391,2.0648,2.0473,2.0636,2.1516,2.2324,2.2794,2.2481,2.2706,2.2936,2.299,2.3009,2.302,2.302,2.302,2.302,2.3001,2.3045,2.3315,2.3741,2.3971,2.4213,2.4823,2.514,2.5315,2.559,2.5763,2.5852,2.5852,2.5884,2.5884,2.5895,2.5904,2.565,2.545,2.5495,2.5354,2.5251,2.4741,2.4854,2.5555,2.5749,2.6093,2.5805,2.5395,2.5239,2.5191,2.5368,2.5837,2.6606,2.7282,2.7618,1.0016,1.0016,1.0016,1.0016,1.0016,1.0016,1.0016,1.0016,1.0016,1.0147,1.0441,1.0874,1.1644,1.2699,1.3922,1.4866,1.5532,1.6167,1.6361,1.5999,1.5486,1.5152,1.4982,1.4742,1.4587,1.4589,1.4494,1.4329,1.4163,1.4201,1.4187,1.3966,1.3822,1.3791,1.3726,1.3449,1.3291,1.3299,1.3283,1.3299,1.3291,1.334,1.33,1.325,1.3963,1.4659,1.5171,1.5561,1.6084,1.6775,1.6919,1.7223,1.7657,1.8004,1.8237,1.8408,1.8725,1.9053,1.9491,1.9615,1.9747,2.0074,2.0445,2.0692,2.0905,2.1035,2.1385,2.204,2.2652,2.2914,2.2848,2.2903,2.3001,2.302,2.302,2.3001,2.3045,2.3042,2.302,2.3045,2.3266,2.3703,2.4235,2.4465,2.4801,2.5151,2.5468,2.5763,2.5852,2.5895,2.5895,2.5895,2.5895,2.5895,2.5895,2.5895,2.5785,2.5621,2.5577,2.5523,2.5371,2.5314,2.546,2.5456,2.5685,2.5619,2.535,2.5159,2.5004,2.5328,2.5779,2.6358,2.7052,2.7523,2.7882,1.0016,1.0016,1.0016,1.0016,1.0016,1.0016,1.0016,1.0016,1.0016,1.0055,1.0229,1.0489,1.1133,1.2122,1.3387,1.4405,1.5207,1.6209,1.6599,1.6329,1.584,1.547,1.5181,1.4798,1.4587,1.4587,1.4579,1.4486,1.4321,1.447,1.4486,1.4296,1.4163,1.4083,1.4077,1.3767,1.361,1.361,1.3602,1.361,1.3618,1.3684,1.3654,1.3648,1.4367,1.5021,1.5489,1.5944,1.6502,1.7143,1.7383,1.7693,1.8169,1.8512,1.8662,1.8725,1.8928,1.9231,1.9555,1.9599,1.986,2.0324,2.0702,2.1074,2.1336,2.1708,2.1985,2.2521,2.2837,2.302,2.3009,2.302,2.302,2.302,2.302,2.3078,2.319,2.3255,2.3165,2.3201,2.3561,2.4246,2.488,2.502,2.5293,2.5446,2.5699,2.5895,2.5895,2.5895,2.5895,2.5895,2.5895,2.5895,2.5895,2.5895,2.5895,2.5884,2.5851,2.5807,2.571,2.5677,2.5731,2.5378,2.5386,2.5147,2.4864,2.4912,2.4892,2.5488,2.6024,2.6359,2.6838,2.7745,2.8199,1.0016,1.0016,1.0016,1.0016,1.0016,1.0016,1.0016,1.0016,1.0016,1.0016,1.0038,1.0103,1.0554,1.1488,1.2829,1.3915,1.481,1.6105,1.6689,1.657,1.6289,1.5872,1.5205,1.4853,1.4676,1.4605,1.4587,1.4571,1.455,1.4563,1.4587,1.4516,1.4288,1.4139,1.4123,1.3832,1.3736,1.3768,1.3728,1.3728,1.3745,1.3921,1.4098,1.428,1.4975,1.5671,1.6262,1.6868,1.7345,1.7719,1.805,1.8449,1.8942,1.9098,1.9056,1.9046,1.9088,1.9274,1.9506,1.9684,2.0027,2.0724,2.1025,2.1332,2.2029,2.2189,2.2397,2.2859,2.2998,2.302,2.302,2.302,2.3031,2.3056,2.3121,2.3296,2.3626,2.3714,2.3615,2.3449,2.3962,2.4856,2.5622,2.5479,2.5534,2.573,2.5863,2.5895,2.5895,2.5895,2.5895,2.5895,2.5895,2.5895,2.5895,2.5895,2.5895,2.5895,2.5895,2.5895,2.5895,2.5884,2.5874,2.5505,2.5224,2.4858,2.4761,2.4983,2.5125,2.5497,2.5872,2.6086,2.6828,2.7859,2.8634,1.0016,1.0016,1.0016,1.0016,1.0016,1.0016,1.0016,1.0016,1.0011,0.9975,1.0011,1.0016,1.0479,1.1386,1.2696,1.381,1.4831,1.6092,1.6689,1.6702,1.6638,1.6047,1.534,1.5112,1.4887,1.4645,1.4587,1.4587,1.4587,1.4587,1.4587,1.4587,1.451,1.4472,1.4456,1.4353,1.4336,1.4353,1.4337,1.4321,1.4366,1.4664,1.487,1.5002,1.5888,1.663,1.72,1.8059,1.8397,1.8262,1.8636,1.8922,1.9088,1.9098,1.9098,1.9098,1.9115,1.9258,1.958,1.9907,2.0348,2.0887,2.1511,2.2029,2.2251,2.2597,2.2805,2.302,2.302,2.302,2.302,2.3023,2.3165,2.3463,2.3528,2.3626,2.379,2.4052,2.4224,2.4192,2.467,2.526,2.5655,2.5797,2.5732,2.5852,2.5895,2.5895,2.5895,2.5895,2.5895,2.5895,2.5895,2.5895,2.5895,2.5895,2.5895,2.5895,2.5895,2.5895,2.5895,2.5895,2.5874,2.5729,2.5617,2.5345,2.5467,2.5641,2.5708,2.563,2.6031,2.6454,2.7396,2.8363,2.906,1.0016,1.0016,1.0016,1.0016,1.0016,1.0016,1.0016,0.9975,0.9878,0.9819,0.9823,0.9845,1.0333,1.1272,1.2563,1.3747,1.4776,1.601,1.6587,1.6689,1.6681,1.6202,1.5566,1.5295,1.4998,1.4637,1.4587,1.4587,1.4587,1.4587,1.4587,1.4587,1.4587,1.4587,1.4589,1.4587,1.4587,1.4571,1.4587,1.4587,1.4623,1.5088,1.5449,1.5756,1.6616,1.7377,1.8029,1.8742,1.8963,1.8808,1.8953,1.9098,1.9098,1.9098,1.9098,1.9098,1.9098,1.9304,1.9813,2.0173,2.067,2.1353,2.2055,2.2339,2.2568,2.287,2.302,2.302,2.302,2.302,2.3034,2.3146,2.3397,2.3681,2.4063,2.4281,2.4323,2.4618,2.4889,2.5086,2.5337,2.5577,2.5884,2.5895,2.5895,2.5895,2.5895,2.5895,2.5895,2.5895,2.5895,2.5895,2.5895,2.5895,2.5895,2.5895,2.5895,2.5895,2.5895,2.5895,2.5895,2.5895,2.5884,2.5874,2.5895,2.5895,2.5895,2.5895,2.5871,2.5938,2.6373,2.6787,2.7519,2.8339,2.9094,1.0016,1.0016,1.0016,1.0016,1.0016,1.0016,1.0016,0.9956,0.9731,0.9644,0.9679,0.9625,1.0183,1.1094,1.246,1.362,1.4713,1.5899,1.6435,1.6648,1.6642,1.6305,1.5685,1.5422,1.5054,1.4668,1.4587,1.4587,1.4587,1.4587,1.4587,1.4587,1.4587,1.4587,1.4587,1.4587,1.4587,1.4587,1.4587,1.4587,1.4705,1.5213,1.5763,1.6366,1.7246,1.7995,1.8606,1.9025,1.9077,1.9088,1.9098,1.9098,1.9098,1.9098,1.9098,1.9139,1.9218,1.955,2.0158,2.0435,2.0985,2.1983,2.2284,2.2542,2.2859,2.2998,2.302,2.302,2.302,2.3045,2.3187,2.3463,2.3757,2.403,2.4725,2.5107,2.526,2.5271,2.5446,2.5808,2.5874,2.5895,2.5895,2.5895,2.5895,2.5895,2.5895,2.5895,2.5895,2.5895,2.5895,2.5895,2.5895,2.5895,2.5895,2.5895,2.5895,2.5895,2.5895,2.5895,2.5895,2.5895,2.5895,2.5895,2.5895,2.5895,2.5895,2.5895,2.5895,2.5937,2.6146,2.653,2.7042,2.7911,2.872,1.0016,1.0016,1.0016,1.0016,1.0016,1.0016,1.0016,0.9975,0.9712,0.9703,0.9835,0.9693,1.0218,1.1278,1.2447,1.355,1.458,1.5767,1.6497,1.6669,1.6689,1.6305,1.5812,1.5581,1.5221,1.4748,1.4587,1.4587,1.4587,1.4587,1.4587,1.4587,1.4587,1.4587,1.4587,1.4587,1.4587,1.4587,1.4605,1.4615,1.4776,1.5382,1.6097,1.6828,1.8012,1.8721,1.8948,1.9081,1.9098,1.9098,1.9098,1.9098,1.9098,1.9098,1.9098,1.9181,1.9478,1.9832,2.0327,2.0952,2.1618,2.2241,2.2641,2.2892,2.2976,2.302,2.302,2.302,2.302,2.3154,2.3463,2.3626,2.4074,2.4639,2.5042,2.5381,2.5633,2.5752,2.5775,2.5852,2.5895,2.5895,2.5895,2.5895,2.5895,2.5895,2.5895,2.5895,2.5895,2.5895,2.5895,2.5895,2.5895,2.5895,2.5895,2.5895,2.5895,2.5895,2.5895,2.5895,2.5895,2.5895,2.5895,2.5895,2.5895,2.5895,2.5895,2.5895,2.5895,2.5895,2.5937,2.6343,2.6857,2.7641,2.8251,1.0016,1.0016,1.0016,1.0016,1.0016,1.0016,1.0016,0.9952,0.9712,0.9684,0.9771,0.9665,1.0198,1.124,1.2344,1.3402,1.451,1.576,1.6362,1.6401,1.6522,1.6321,1.582,1.5629,1.5305,1.4692,1.4587,1.4587,1.4587,1.4587,1.4587,1.4587,1.4587,1.4587,1.4587,1.4587,1.4587,1.4623,1.4713,1.4784,1.4991,1.563,1.6586,1.7474,1.8546,1.9098,1.9098,1.9098,1.9098,1.9098,1.9098,1.9098,1.9098,1.9098,1.9098,1.9181,1.9533,2.008,2.0638,2.1282,2.1939,2.2582,2.2862,2.2947,2.302,2.302,2.302,2.302,2.3045,2.3179,2.367,2.4257,2.4694,2.5022,2.5403,2.5643,2.5851,2.5895,2.5895,2.5895,2.5895,2.5895,2.5895,2.5895,2.5895,2.5895,2.5895,2.5895,2.5895,2.5895,2.5895,2.5895,2.5895,2.5895,2.5895,2.5895,2.5895,2.5895,2.5895,2.5895,2.5895,2.5895,2.5895,2.5895,2.5895,2.5895,2.5895,2.5895,2.5895,2.5895,2.6,2.626,2.6622,2.7246,2.7762,0.9975,0.993,1.0002,1.0016,1.0016,1.0016,1.0016,0.9966,0.9712,0.966,0.9686,0.9689,1.029,1.1169,1.2336,1.3459,1.4727,1.5643,1.6236,1.6278,1.6443,1.621,1.5788,1.5558,1.5253,1.4653,1.4587,1.4587,1.4587,1.4587,1.4587,1.4587,1.4587,1.4587,1.4587,1.4587,1.4587,1.4623,1.4838,1.5088,1.5356,1.6017,1.6994,1.81,1.8758,1.9081,1.9098,1.9098,1.9098,1.9098,1.9098,1.9098,1.9098,1.9098,1.9098,1.9129,1.961,2.0237,2.0868,2.1513,2.2175,2.2953,2.302,2.302,2.302,2.302,2.302,2.3045,2.3103,2.3427,2.3888,2.4552,2.5086,2.537,2.5688,2.5863,2.5895,2.5895,2.5895,2.5895,2.5895,2.5895,2.5895,2.5895,2.5895,2.5895,2.5895,2.5895,2.5895,2.5895,2.5895,2.5895,2.5895,2.5895,2.5895,2.5939,2.5939,2.5994,2.5972,2.5961,2.595,2.5895,2.5895,2.5895,2.5895,2.5895,2.5895,2.5895,2.5895,2.5895,2.5979,2.6125,2.6447,2.6848,2.7307,0.9873,0.9689,0.9902,1.0016,1.0016,1.0016,1.0016,0.9961,0.9722,0.9752,0.9926,1.0128,1.0598,1.1481,1.2708,1.4189,1.5413,1.607,1.627,1.633,1.638,1.6063,1.5693,1.5422,1.5054,1.4716,1.4587,1.4587,1.4587,1.4587,1.4587,1.4587,1.4587,1.4587,1.4587,1.4587,1.4587,1.4659,1.4955,1.5303,1.578,1.6525,1.7365,1.8414,1.8891,1.9065,1.9098,1.9098,1.9098,1.9098,1.9098,1.9098,1.9098,1.9098,1.9098,1.9264,1.9837,2.0473,2.0981,2.1804,2.2427,2.2879,2.302,2.302,2.302,2.3042,2.3067,2.323,2.3495,2.3954,2.4867,2.514,2.5381,2.5665,2.5829,2.5895,2.5895,2.5895,2.5895,2.5895,2.5895,2.5895,2.5895,2.5895,2.5895,2.5895,2.5895,2.5895,2.5895,2.5895,2.5895,2.5895,2.5895,2.5895,2.5895,2.5961,2.6005,2.6136,2.6147,2.6114,2.607,2.5939,2.5906,2.607,2.6005,2.5895,2.5895,2.5906,2.5895,2.5895,2.5937,2.5979,2.6239,2.6571,2.693,0.9639,0.9646,0.9887,1.0016,1.0016,1.0016,1.0016,0.998,0.9873,0.9883,1.0137,1.0578,1.1278,1.2157,1.3224,1.4525,1.5479,1.6129,1.6166,1.611,1.6115,1.5923,1.5502,1.5263,1.4975,1.4692,1.4587,1.4587,1.4587,1.4587,1.4587,1.4587,1.4587,1.4587,1.4587,1.4587,1.4587,1.4695,1.5088,1.5594,1.6158,1.7088,1.8066,1.8539,1.8915,1.9081,1.9098,1.9098,1.9098,1.9098,1.9098,1.9098,1.9098,1.9098,1.9108,1.9285,1.9924,2.0581,2.1055,2.1857,2.2547,2.2934,2.302,2.302,2.302,2.3034,2.322,2.3744,2.417,2.4639,2.5118,2.5382,2.5655,2.584,2.5895,2.5895,2.5895,2.5895,2.5895,2.5895,2.5895,2.5895,2.5895,2.5895,2.5895,2.5895,2.5895,2.5895,2.5895,2.5874,2.5853,2.5874,2.5874,2.5895,2.6081,2.6409,2.6431,2.6485,2.6431,2.642,2.6431,2.642,2.6409,2.6464,2.631,2.6061,2.5917,2.5928,2.5917,2.5928,2.6004,2.6068,2.6086,2.6271,2.6745,0.9378,0.958,0.9804,0.9961,0.999,1.0016,1.0016,1.0016,1.0011,1.0007,1.0142,1.1041,1.2104,1.3188,1.4028,1.4808,1.5529,1.6131,1.6001,1.5823,1.5822,1.5669,1.5343,1.507,1.4903,1.4645,1.4587,1.4587,1.4587,1.4587,1.4587,1.4587,1.4587,1.4587,1.4587,1.4587,1.4587,1.4784,1.5248,1.5859,1.6785,1.7876,1.8691,1.8858,1.9015,1.9098,1.9098,1.9098,1.9098,1.9098,1.9098,1.9098,1.9098,1.9098,1.9191,1.9444,2.003,2.0522,2.1104,2.186,2.2572,2.2945,2.3001,2.302,2.302,2.3129,2.346,2.4528,2.4847,2.5162,2.5392,2.5666,2.5852,2.5895,2.5895,2.5895,2.5895,2.5895,2.5895,2.5895,2.5895,2.5895,2.5895,2.5895,2.5895,2.5895,2.5895,2.5812,2.5791,2.5791,2.577,2.5812,2.5833,2.5895,2.6288,2.7064,2.7108,2.7173,2.7075,2.6977,2.6998,2.7042,2.6998,2.6878,2.6585,2.6346,2.617,2.6026,2.6059,2.6114,2.6136,2.6298,2.6527,2.6613,2.688,0.9213,0.9359,0.9576,0.9781,0.9975,1.0011,1.0016,1.0016,1.0016,1.0016,1.0081,1.1408,1.3054,1.4559,1.5039,1.5619,1.6006,1.6,1.5956,1.5842,1.5575,1.534,1.5152,1.4813,1.4742,1.4587,1.4587,1.4587,1.4587,1.4587,1.4587,1.4587,1.4587,1.4587,1.4587,1.4623,1.4587,1.474,1.5391,1.6437,1.763,1.8539,1.8948,1.9048,1.9081,1.9098,1.9098,1.9098,1.9098,1.9098,1.9098,1.9098,1.9098,1.9098,1.9568,2.0006,2.0387,2.0591,2.1108,2.1881,2.2572,2.2889,2.302,2.302,2.314,2.3296,2.3908,2.5557,2.5329,2.5252,2.5622,2.583,2.5895,2.5895,2.5895,2.5895,2.5895,2.5895,2.5895,2.5895,2.5895,2.5895,2.5895,2.5895,2.5895,2.5895,2.5885,2.5813,2.5805,2.586,2.5893,2.599,2.604,2.6082,2.6419,2.7206,2.773,2.7807,2.7708,2.7566,2.7598,2.7619,2.7408,2.7233,2.6941,2.6888,2.6933,2.678,2.6441,2.654,2.6889,2.7053,2.7162,2.7206,2.7107,0.8967,0.9165,0.9465,0.9675,0.979,0.9921,1.0016,1.0016,1.0016,1.0016,1.0337,1.1725,1.3473,1.5073,1.5525,1.5695,1.5813,1.5795,1.5696,1.5654,1.5316,1.507,1.4861,1.4692,1.4587,1.4587,1.4587,1.4587,1.4587,1.4587,1.4587,1.4587,1.4587,1.4587,1.4623,1.4721,1.4838,1.5258,1.6097,1.7182,1.8073,1.8741,1.9098,1.9098,1.9098,1.9098,1.9098,1.9098,1.9098,1.9098,1.9098,1.9098,1.9253,1.9537,2.0069,2.0299,2.0672,2.0995,2.1423,2.2033,2.2531,2.2871,2.3034,2.3165,2.3501,2.3908,2.4443,2.5732,2.5634,2.5634,2.5808,2.5895,2.5895,2.5895,2.5895,2.5895,2.5895,2.5895,2.5895,2.5895,2.5917,2.595,2.5983,2.6005,2.5973,2.5876,2.5955,2.6022,2.6066,2.6205,2.6247,2.6279,2.6314,2.6344,2.6736,2.7315,2.8112,2.8319,2.8353,2.8232,2.8241,2.8184,2.7814,2.7557,2.734,2.7402,2.764,2.7392,2.6922,2.7293,2.7785,2.7741,2.7654,2.7381,2.7481,0.8793,0.8963,0.9368,0.9555,0.9625,0.9866,1.0016,1.0016,1.0016,1.0081,1.0727,1.2275,1.4012,1.5159,1.5685,1.5746,1.5631,1.5584,1.5419,1.5237,1.507,1.4877,1.4708,1.4587,1.4587,1.4587,1.4587,1.4587,1.4587,1.4587,1.4587,1.4587,1.4587,1.4587,1.4659,1.4882,1.5159,1.5824,1.688,1.7731,1.8354,1.8841,1.9048,1.9098,1.9098,1.9098,1.9098,1.9098,1.9098,1.9098,1.9098,1.9098,1.9202,1.982,2.0465,2.0754,2.1044,2.1319,2.1742,2.2238,2.2596,2.2885,2.3201,2.3495,2.4156,2.4683,2.5143,2.5819,2.5863,2.5852,2.5895,2.5895,2.5895,2.5895,2.5895,2.5895,2.5895,2.5895,2.5895,2.5895,2.595,2.6071,2.6104,2.6136,2.605,2.5899,2.5957,2.6173,2.6288,2.6443,2.6388,2.6354,2.6443,2.6561,2.6996,2.7518,2.8302,2.864,2.864,2.8619,2.8451,2.8231,2.7898,2.773,2.7577,2.7765,2.7934,2.766,2.7468,2.7905,2.8255,2.819,2.8048,2.7764,2.7922,0.8689,0.8755,0.9156,0.9439,0.9611,0.9883,1.0016,1.0016,1.0016,1.0337,1.1203,1.3203,1.488,1.5688,1.5731,1.5809,1.6039,1.5499,1.5245,1.5062,1.4853,1.4684,1.4587,1.4587,1.4587,1.4587,1.4587,1.4587,1.4587,1.4587,1.4587,1.4587,1.4587,1.4587,1.4758,1.508,1.5789,1.6533,1.7526,1.8063,1.8489,1.8858,1.9081,1.9098,1.9098,1.9098,1.9098,1.9098,1.9098,1.9098,1.9098,1.9212,1.9382,2.0232,2.0977,2.1385,2.1383,2.1691,2.2155,2.2344,2.2577,2.2971,2.343,2.3943,2.4541,2.4563,2.5033,2.5775,2.5884,2.5895,2.5895,2.5895,2.5895,2.5895,2.5895,2.5895,2.5895,2.5895,2.5895,2.5895,2.6026,2.6202,2.642,2.6464,2.6453,2.6313,2.6346,2.6546,2.6423,2.6485,2.6368,2.6344,2.6487,2.6736,2.7174,2.7693,2.8089,2.822,2.8243,2.8301,2.8303,2.8066,2.782,2.7718,2.7602,2.7921,2.8157,2.7961,2.7992,2.8474,2.8694,2.8541,2.8531,2.8412,2.8685,0.8703,0.8741,0.9132,0.9349,0.9437,0.9831,1.0016,1.0016,1.0016,1.0809,1.2089,1.3936,1.5085,1.549,1.5753,1.5587,1.5395,1.531,1.5067,1.4853,1.466,1.4587,1.4587,1.4587,1.4587,1.4587,1.4587,1.4587,1.4587,1.4587,1.4587,1.4587,1.4605,1.4587,1.4794,1.5444,1.6342,1.7151,1.7906,1.8431,1.8674,1.8925,1.9098,1.9098,1.9098,1.9098,1.9098,1.9098,1.9098,1.9098,1.9098,1.9295,1.9761,2.0812,2.1557,2.1989,2.1859,2.212,2.2403,2.2496,2.259,2.3074,2.3681,2.4314,2.4718,2.5011,2.5404,2.5808,2.5895,2.5895,2.5895,2.5895,2.5895,2.5895,2.5928,2.595,2.5994,2.6048,2.6103,2.619,2.631,2.6453,2.6671,2.6868,2.6813,2.6759,2.6818,2.6846,2.6749,2.6674,2.6645,2.667,2.6801,2.6858,2.7271,2.7562,2.7794,2.7831,2.7867,2.7948,2.8019,2.7878,2.7655,2.7594,2.7665,2.7927,2.8136,2.8222,2.8405,2.8693,2.8792,2.876,2.8828,2.8896,2.9071,0.8703,0.8746,0.9066,0.925,0.9354,0.9797,1.0038,1.0103,1.0164,1.1209,1.2972,1.4273,1.5106,1.544,1.5631,1.5697,1.5392,1.5241,1.5043,1.4871,1.4718,1.4621,1.4587,1.4587,1.4587,1.4587,1.4587,1.4587,1.4587,1.4587,1.4587,1.4605,1.4667,1.4659,1.4883,1.5851,1.6883,1.7758,1.8468,1.9022,1.9288,1.9297,1.9336,1.9295,1.9212,1.9098,1.9098,1.9098,1.9098,1.9098,1.9187,1.9474,2.0299,2.1207,2.2012,2.2272,2.2373,2.2515,2.2609,2.2684,2.2703,2.3073,2.3908,2.4364,2.4725,2.5348,2.5797,2.5863,2.5895,2.5895,2.5895,2.5895,2.5895,2.5906,2.619,2.6267,2.6332,2.6398,2.6452,2.6529,2.6671,2.6889,2.7293,2.7533,2.7455,2.7267,2.6971,2.7082,2.7198,2.7157,2.7115,2.7162,2.7262,2.7298,2.737,2.7476,2.7581,2.7547,2.7607,2.7678,2.7678,2.756,2.7607,2.7665,2.7783,2.7951,2.8087,2.8202,2.8465,2.8747,2.8803,2.8803,2.8803,2.885,2.8827,0.8703,0.8727,0.8925,0.9128,0.9326,0.9788,1.0094,1.0337,1.0636,1.1725,1.3366,1.4223,1.5089,1.576,1.582,1.5805,1.5811,1.5477,1.5216,1.507,1.4837,1.4668,1.4587,1.4587,1.4587,1.4587,1.4587,1.4587,1.4587,1.4587,1.4587,1.4745,1.4894,1.5012,1.4828,1.6149,1.7449,1.8562,1.9266,1.975,1.9868,1.9727,1.9689,1.9471,1.9264,1.9108,1.9233,1.9243,1.9274,1.9367,1.9345,1.9732,2.0516,2.1252,2.1964,2.2502,2.2467,2.2534,2.2673,2.2871,2.2945,2.3113,2.3908,2.4452,2.4683,2.5284,2.5895,2.5895,2.5895,2.5895,2.5895,2.5895,2.5895,2.5994,2.6267,2.6475,2.6529,2.6747,2.6824,2.69,2.7151,2.7457,2.7949,2.8243,2.8129,2.7846,2.7314,2.725,2.7466,2.7428,2.732,2.7344,2.7404,2.7381,2.7333,2.732,2.7367,2.7333,2.7381,2.7476,2.7476,2.7428,2.7499,2.7689,2.7854,2.7998,2.8092,2.8198,2.8501,2.878,2.8803,2.8803,2.8803,2.8803,2.8803,0.8703,0.8722,0.8911,0.9043,0.9161,0.9573,1.0012,1.0621,1.1564,1.2693,1.3802,1.4566,1.518,1.5717,1.6047,1.6065,1.5972,1.6047,1.5753,1.5216,1.5038,1.4821,1.471,1.4621,1.4587,1.4587,1.4587,1.4587,1.4587,1.4655,1.4613,1.4719,1.5516,1.5815,1.6094,1.6967,1.7981,1.8491,1.9195,1.9741,1.961,1.971,1.9668,1.9399,1.9202,1.9233,1.9482,1.9492,1.9616,1.9831,1.9875,2.0278,2.103,2.1754,2.2393,2.2718,2.2684,2.2815,2.2889,2.2964,2.3001,2.3296,2.3853,2.4473,2.4605,2.5382,2.5764,2.5895,2.5895,2.5895,2.5895,2.5895,2.5917,2.6005,2.6234,2.6475,2.666,2.702,2.7217,2.7282,2.7479,2.7938,2.8419,2.8529,2.8481,2.8341,2.7841,2.7537,2.7623,2.7452,2.732,2.732,2.7344,2.732,2.732,2.7333,2.7357,2.7381,2.7357,2.7357,2.7344,2.732,2.7523,2.7773,2.7891,2.8032,2.822,2.843,2.8594,2.8757,2.878,2.8803,2.8803,2.8803,2.8803,0.8703,0.8718,0.8835,0.8959,0.9042,0.9428,1.0141,1.1193,1.24,1.3442,1.4293,1.4873,1.5402,1.581,1.609,1.6352,1.6155,1.6138,1.6111,1.5526,1.5271,1.5062,1.4853,1.466,1.4587,1.4587,1.4587,1.4587,1.4621,1.4822,1.5104,1.56,1.6393,1.6777,1.714,1.771,1.8364,1.8814,1.9421,1.9786,1.9724,1.9703,1.9668,1.9419,1.9285,1.9295,1.9665,1.9882,2.0028,2.0386,2.0628,2.0906,2.1633,2.2158,2.2719,2.2795,2.2897,2.2983,2.3001,2.3001,2.302,2.3074,2.3971,2.4441,2.467,2.5371,2.5753,2.5895,2.5895,2.5895,2.5895,2.5895,2.5928,2.6016,2.6398,2.6649,2.6988,2.7326,2.7807,2.7872,2.796,2.8419,2.8671,2.8738,2.8725,2.8561,2.8386,2.8102,2.7773,2.7547,2.7404,2.7428,2.7428,2.7452,2.7428,2.7381,2.7394,2.7394,2.7404,2.7381,2.732,2.732,2.7584,2.7833,2.7951,2.8115,2.843,2.8664,2.8734,2.878,2.8803,2.8803,2.8803,2.8803,2.8803,0.8703,0.8703,0.8703,0.8802,0.9058,0.9474,1.0531,1.2056,1.3003,1.3914,1.4741,1.5041,1.5449,1.5946,1.607,1.625,1.639,1.6237,1.6111,1.5928,1.551,1.5279,1.5014,1.4832,1.4692,1.4611,1.4587,1.4605,1.4689,1.5257,1.5859,1.6704,1.7614,1.7885,1.8121,1.8437,1.8859,1.9095,1.9561,1.9896,1.9944,2.0027,1.9972,1.9782,1.9623,1.9713,1.9969,2.017,2.0428,2.0698,2.0923,2.1371,2.1775,2.202,2.2461,2.2793,2.2961,2.299,2.302,2.302,2.3099,2.323,2.3962,2.4364,2.4758,2.5317,2.5775,2.5895,2.5895,2.5895,2.5895,2.5895,2.5906,2.6256,2.6704,2.702,2.7337,2.7785,2.8365,2.8562,2.8596,2.8781,2.8771,2.8803,2.8803,2.8687,2.8524,2.8324,2.7985,2.7668,2.7584,2.7641,2.7631,2.7631,2.7607,2.7607,2.7607,2.7655,2.7536,2.7489,2.7428,2.7452,2.7749,2.7951,2.8021,2.8209,2.8571,2.8734,2.878,2.8803,2.8803,2.8803,2.8803,2.8803,2.8803,0.8703,0.8703,0.8703,0.8741,0.8908,0.9736,1.0935,1.2334,1.3424,1.4398,1.5208,1.5437,1.5503,1.5554,1.5829,1.6011,1.6023,1.5972,1.5853,1.5705,1.5605,1.5221,1.4996,1.4893,1.4805,1.4676,1.4587,1.4621,1.4881,1.5548,1.6955,1.8096,1.8647,1.891,1.9136,1.9354,1.9255,1.9291,1.9809,2.0013,2.0245,2.0369,2.0324,2.0207,2.0167,2.0337,2.0714,2.0947,2.1301,2.1736,2.2,2.2338,2.2407,2.2627,2.2906,2.2957,2.3001,2.302,2.302,2.302,2.3132,2.3485,2.4148,2.4397,2.4758,2.5262,2.5863,2.5895,2.5895,2.5895,2.5895,2.5895,2.5895,2.6147,2.6627,2.7075,2.7413,2.7916,2.8485,2.8771,2.8803,2.8803,2.8803,2.8803,2.878,2.871,2.8628,2.8441,2.8196,2.7904,2.7786,2.7844,2.7901,2.7925,2.7972,2.7972,2.7938,2.7914,2.7773,2.7678,2.7689,2.776,2.7996,2.8149,2.8279,2.8466,2.8734,2.8803,2.8803,2.8803,2.8803,2.8803,2.8803,2.8803,2.8858,0.8703,0.8703,0.8703,0.8703,0.8889,0.986,1.1005,1.2184,1.3392,1.4462,1.5346,1.5359,1.5394,1.5471,1.5561,1.5654,1.5838,1.5802,1.5796,1.5912,1.5621,1.538,1.5155,1.494,1.4774,1.4653,1.4619,1.4692,1.515,1.6395,1.7822,1.8834,1.946,1.9763,1.9917,1.9905,1.9822,1.9768,1.9864,2.0058,2.0335,2.0586,2.0552,2.0652,2.0704,2.1038,2.1483,2.1693,2.1993,2.244,2.2654,2.2729,2.2785,2.2934,2.299,2.302,2.302,2.302,2.3042,2.3241,2.343,2.379,2.4355,2.4725,2.502,2.5448,2.5753,2.5895,2.5895,2.5895,2.5895,2.5895,2.5895,2.5928,2.6463,2.6988,2.7468,2.7971,2.8365,2.8716,2.8803,2.8803,2.8803,2.8803,2.8803,2.8757,2.8734,2.8675,2.8407,2.8115,2.8068,2.8126,2.8184,2.8241,2.8277,2.8301,2.8207,2.8126,2.7974,2.7904,2.7925,2.7935,2.8019,2.8301,2.8617,2.8734,2.8803,2.8803,2.8803,2.8803,2.8803,2.8803,2.8803,2.8803,2.8891,0.8723,0.8761,0.8756,0.8837,0.8956,0.9944,1.0873,1.1752,1.3094,1.4268,1.5088,1.5028,1.5088,1.5206,1.5199,1.5323,1.5441,1.5488,1.5586,1.6079,1.5534,1.5255,1.5149,1.5014,1.4805,1.466,1.4681,1.4882,1.5712,1.6868,1.8162,1.9317,2.0,2.0329,2.0354,2.0303,2.0261,2.0364,2.024,2.0283,2.0472,2.0545,2.0596,2.0858,2.1011,2.1219,2.165,2.193,2.2074,2.2515,2.2759,2.2852,2.2927,2.2983,2.3001,2.302,2.302,2.302,2.3121,2.3343,2.3648,2.4063,2.4618,2.5053,2.5392,2.559,2.5841,2.5895,2.5895,2.5895,2.5895,2.5895,2.5895,2.6048,2.6452,2.6911,2.7381,2.7949,2.8551,2.8803,2.8803,2.8803,2.8803,2.8803,2.8803,2.8803,2.878,2.8768,2.864,2.835,2.8326,2.8384,2.8441,2.8488,2.8558,2.8524,2.8441,2.8337,2.8209,2.8209,2.829,2.8184,2.8019,2.8371,2.8734,2.8757,2.8803,2.8803,2.8803,2.8803,2.8803,2.8803,2.8803,2.8803,2.9,0.8875,0.9184,0.9316,0.9482,0.969,1.0368,1.1195,1.2094,1.2879,1.3807,1.4581,1.4722,1.4691,1.4717,1.4862,1.4984,1.5066,1.5078,1.5131,1.5364,1.5224,1.5086,1.5004,1.4982,1.4813,1.4668,1.4733,1.5174,1.6143,1.7266,1.8443,1.9712,2.034,2.0568,2.0839,2.0723,2.0661,2.0907,2.0855,2.0762,2.0899,2.1308,2.157,2.1704,2.1855,2.2017,2.2365,2.2583,2.2711,2.2916,2.2916,2.2964,2.302,2.302,2.302,2.302,2.302,2.3042,2.3209,2.3528,2.391,2.4344,2.4847,2.5315,2.5643,2.5797,2.5895,2.5895,2.5895,2.5895,2.5895,2.5895,2.5939,2.6168,2.6485,2.69,2.7326,2.8026,2.8738,2.8803,2.8803,2.8803,2.8803,2.8803,2.8803,2.8803,2.8803,2.8803,2.878,2.864,2.8594,2.864,2.8664,2.8734,2.878,2.8734,2.8628,2.8628,2.8547,2.8594,2.864,2.8524,2.8395,2.8547,2.878,2.8803,2.8803,2.8803,2.8803,2.8803,2.8803,2.8803,2.8803,2.8803,2.9088,0.9046,0.9582,0.9879,1.0186,1.0494,1.0981,1.1615,1.2262,1.2796,1.3389,1.4074,1.4356,1.4486,1.4381,1.4579,1.4694,1.4736,1.4654,1.4914,1.5102,1.5022,1.4948,1.4917,1.4901,1.4774,1.4655,1.5057,1.5665,1.6584,1.7652,1.8785,1.9943,2.0459,2.0889,2.1271,2.1147,2.1095,2.1404,2.1393,2.1393,2.1393,2.1671,2.1968,2.2176,2.2365,2.2553,2.2777,2.2964,2.2983,2.299,2.3001,2.3001,2.302,2.302,2.302,2.302,2.3042,2.3099,2.3372,2.3757,2.4238,2.4727,2.5207,2.5699,2.5763,2.5895,2.5895,2.5895,2.5895,2.5895,2.5895,2.5895,2.5895,2.6048,2.6704,2.7293,2.7807,2.843,2.8792,2.8803,2.8803,2.8803,2.8803,2.8803,2.8803,2.8803,2.8803,2.8803,2.8803,2.8803,2.8803,2.8803,2.8803,2.8803,2.8803,2.878,2.8757,2.878,2.8803,2.878,2.8734,2.8757,2.8803,2.8803,2.8803,2.8803,2.8803,2.8803,2.8803,2.8803,2.8803,2.8803,2.8803,2.8825,2.9088,0.9344,1.0048,1.05,1.0887,1.1279,1.1644,1.2028,1.241,1.2797,1.317,1.3598,1.4089,1.4369,1.443,1.448,1.4524,1.4577,1.4603,1.4835,1.4901,1.4766,1.479,1.4795,1.4771,1.473,1.4944,1.5335,1.6033,1.6839,1.7839,1.8836,2.001,2.0717,2.1232,2.1633,2.1768,2.1716,2.1695,2.1714,2.1775,2.1806,2.1845,2.2092,2.2271,2.2459,2.2647,2.2889,2.302,2.302,2.302,2.302,2.302,2.302,2.302,2.302,2.3031,2.3165,2.3332,2.3659,2.4224,2.4683,2.5162,2.5633,2.5874,2.5895,2.5895,2.5895,2.5895,2.5895,2.5895,2.5895,2.5895,2.5895,2.6026,2.6791,2.7545,2.8124,2.8627,2.8671,2.8738,2.8803,2.8803,2.8803,2.8803,2.8803,2.8803,2.8803,2.8803,2.8803,2.8803,2.8803,2.8803,2.8803,2.8803,2.8803,2.8803,2.8803,2.8803,2.8803,2.8803,2.8803,2.8803,2.8803,2.8803,2.8803,2.8803,2.8803,2.8803,2.8803,2.8803,2.8803,2.8803,2.8803,2.8869,2.9077,1.0137,1.0906,1.1316,1.1706,1.2077,1.2323,1.2569,1.2801,1.3053,1.3291,1.3543,1.3903,1.4175,1.4237,1.4472,1.4587,1.4569,1.4587,1.4587,1.4645,1.4645,1.4676,1.4692,1.4684,1.4818,1.5155,1.5598,1.6184,1.705,1.7843,1.8748,1.9968,2.0336,2.0963,2.1695,2.1807,2.1826,2.1845,2.1883,2.1921,2.2035,2.2092,2.2187,2.2365,2.2561,2.2777,2.2945,2.3001,2.302,2.302,2.3031,2.3042,2.3107,2.3121,2.3154,2.3318,2.3441,2.367,2.4093,2.4616,2.5053,2.5293,2.5666,2.5884,2.5895,2.5895,2.5895,2.5895,2.5895,2.5895,2.5895,2.5895,2.5917,2.6081,2.6594,2.7293,2.7937,2.8222,2.8353,2.8572,2.8803,2.8803,2.8803,2.8803,2.8803,2.8803,2.8803,2.8803,2.8803,2.8803,2.8803,2.8803,2.8803,2.8803,2.8803,2.8803,2.8803,2.8803,2.8803,2.8803,2.8803,2.8803,2.8803,2.8803,2.8803,2.8803,2.8803,2.8803,2.8803,2.8803,2.8803,2.8803,2.8803,2.8847,2.9011]},{"header":{"parameterUnit":"m.s-1","parameterCategory":1,"la1":31.0,"la2":29.5877,"lo1":-88.7671,"lo2":-86.6584,"dy":0.0162,"dx":0.0185,"nx":115,"ny":88,"refTime":"2026-05-10T12:00:00:Z","depth":0,"parameterNumber":3,"parameterNumberName":"V-component_of_WINDS"},"data":[0.0,0.0,0.0,0.0,0.0,0.0,0.0,0.0,0.0,0.0,0.0,0.0,0.0,0.0,0.0,0.0,0.0,0.0,0.0,0.0,0.0,0.0,0.0,0.0,0.0,0.0,0.0,0.0,0.0,0.0,0.0,0.0,0.0,0.0,0.0,0.0,0.0,0.0,0.0,0.0,0.0,0.0,0.0,0.0,0.0,0.0,0.0,0.0,0.0,0.0,0.0,0.0,0.0,0.0,0.0,0.0,0.0,0.0,0.0,0.0,0.0,0.0,0.0,0.0,0.0,0.0,0.0,0.0,0.0,0.0,0.0,0.0,0.0,0.0,0.0,0.0,0.0,0.0,0.0,0.0,0.0,0.0,0.0,0.0,0.0,0.0,0.0,0.0,0.0,0.0,0.0,0.0,0.0,0.0,0.0,0.0,0.0,0.0,0.0,0.0,0.0,0.0,0.0,0.0,0.0,0.0,0.0,0.0,0.0,0.0,0.0,0.0,0.0,0.0,0.0,0.0,0.0,0.0,0.0,0.0,0.0,0.0,0.0,0.0,0.0,0.0,0.0,0.0,0.0,0.0,0.0,0.0,0.0,0.0,0.0,0.0,0.0,0.0,0.0,0.0,0.0,0.0,0.0,0.0,0.0,0.0,0.0,0.0,0.0,0.0,0.0,0.0,0.0,0.0,0.0,0.0,0.0,0.0,0.0,0.0,0.0,0.0,0.0,0.0,0.0,0.0,0.0,0.0,0.0,0.0,0.0,0.0,0.0,0.0,0.0,0.0,0.0,0.0,0.0,0.0,0.0,0.0,0.0,0.0,0.0,0.0,0.0,0.0,0.0,0.0,0.0,0.0,0.0,0.0,0.0,0.0,0.0,0.0,0.0,0.0,0.0,0.0,0.0,0.0,0.0,0.0,0.0,0.0,0.0,0.0,0.0,0.0,0.0,0.0,0.0,0.0,0.0,0.0,0.0,0.0,0.0,0.0,0.0,0.0,0.0,0.0,0.0,0.0,0.0,0.0,0.0,0.0,0.0,0.0,0.0,0.0,0.0,0.0,0.0,0.0,0.0,0.0,0.0,0.0,0.0,0.0,0.0,0.0,0.0,0.0,0.0,0.0,0.0,0.0,0.0,0.0,0.0,0.0,0.0,0.0,0.0,0.0,0.0,0.0,0.0,0.0,0.0,0.0,0.0,0.0,0.0,0.0,0.0,0.0,0.0,0.0,0.0,0.0,0.0,0.0,0.0,0.0,0.0,0.0,0.0,0.0,0.0,0.0,0.0,0.0,0.0,0.0,0.0,0.0,0.0,0.0,0.0,0.0,0.0,0.0,0.0,0.0,0.0,0.0,0.0,0.0,0.0,0.0,0.0,0.0,0.0,0.0,0.0,0.0,0.0,0.0,0.0,0.0,0.0,0.0,0.0,0.0,0.0,0.0,0.0,0.0,0.0,0.0,0.0,0.0,0.0,0.0,0.0,0.0,0.0,0.0,0.0,0.0,0.0,0.0,0.0,0.0,0.0,0.0,0.0,0.0,0.0,0.0,0.0,0.0,0.0,0.0,0.0,0.0,0.0,0.0,0.0,0.0,0.0,0.0,0.0,0.0,0.0,0.0,0.0,0.0,0.0,0.0,0.0,0.0,0.0,0.0,0.0,0.0,0.0,0.0,0.0,0.0,0.0,0.0,0.0,0.0,0.0,0.0,0.0,0.0,0.0,0.0,0.0,0.0,0.0,0.0,0.0,0.0,0.0,0.0,0.0,0.0,0.0,0.0,0.0,0.0,0.0,0.0,0.0,0.0,0.0,0.0,0.0,0.0,0.0,0.0,0.0,0.0,0.0,0.0,0.0,0.0,0.0,0.0,0.0,0.0,0.0,0.0,0.0,0.0,0.0,0.0,0.0,0.0,0.0,0.0,0.0,0.0,0.0,0.0,0.0,0.0,0.0,0.0,0.0,0.0,0.0,0.0,0.0,0.0,0.0,0.0,0.0,0.0,0.0,0.0,0.0,0.0,0.0,0.0,0.0,0.0,0.0,0.0,0.0,0.0,0.0,0.0,0.0,0.0,0.0,0.0,0.0,0.0,0.0,0.0,0.0,0.0,0.0,0.0,0.0,0.0,0.0,0.0,0.0,0.0,0.0,0.0,0.0,0.0,0.0,0.0,0.0,0.0,0.0,0.0,0.0,0.0,0.0,0.0,0.0,0.0,0.0,0.0,0.0,0.0,0.0,0.0,0.0,0.0,0.0,0.0,0.0,0.0,0.0,0.0,0.0,0.0,0.0,0.0,0.0,0.0,0.0,0.0,0.0,0.0,0.0,0.0,0.0,0.0,0.0,0.0,0.0,0.0,0.0,0.0,0.0,0.0,0.0,0.0,0.0,0.0,0.0,0.0,0.0,0.0,0.0,0.0,0.0,0.0,0.0,0.0,0.0,0.0,0.0,0.0,0.0,0.0,0.0,0.0,0.0,0.0,0.0,0.0,0.0,0.0,0.0,0.0,0.0,0.0,0.0,0.0,0.0,0.0,0.0,0.0,0.0,0.0,0.0,0.0,0.0,0.0,0.0,0.0,0.0,0.0,0.0,0.0,0.0,0.0,0.0,0.0,0.0,0.0,0.0,0.0,0.0,0.0,0.0,0.0,0.0,0.0,0.0,0.0,0.0,0.0,0.0,0.0,0.0,0.0,0.0,0.0,0.0,0.0,0.0,0.0,0.0,0.0,0.0,0.0,0.0,0.0,0.0,0.0,0.0,0.0,0.0,0.0,0.0,0.0,0.0,0.0,0.0,0.0,0.0,0.0,0.0,0.0,0.0,0.0,0.0,0.0,0.0,0.0,0.0,0.0,0.0,0.0,0.0,0.0,0.0,0.0,0.0,0.0,0.0,0.0,0.0,0.0,0.0,0.0,0.0,0.0,0.0,0.0,0.0,0.0,0.0,0.0,0.0,0.0,0.0,0.0,0.0,0.0,0.0,0.0,0.0,0.0,0.0,0.0,0.0,0.0,0.0,0.0,0.0,0.0,0.0,0.0,0.0,0.0,0.0,0.0,0.0,0.0,0.0,0.0,0.0,0.0,0.0,0.0,0.0,0.0,0.0,0.0,0.0,0.0,0.0,0.0,0.0,0.0,0.0,0.0,0.0,0.0,0.0,0.0,0.0,0.0,0.0,0.0,0.0,0.0,0.0,0.0,0.0,0.0,0.0,0.0,0.0,0.0,0.0,0.0,0.0,0.0,0.0,0.0,0.0,0.0,0.0,0.0,0.0,0.0,0.0,0.0,0.0,0.0,0.0,0.0,0.0,0.0,0.0,0.0,0.0,0.0,0.0,0.0,0.0,0.0,0.0,0.0,0.0,0.0,0.0,0.0,0.0,0.0,0.0,0.0,0.0,0.0,0.0,0.0,0.0,0.0,0.0,0.0,0.0,0.0,0.0,0.0,0.0,0.0,0.0,0.0,0.0,0.0,0.0,0.0,0.0,0.0,0.0,0.0,0.0,0.0,0.0,0.0,0.0,0.0,0.0,0.0,0.0,0.0,0.0,0.0,0.0,0.0,0.0,0.0,0.0,0.0,0.0,0.0,0.0,0.0,0.0,0.0,0.0,0.0,0.0,0.0,0.0,0.0,0.0,0.0,0.0,0.0,0.0,0.0,0.0,0.0,0.0,0.0,0.0,0.0,0.0,0.0,0.0,0.0,0.0,0.0,0.0,0.0,0.0,0.0,0.0,0.0,0.0,0.0,0.0,0.0,0.0,0.0,0.0,0.0,0.0,0.0,0.0,0.0,0.0,0.0,0.0,0.0,0.0,0.0,0.0,0.0,0.0,0.0,0.0,0.0,0.0,0.0,0.0,0.0,0.0,0.0,0.0,0.0,0.0,0.0,0.0,0.0,0.0,0.0,0.0,0.0,0.0,0.0,0.0,0.0,0.0,0.0,0.0,0.0,0.0,0.0,0.0,0.0,0.0,0.0,0.0,0.0,0.0,0.0,0.0,0.0,0.0,0.0,0.0,0.0,0.0,0.0,0.0,0.0,0.0,0.0,0.0,0.0,0.0,0.0,0.0,0.0,0.0,0.0,0.0,0.0,0.0,0.0,0.0,0.0,0.0,0.0,0.0,0.0,0.0,0.0,0.0,0.0,0.0,0.0,0.0,0.0,0.0,0.0,0.0,0.0,0.0,0.0,0.0,0.0,0.0,0.0,0.0,0.0,0.0,0.0,0.0,0.0,0.0,0.0,0.0,0.0,0.0,0.0,0.0,0.0,0.0,0.0,0.0,0.0,0.6349,0.0,0.0,0.0,0.0,0.0,0.0,0.0,0.0,0.0,0.0,0.0,0.0,0.0,0.0,0.0,0.0,0.0,0.0,0.0,0.0,0.0,0.0,0.0,0.0,0.0,0.0,0.0,0.0,0.0,0.0,0.0,0.0,0.0,0.0,0.0,0.0,0.0,0.0,0.0,0.0,0.0,0.0,0.0,0.0,0.0,0.0,0.0,0.0,0.0,0.0,0.0,0.0,0.0,0.0,0.0,0.0,0.0,0.0,0.0,0.0,0.0,0.0,0.0,0.0,0.0,0.0,0.0,0.0,0.0,0.0,0.0,0.0,0.0,0.0,0.0,0.0,0.0,0.0,0.0,0.0,0.0,0.0,0.0,0.0,0.0,0.0,0.0,0.0,0.0,0.0,0.0,0.0,0.0,0.0,0.0,0.0,0.0,0.0,0.0,0.0,0.0,0.0,0.0,0.0,0.0,0.0,0.0,0.0,0.0,0.0,0.5331,0.6017,0.6039,0.6383,0.7081,0.0,0.0,0.0,0.0,0.0,0.0,0.0,0.0,0.0,0.0,0.0,0.0,0.0,0.0,0.0,0.0,0.0,0.0,0.0,0.0,0.0,0.0,0.0,0.0,0.0,0.0,0.0,0.0,0.0,0.0,0.0,0.0,0.0,0.0,0.0,0.0,0.0,0.0,0.0,0.0,0.0,0.0,0.0,0.0,0.0,0.0,0.0,0.0,0.0,0.0,0.0,0.0,0.0,0.0,0.0,0.0,0.0,0.0,0.0,0.0,0.0,0.0,0.0,0.0,0.0,0.0,0.0,0.0,0.0,0.0,0.0,0.0,0.0,0.0,0.0,0.0,0.0,0.0,0.0,0.0,0.0,0.0,0.0,0.0,0.0,0.0,0.0,0.0,0.0,0.0,0.0,0.0,0.0,0.0,0.0,0.0,0.0,0.0,0.0,0.0,0.0,0.0,0.0,0.0,0.0,0.0,0.0,0.0,0.0,0.0,0.0,0.0,0.6758,0.7084,0.783,0.0,0.0,0.0,0.0,0.0,0.0,0.0,0.0,0.0,0.0,0.0,0.0,0.0,0.0,0.0,0.0,0.0,0.0,0.0,0.0,0.0,0.0,0.0,0.0,0.0,0.0,0.0,0.0,0.0,0.0,0.0,0.0,0.0,0.0,0.0,0.0,0.0,0.0,0.0,0.0,0.0,0.0,0.0,0.0,0.0,0.0,0.0,0.0,0.0,0.0,0.0,0.0,0.0,0.0,0.0,0.0,0.0,0.0,0.0,0.0,0.0,0.0,0.0,0.0,0.0,0.0,0.0,0.0,0.0,0.0,0.0,0.0,0.0,0.0,0.0,0.0,0.0,0.0,0.0,0.0,0.0,0.0,0.0,0.0,0.0,0.0,0.0,0.0,0.0,0.0,0.0,0.0,0.0,0.0,0.0,0.0,0.0,0.0,0.0,0.0,0.0,0.0,0.0,0.0,0.0,0.0,0.0,0.0,0.0,0.0,0.6131,0.7452,0.7494,0.0,0.8534,0.0,0.0,0.0,0.0,0.0,0.0,0.0,0.0,0.0,0.0,0.0,0.0,0.0,0.0,0.0,0.0,0.0,0.0,0.0,0.0,0.0,0.0,0.0,0.0,0.0,0.0,0.0,0.0,0.0,0.0,0.0,0.0,0.0,0.0,0.0,0.0,0.0,0.0,0.0,0.0,0.0,0.0,0.0,0.0,0.0,0.0,0.0,0.0,0.0,0.0,0.0,0.0,0.0,0.0,0.0,0.0,0.0,0.0,0.0,0.0,0.0,0.0,0.0,0.0,0.0,0.0,0.0,0.0,0.0,0.0,0.0,0.0,0.0,0.0,0.0,0.0,0.0,0.0,0.0,0.0,0.0,0.0,0.0,0.0,0.0,0.0,0.0,0.0,0.0,0.0,0.0,0.0,0.0,0.0,0.0,0.0,0.0,0.0,0.0,0.0,0.0,0.0,0.0,0.0,0.0,0.0,0.0,0.0,0.0,0.0,0.6989,0.8845,0.8899,0.9063,0.0,0.0,0.0,0.0,0.0,0.0,0.0,0.0,0.0,0.0,0.0,0.0,0.0,0.0,0.0,0.0,0.0,0.0,0.0,0.0,0.0,0.0,0.0,0.0,0.0,0.0,0.0,0.0,0.0,0.0,0.0,0.0,0.0,0.0,0.0,0.0,0.0,0.0,0.0,0.0,0.0,0.0,0.0,0.0,0.0,0.0,0.0,0.0,0.0,0.0,0.0,0.0,0.0,0.0,0.0,0.0,0.0,0.0,0.0,0.0,0.0,0.0,0.0,0.0,0.0,0.0,0.0,0.0,0.0,0.0,0.0,0.0,0.0,0.0,0.0,0.0,0.0,0.0,0.0,0.0,0.0,0.0,0.0,0.0,0.0,0.0,0.0,0.0,0.0,0.0,0.0,0.0,0.0,0.0,0.0,0.0,0.0,0.0,0.0,0.0,0.0,0.0,0.0,0.0,0.0,0.0,0.0,0.0,0.0,0.0,0.64,0.7452,0.9353,0.9498,0.9488,0.9507,0.0,0.0,0.0,0.0,0.0,0.0,0.0,0.0,0.0,0.0,0.0,0.0,0.0,0.0,0.0,0.0,0.0,0.0,0.0,0.0,0.0,0.0,0.0,0.0,0.0,0.0,0.0,0.0,0.0,0.0,0.0,0.0,0.0,0.0,0.0,0.0,0.0,0.0,0.0,0.0,0.0,0.0,0.0,0.0,0.0,0.0,0.0,0.0,0.0,0.0,0.0,0.0,0.0,0.0,0.0,0.0,0.0,0.0,0.0,0.0,0.0,0.0,0.0,0.0,0.0,0.0,0.0,0.0,0.0,0.0,0.0,0.0,0.0,0.0,0.0,0.0,0.0,0.0,0.0,0.0,0.0,0.0,0.0,0.0,0.0,0.0,0.0,0.0,0.0,0.0,0.0,0.0,0.0,0.0,0.0,0.0,0.0,0.0,0.0,0.0,0.0,0.0,0.0,0.0,0.0,0.0,0.0,0.0,0.0,0.6147,0.7216,0.8716,0.8755,0.8752,0.0,0.0,0.0,0.0,0.0,0.0,0.0,0.0,0.0,0.0,0.0,0.0,0.0,0.0,0.0,0.0,0.0,0.0,0.0,0.0,0.0,0.0,0.0,0.0,0.0,0.0,0.0,0.0,0.0,0.0,0.0,0.0,0.0,0.0,0.0,0.0,0.0,0.0,0.0,0.0,0.0,0.0,0.0,0.0,0.0,0.0,0.0,0.0,0.0,0.0,0.0,0.0,0.0,0.0,0.0,0.0,0.0,0.0,0.0,0.0,0.0,0.0,0.0,0.0,0.0,0.0,0.0,0.0,0.0,0.0,0.0,0.0,0.0,0.0,0.0,0.0,0.0,0.0,0.0,0.0,0.0,0.0,0.0,0.0,0.0,0.0,0.0,0.0,0.0,0.0,0.0,0.0,0.0,0.0,0.0,0.0,0.0,0.0,0.0,0.0,0.0,0.0,0.0,0.0,0.0,0.0,0.0,0.0,0.0,0.5442,0.704,0.8164,0.8694,0.916,0.9405,0.0,0.0,0.0,0.0,0.0,0.0,0.0,0.0,0.0,0.0,0.0,0.0,0.0,0.0,0.0,0.0,0.0,0.0,0.0,0.0,0.0,0.0,0.0,0.0,0.0,0.0,0.0,0.0,0.0,0.0,0.0,0.0,0.0,0.0,0.0,0.0,0.0,0.0,0.0,0.0,0.0,0.0,0.0,0.0,0.0,0.0,0.0,0.0,0.0,0.0,0.0,0.0,0.0,0.0,0.0,0.0,0.0,0.0,0.0,0.0,0.0,0.0,0.0,0.0,0.0,0.0,0.0,0.0,0.0,0.0,0.0,0.0,0.0,0.0,0.0,0.0,0.0,0.0,0.0,0.0,0.0,0.0,0.0,0.0,0.0,0.0,0.0,0.0,0.0,0.0,0.0,0.0,0.0,0.0,0.0,0.0,0.0,0.0,0.0,0.0,0.0,0.0,0.0,0.0,0.0,0.0,0.0,0.0,0.0,0.6092,0.0,0.8416,0.0,0.9161,0.9441,0.0,0.0,0.0,0.0,0.0,0.0,0.0,0.0,0.0,0.0,0.0,0.0,0.0,0.0,0.0,0.0,0.0,0.0,0.0,0.0,0.0,0.0,0.0,0.0,0.0,0.0,0.0,0.0,0.0,0.0,0.0,0.0,0.0,0.0,0.0,0.0,0.0,0.0,0.0,0.0,0.0,0.0,0.0,0.0,0.0,0.0,0.0,0.0,0.0,0.0,0.0,0.0,0.0,0.0,0.0,0.0,0.0,0.0,0.0,0.0,0.0,0.0,0.0,0.0,0.0,0.0,0.0,0.0,0.0,0.0,0.0,0.0,0.0,0.0,0.0,0.0,0.0,0.0,0.0,0.0,0.0,0.0,0.0,0.0,0.0,0.0,0.0,0.0,0.0,0.0,0.0,0.0,0.0,0.0,0.0,0.0,0.0,0.0,0.0,0.0,0.0,0.0,0.0,0.0,0.0,0.0,0.0,0.0,0.6814,0.7449,0.7546,0.7973,0.858,0.8711,0.8735,0.0,0.0,0.0,0.0,0.0,0.0,0.0,0.0,0.0,0.0,0.0,0.0,0.0,0.0,0.0,0.0,0.0,0.0,0.0,0.0,0.0,0.0,0.0,0.0,0.0,0.0,0.0,0.0,0.0,0.0,0.0,0.0,0.0,0.0,0.0,0.0,0.0,0.0,0.0,0.0,0.0,0.0,0.0,0.0,0.0,0.0,0.0,0.0,0.0,0.0,0.0,0.0,0.0,0.0,0.0,0.0,0.0,0.0,0.0,0.0,0.0,0.0,0.0,0.0,0.0,0.0,0.0,0.0,0.0,0.0,0.0,0.0,0.0,0.0,0.0,0.0,0.0,0.0,0.0,0.0,0.0,0.0,0.0,0.0,0.0,0.0,0.0,0.0,0.0,0.0,0.0,0.0,0.0,0.0,0.0,0.0,0.0,0.0,0.0,0.0,0.0,0.0,0.0,0.0,0.0,0.0,0.0,0.0,0.0,0.7527,0.8504,0.8886,0.8648,0.911,0.9175,0.0,0.0,0.0,0.0,0.0,0.0,0.0,0.0,0.0,0.0,0.0,0.0,0.0,0.0,0.0,0.0,0.0,0.0,0.0,0.0,0.0,0.0,0.0,0.0,0.0,0.0,0.0,0.0,0.0,0.0,0.0,0.0,0.0,0.0,0.0,0.0,0.0,0.0,0.0,0.0,0.0,0.0,0.0,0.0,0.0,0.0,0.0,0.0,0.0,0.0,0.0,0.0,0.0,0.0,0.0,0.0,0.0,0.0,0.0,0.0,0.0,0.0,0.0,0.0,0.0,0.0,0.0,0.0,0.0,0.0,0.0,0.0,0.0,0.0,0.0,0.0,0.0,0.0,0.0,0.0,0.0,0.0,0.0,0.0,0.0,0.0,0.0,0.0,0.0,0.0,0.0,0.0,0.0,0.0,0.0,0.0,0.0,0.0,0.0,0.0,0.0,0.0,0.0,0.0,0.0,0.0,0.0,0.0,0.0,0.9575,0.9885,0.9883,0.9458,0.9616,0.9511,0.9121,0.0,0.0,0.0,0.0,0.0,0.0,0.0,0.0,0.0,0.0,0.0,0.0,0.0,0.0,0.0,0.0,0.0,0.0,0.0,0.0,0.0,0.0,0.0,0.0,0.0,0.0,0.0,0.0,0.0,0.0,0.0,0.0,0.0,0.0,0.0,0.0,0.0,0.0,0.0,0.0,0.0,0.0,0.0,0.0,0.0,0.0,0.0,0.0,0.0,0.0,0.0,0.0,0.0,0.0,0.0,0.0,0.0,0.0,0.0,0.0,0.0,0.0,0.0,0.0,0.0,0.0,0.0,0.0,0.0,0.0,0.0,0.0,0.0,0.0,0.0,0.0,0.0,0.0,0.0,0.0,0.0,0.0,0.0,0.0,0.0,0.0,0.0,0.0,0.0,0.0,0.0,0.0,0.0,0.0,0.0,0.0,0.0,0.0,0.0,0.0,0.0,0.0,0.0,0.0,0.0,0.0,0.0,0.0,1.2984,1.1658,1.0988,1.0995,1.0316,0.9863,0.0,0.0,0.0,0.0,0.0,0.0,0.0,0.0,0.0,0.0,0.0,0.0,0.0,0.0,0.0,0.0,0.0,0.0,0.0,0.0,0.0,0.0,0.0,0.0,0.0,0.0,0.0,0.0,0.0,0.0,0.0,0.0,0.0,0.0,0.0,0.0,0.0,0.0,0.0,0.0,0.0,0.0,0.0,0.0,0.0,0.0,0.0,0.0,0.0,0.0,0.0,0.0,0.0,0.0,0.0,0.0,0.0,0.0,0.0,0.0,0.0,0.0,0.0,0.0,0.0,0.0,0.0,0.0,0.0,0.0,0.0,0.0,0.0,0.0,0.0,0.0,0.0,0.0,0.0,0.0,0.0,0.0,0.0,0.0,0.0,0.0,0.0,0.0,0.0,0.0,0.0,0.0,0.0,0.0,0.0,0.0,0.0,0.0,0.0,0.0,0.0,0.0,0.0,0.0,0.0,0.0,0.0,0.0,0.0,1.304,1.3641,1.3469,1.2492,1.223,1.1658,0.0,0.0,0.0,0.0,0.0,0.0,0.0,0.0,0.0,0.0,0.0,0.0,0.0,0.0,0.0,0.0,0.0,0.0,0.0,0.0,0.0,0.0,0.0,0.0,0.0,0.0,0.0,0.0,0.0,0.0,0.0,0.0,0.0,0.0,0.0,0.0,0.0,0.0,0.0,0.0,0.0,0.0,0.0,0.0,0.0,0.0,0.0,0.0,0.0,0.0,0.0,0.0,0.0,0.0,0.0,0.0,0.0,0.0,0.0,0.0,0.0,0.0,0.0,0.0,0.0,0.0,0.0,0.0,0.0,0.0,0.0,0.0,0.0,0.0,0.0,0.0,0.0,0.0,0.0,0.0,0.0,0.0,0.0,0.0,0.0,0.0,0.0,0.0,0.0,0.0,0.0,0.0,0.0,0.0,0.0,0.0,0.0,0.0,0.0,0.0,0.0,0.0,0.0,0.0,0.0,0.0,0.0,0.0,1.2871,1.3919,1.532,1.5523,1.4428,1.3489,1.2643,0.0,0.0,0.0,0.0,0.0,0.0,0.0,0.0,0.0,0.0,0.0,0.0,0.0,0.0,0.0,0.0,0.0,0.0,0.0,0.0,0.0,0.0,0.0,0.0,0.0,0.0,0.0,0.0,0.0,0.0,0.0,0.0,0.0,0.0,0.0,0.0,0.0,0.0,0.0,0.0,0.0,0.0,0.0,0.0,0.0,0.0,0.0,0.0,0.0,0.0,0.0,0.0,0.0,0.0,0.0,0.0,0.0,0.0,0.0,0.0,0.0,0.0,0.0,0.0,0.0,0.0,0.0,0.0,0.0,0.0,0.0,0.0,0.0,0.0,0.0,0.0,0.0,0.0,0.0,0.0,0.0,0.0,0.0,0.0,0.0,0.0,0.0,0.0,0.0,0.0,0.0,0.0,0.0,0.0,0.0,0.0,0.0,0.0,0.0,0.0,0.0,0.0,0.0,0.0,0.0,0.0,0.0,0.0,1.3759,1.5091,1.6602,1.707,1.6412,1.4435,1.3312,0.0,0.0,0.0,0.0,0.0,0.0,0.0,0.0,0.0,0.0,0.0,0.0,0.0,0.0,0.0,0.0,0.0,0.0,0.0,0.0,0.0,0.0,0.0,0.0,0.0,0.0,0.0,0.0,0.0,0.0,0.0,0.0,0.0,0.0,0.0,0.0,0.0,0.0,0.0,0.0,0.0,0.0,0.0,0.0,0.0,0.0,0.0,0.0,0.0,0.0,0.0,0.0,0.0,0.0,0.0,0.0,0.0,0.0,0.0,0.0,0.0,0.0,0.0,0.0,0.0,0.0,0.0,0.0,0.0,0.0,0.0,0.0,0.0,0.0,0.0,0.0,0.0,0.0,0.0,0.0,0.0,0.0,0.0,0.0,0.0,0.0,0.0,0.0,0.0,0.0,0.0,0.0,0.0,0.0,0.0,0.0,0.0,0.0,0.0,0.0,0.0,0.0,0.0,0.0,0.0,0.0,0.0,0.0,1.4265,1.5251,1.6603,1.7294,1.7231,1.6227,1.5134,0.0,0.0,0.0,0.0,0.0,0.0,0.0,0.0,0.0,0.0,0.0,0.0,0.0,0.0,0.0,0.0,0.0,0.0,0.0,0.0,0.0,0.0,0.0,0.0,0.0,0.0,0.0,0.0,0.0,0.0,0.0,0.0,0.0,0.0,0.0,0.0,0.0,0.0,0.0,0.0,0.0,0.0,0.0,0.0,0.0,0.0,0.0,0.0,1.0985,0.0,0.0,0.0,0.0,0.0,0.0,0.0,0.0,0.0,0.0,0.0,0.0,0.0,0.0,0.0,0.0,0.0,0.0,0.0,0.0,0.0,0.0,0.0,0.0,0.0,0.0,0.0,0.0,0.0,0.0,0.0,0.0,0.0,0.0,0.0,0.0,0.0,0.0,0.0,0.0,0.0,0.0,0.0,0.0,0.0,0.0,0.0,0.0,0.0,0.0,0.0,0.0,0.0,0.0,0.0,0.0,0.0,0.0,0.0,1.4434,1.5203,1.6614,1.7383,1.7449,1.7093,1.6216,0.0,0.0,0.0,0.0,0.0,0.0,0.0,0.0,0.0,0.0,0.0,0.0,0.0,0.0,0.0,0.0,0.0,0.0,0.0,0.0,0.0,0.0,0.0,0.0,0.0,0.0,0.0,0.0,0.0,0.0,0.0,0.0,0.0,0.0,0.0,0.0,0.0,0.0,0.0,0.0,0.0,0.0,0.0,0.0,0.0,0.0,0.0,0.0,0.0,0.0,0.0,0.0,0.0,0.0,0.0,0.0,0.0,0.0,0.0,0.0,0.0,0.0,0.0,0.0,0.0,0.0,0.0,0.0,0.0,0.0,0.0,0.0,0.0,0.0,0.0,0.0,0.0,0.0,0.0,0.0,0.0,0.0,0.0,0.0,0.0,0.0,0.0,0.0,0.0,0.0,0.0,0.0,0.0,0.0,0.0,0.0,0.0,0.0,0.0,0.0,0.0,0.0,0.0,0.0,0.0,0.0,0.0,1.3161,1.4607,1.5321,1.668,1.7395,1.7401,1.7357,1.6708,1.5336,0.0,0.0,0.0,0.0,0.0,0.0,0.0,0.0,0.0,0.0,0.0,0.0,0.0,0.0,0.0,0.0,0.0,0.0,0.0,0.0,0.0,0.0,0.0,0.0,0.0,0.0,0.0,0.0,0.0,0.0,0.0,0.0,0.0,0.0,0.0,0.0,0.0,0.0,0.9278,1.0537,0.0,0.0,0.0,0.0,0.0,0.0,0.0,0.0,1.0932,0.0,0.0,0.0,0.0,0.0,0.0,0.0,0.0,0.0,0.0,0.0,0.0,0.0,0.0,0.0,0.0,0.0,0.0,0.0,0.0,0.0,0.0,0.0,0.0,0.0,0.0,0.0,0.0,0.0,0.0,0.0,0.0,0.0,0.0,0.0,0.0,0.0,0.0,0.0,0.0,0.0,0.0,0.0,0.0,0.0,0.0,0.0,0.0,0.0,0.0,0.0,0.0,0.0,0.0,0.0,0.0,1.1798,1.3934,1.5407,1.6188,1.6974,1.7419,1.7468,1.6895,1.6171,1.5325,0.0,0.0,0.0,0.0,0.0,0.0,0.0,0.0,0.0,0.0,0.0,0.0,0.0,0.0,0.0,0.0,0.0,0.0,0.0,0.0,0.0,0.0,0.0,0.0,0.0,0.0,0.0,0.0,0.0,0.0,0.0,0.0,0.0,0.0,0.0,0.0,0.0,0.0,0.0,1.1107,1.1895,0.0,0.0,0.0,0.0,0.0,0.0,0.0,0.0,1.1408,0.0,0.0,0.0,0.0,0.0,0.0,0.0,0.0,0.0,0.0,0.0,0.0,0.0,0.0,0.0,0.0,0.0,0.0,0.0,0.0,0.0,0.0,0.0,0.0,0.0,0.0,0.0,0.0,0.0,0.0,0.0,0.0,0.0,0.0,0.0,0.0,0.0,0.0,0.0,0.0,0.0,0.0,0.0,0.0,0.0,0.0,0.0,0.0,0.0,0.0,0.0,0.0,0.0,0.0,0.0,1.2605,1.4319,1.5625,1.6387,1.7092,1.7467,1.747,1.6779,1.6039,0.0,0.0,0.0,0.0,0.0,0.0,0.0,0.0,0.0,0.0,0.0,0.0,0.0,0.0,0.0,0.0,0.0,0.0,0.0,0.0,0.0,0.0,0.0,0.0,0.0,0.0,0.0,0.0,0.0,0.0,0.0,0.0,0.0,0.0,0.0,0.0,0.0,0.0,0.0,0.0,1.1235,1.2153,1.2286,0.0,0.0,0.0,0.0,0.0,0.0,1.1457,1.1349,0.0,0.0,0.0,0.0,0.0,0.0,0.0,0.0,0.0,0.0,0.0,0.0,0.0,0.0,0.0,0.0,0.0,0.0,0.0,0.0,0.0,0.0,0.0,0.0,0.0,0.0,0.0,0.0,0.0,0.0,0.0,0.0,0.0,0.0,0.0,0.0,0.0,0.0,0.0,0.0,0.0,0.0,0.0,0.0,0.0,0.0,0.0,0.0,0.0,0.0,0.0,0.0,0.0,0.0,0.0,1.3312,1.4624,1.5723,1.6603,1.7188,1.7486,1.747,1.6652,1.5906,0.0,0.0,0.0,0.0,0.0,0.0,0.0,0.0,0.0,0.0,0.0,0.0,0.0,0.0,0.0,0.0,0.0,0.0,0.0,0.0,0.0,0.0,0.0,0.0,0.0,0.0,0.0,0.0,0.0,0.0,0.0,0.0,0.0,0.0,0.0,0.0,0.0,0.0,0.0,0.0,0.0,1.2437,1.2605,1.2999,0.0,0.0,0.0,0.0,1.2362,1.2041,0.0,0.0,0.0,0.0,0.0,0.0,0.0,0.0,0.0,0.0,0.0,0.0,0.0,0.0,0.0,0.0,0.0,0.0,0.0,0.0,0.0,0.0,0.0,0.0,0.0,0.0,0.0,0.0,0.0,0.0,0.0,0.0,0.0,0.0,0.0,0.0,0.0,0.0,0.0,0.0,0.0,0.0,0.0,0.0,0.0,0.0,0.0,0.0,0.0,0.0,0.0,0.0,0.0,0.0,0.0,0.0,1.3998,1.4884,1.5972,1.731,1.7459,1.7486,1.7476,1.6155,1.5386,0.0,0.0,0.0,0.0,0.0,0.0,0.0,0.0,0.0,0.0,0.0,0.0,0.0,0.0,0.0,0.0,0.0,0.0,0.0,0.0,0.0,0.0,0.0,0.0,0.0,0.0,0.0,0.0,0.0,0.0,0.0,0.0,0.0,0.0,0.0,0.0,0.0,0.0,0.0,0.0,0.0,1.3173,1.3652,1.4077,1.4121,0.0,0.0,1.3479,1.2559,1.316,0.0,0.0,0.0,0.0,0.0,0.0,0.0,0.0,0.0,0.0,0.0,0.0,0.0,0.0,0.0,0.0,0.0,0.0,0.0,0.0,0.0,0.0,0.0,0.0,0.0,0.0,0.0,0.0,0.0,0.0,0.0,0.0,0.0,0.0,0.0,0.0,0.0,0.0,0.0,0.0,0.0,0.0,0.0,0.0,0.0,0.0,0.0,0.0,0.0,0.0,0.0,0.0,0.0,0.0,0.0,1.2626,1.4751,1.5536,1.6431,1.7442,1.7486,1.7486,1.7486,1.6066,1.5281,0.0,0.0,0.0,0.0,0.0,0.0,0.0,0.0,0.0,0.0,0.0,0.0,0.0,0.0,0.0,0.0,0.0,0.0,0.0,0.0,0.0,0.0,0.0,0.0,0.0,0.0,0.0,0.0,0.0,0.0,0.0,0.0,0.0,0.0,0.0,0.0,0.0,0.0,0.0,0.0,0.0,0.0,1.4174,1.4621,0.0,0.0,0.0,1.4646,1.4569,0.0,0.0,0.0,0.0,0.0,0.0,0.0,0.0,0.0,0.0,0.0,0.0,0.0,0.0,0.0,0.0,0.0,0.0,0.0,0.0,0.0,0.0,0.0,0.0,0.0,0.0,0.0,0.0,0.0,0.0,0.0,0.0,0.0,0.0,0.0,0.0,0.0,0.0,0.0,0.0,0.0,0.0,0.0,0.0,0.0,0.0,0.0,0.0,0.0,0.0,0.0,0.0,0.0,0.0,0.0,0.0,0.0,1.5264,1.6022,1.6757,1.7459,1.7486,1.7486,1.747,1.626,0.0,0.0,0.0,0.0,0.0,0.0,0.0,0.0,0.0,0.0,0.0,0.0,0.0,0.0,0.0,0.0,0.0,0.0,0.0,0.0,0.0,0.0,0.0,0.0,0.0,0.0,0.0,0.5589,0.0,0.0,0.0,0.0,0.0,0.0,0.0,0.0,0.0,0.0,0.0,0.0,0.0,0.0,1.3876,1.4783,1.5243,1.5609,0.0,0.0,1.5698,1.6167,1.5783,1.5328,0.0,0.0,0.0,0.0,0.0,0.0,0.0,0.0,0.0,0.0,0.0,0.0,0.0,0.0,0.0,0.0,0.0,0.0,0.0,0.0,0.0,0.0,0.0,0.0,0.0,0.0,0.0,0.0,0.0,0.0,0.0,0.0,0.0,0.0,0.0,0.0,0.0,0.0,0.0,0.0,0.0,0.0,0.0,0.0,0.0,0.0,0.0,0.0,0.0,0.0,0.0,0.0,0.0,0.0,0.0,1.5231,1.6022,1.6763,1.7453,1.7486,1.7486,1.7486,1.6746,1.5989,0.0,0.0,0.0,0.0,0.0,0.0,0.0,0.0,0.0,0.0,0.0,0.0,0.0,0.0,0.0,0.0,0.0,0.0,0.0,0.0,0.0,0.0,0.0,0.0,0.0,0.0,0.0,0.0,0.0,0.0,0.0,0.0,0.0,0.0,0.0,0.0,0.0,0.0,0.0,0.0,0.0,1.502,1.5647,1.6279,1.6538,0.0,0.0,1.6627,1.6413,1.6804,1.6794,1.5811,0.0,0.0,0.0,0.0,0.0,0.0,0.0,0.0,0.0,0.0,0.0,0.0,0.0,0.0,0.0,0.0,0.0,0.0,0.0,0.0,0.0,0.0,0.0,0.0,0.0,0.0,0.0,0.0,0.0,0.0,0.0,0.0,0.0,0.0,0.0,0.0,0.0,0.0,0.0,0.0,0.0,0.0,0.0,0.0,0.0,0.0,0.0,0.0,0.0,0.0,0.0,0.0,0.0,1.3537,1.5276,1.6464,1.721,1.7476,1.7486,1.7486,1.7486,1.6774,1.6039,0.0,0.0,0.0,0.0,0.0,0.0,0.0,0.0,0.0,0.0,0.0,0.0,0.0,0.0,0.0,0.0,0.0,0.0,0.0,0.0,0.0,0.0,0.0,0.0,0.0,0.0,0.0,0.0,0.7261,0.7456,0.711,0.0,0.0,0.0,0.0,0.0,0.0,0.0,0.0,0.0,0.0,1.5942,1.6412,1.7019,0.0,0.0,1.7274,1.7411,1.7378,1.7339,1.7084,1.6415,1.546,0.0,0.0,0.0,0.0,0.0,0.0,0.0,0.0,0.0,0.0,0.0,0.0,0.0,0.0,0.0,0.0,0.0,0.0,0.0,0.0,0.0,0.0,0.0,0.0,0.0,0.0,0.0,0.0,0.0,0.0,0.0,0.0,0.0,0.0,0.0,0.0,0.0,0.0,0.0,0.0,0.0,0.0,0.0,0.0,0.0,0.0,0.0,0.0,0.0,0.0,0.0,0.0,1.3835,1.5281,1.6763,1.7486,1.7486,1.7486,1.7486,1.7476,1.6995,1.6293,0.0,0.0,0.0,0.0,0.0,0.0,0.0,0.0,0.0,0.0,0.0,0.0,0.0,0.0,0.0,0.0,0.0,0.0,0.0,0.0,0.0,0.0,0.0,0.0,0.0,0.0,0.0,0.0,0.8174,0.8222,0.7995,0.0,0.0,0.0,0.0,0.0,0.0,0.0,0.0,0.0,0.0,1.7008,1.7493,1.8048,1.8412,1.8381,1.8402,1.8409,1.8384,1.7989,1.7506,1.7037,0.0,0.0,0.0,0.0,0.0,0.0,0.0,0.0,0.0,0.0,0.0,0.0,0.0,0.0,0.0,0.0,0.0,0.0,0.0,0.0,0.0,0.0,0.0,0.0,0.0,0.0,0.0,1.0527,0.0,0.0,0.9256,0.0,0.0,0.0,0.0,0.0,0.0,0.0,0.0,0.0,0.0,0.0,0.0,0.0,0.0,0.0,0.0,0.0,0.0,0.0,0.0,0.0,0.0,1.3835,1.5292,1.6746,1.7486,1.7486,1.7486,1.7486,1.7486,1.747,1.6785,1.5331,0.0,0.0,0.0,0.0,0.0,0.0,0.0,0.0,0.0,0.0,0.0,0.0,0.0,0.0,0.0,0.0,0.0,0.0,0.0,0.0,0.0,0.0,0.0,0.0,0.0,0.0,0.9241,0.8687,0.857,0.0,0.0,0.0,0.0,0.0,0.0,0.0,0.0,0.0,0.0,1.6964,1.83,1.8952,1.9506,1.9839,1.9907,1.9874,1.9717,1.9298,1.8813,1.8283,0.0,0.0,0.0,0.0,0.0,0.0,0.0,0.0,0.0,0.0,0.0,0.0,0.0,0.0,0.0,0.0,0.0,0.0,0.0,0.0,0.0,0.0,0.0,0.0,0.0,0.0,0.0,1.293,1.2858,0.0,0.0,0.0,0.0,0.0,0.0,0.0,0.0,0.0,0.0,0.0,1.7247,1.7455,0.0,0.0,0.0,0.0,0.0,0.0,0.0,0.0,0.0,0.0,0.0,0.0,1.4316,1.5309,1.6768,1.7486,1.7486,1.7486,1.7486,1.7486,1.7486,1.6812,1.5352,0.0,0.0,0.0,0.0,0.0,0.0,0.0,0.0,0.0,0.0,0.0,0.0,0.0,0.0,0.0,0.0,0.0,0.0,0.0,0.0,0.0,0.0,0.0,0.0,0.0,0.9903,0.0,0.0,0.0,0.0,0.0,0.0,0.0,0.0,0.0,0.0,0.0,1.6325,1.7357,1.8741,1.9712,1.9943,2.012,2.0246,0.0,0.0,0.0,0.0,0.0,0.0,0.0,0.0,0.0,0.0,0.0,0.0,0.0,0.0,2.0154,1.8246,1.7047,1.63,1.623,0.0,0.0,0.0,0.0,0.0,0.0,0.0,0.0,0.0,0.0,0.0,0.0,0.0,0.0,1.5309,0.0,1.4481,0.0,0.0,0.0,0.0,0.0,0.0,0.0,0.0,1.9427,1.9618,1.9344,1.9331,1.9308,0.0,1.9353,1.8218,0.0,0.0,0.0,0.0,0.0,0.0,0.0,0.0,1.5016,1.5732,1.6925,1.7529,1.7529,1.7522,1.7488,1.7488,1.7249,1.6663,1.5707,1.4519,1.3752,0.0,0.0,0.0,0.0,0.0,0.0,0.0,0.0,0.0,0.0,0.0,0.0,0.0,0.0,0.0,0.0,0.0,0.0,0.0,0.0,0.0,0.0,0.0,1.0751,0.0,0.0,0.0,0.0,0.0,0.0,0.0,0.0,0.0,1.6784,1.7155,1.7702,1.868,1.9922,2.0706,2.0706,0.0,0.0,0.0,0.0,0.0,0.0,0.0,1.9157,1.9168,2.0579,2.1291,2.007,2.0833,2.1804,2.2271,0.0,0.0,2.092,1.9475,1.8666,1.8865,1.8264,1.7842,1.8207,1.8639,1.9036,0.0,0.0,0.0,0.0,0.0,0.0,0.0,0.0,1.8083,1.7748,0.0,1.6915,0.0,0.0,0.0,0.0,1.7673,1.8512,0.0,0.0,2.2018,2.2005,2.1294,2.1276,2.1204,2.1132,2.1684,2.1505,2.0524,1.754,0.0,0.0,0.0,0.0,0.0,0.0,1.5928,1.6612,1.7367,1.7713,1.7718,1.7626,1.7523,1.7495,1.6835,1.6448,1.6403,1.5707,1.5022,1.4284,1.3507,0.0,0.0,0.0,0.0,0.0,0.0,0.0,0.0,0.0,0.0,0.0,0.0,0.0,0.0,0.0,0.0,0.0,0.0,0.0,0.0,1.1322,0.0,0.0,0.0,0.0,0.0,0.0,0.0,0.0,0.0,0.0,1.7473,1.8114,1.8783,1.9428,0.0,0.0,0.0,0.0,2.2927,2.236,2.277,2.2714,2.1566,2.0857,2.047,2.0495,0.0,0.0,2.2637,2.3131,2.3643,2.3684,2.4175,2.4528,2.4346,2.2888,2.1799,2.1765,2.1402,2.1083,2.0889,2.1201,2.174,2.2332,0.0,0.0,0.0,0.0,2.0032,2.0764,2.1274,2.1065,2.0827,2.0634,2.0015,0.0,0.0,0.0,0.0,0.0,0.0,2.1857,2.2881,2.4171,2.4676,2.4456,2.4462,2.4136,2.359,2.3647,2.3023,2.1775,2.0742,1.9544,1.8223,0.0,0.0,0.0,0.0,1.7814,1.8564,1.9287,1.9624,1.9523,1.89,1.8235,1.7533,1.7299,1.7194,1.7183,1.6486,1.5978,1.5751,1.4062,0.0,0.0,0.0,0.0,0.0,0.0,0.0,0.0,0.0,0.0,0.0,0.0,0.0,0.0,0.0,0.0,0.0,0.0,0.0,1.1344,1.2228,1.2657,0.0,0.0,0.0,0.0,0.0,0.0,0.0,0.0,0.0,2.0014,1.9985,2.0235,0.0,0.0,2.277,2.3232,2.3685,2.3904,2.3708,2.3936,0.0,2.3053,2.2237,2.1913,2.2577,2.3639,2.4303,2.4083,2.4589,2.5068,2.5143,2.56,2.5912,2.5791,2.4569,2.36,2.3799,2.4159,2.4057,2.3018,2.3021,2.3222,2.5255,2.2835,2.2927,2.253,2.1946,2.2637,2.3249,2.3695,2.3701,2.3481,2.3161,2.3029,2.3047,2.3072,2.1419,0.0,0.0,0.0,2.3677,2.4444,2.5366,2.5794,2.5794,2.5794,2.5544,2.5085,2.5004,2.4495,2.3632,2.3537,2.2882,2.158,0.0,0.0,1.9342,1.9239,1.9429,1.9908,2.0332,2.0529,2.0394,1.9514,1.8695,1.8001,1.7665,1.7488,1.7486,1.7078,1.6691,1.6403,1.5414,1.4316,0.0,0.0,0.0,0.0,0.0,0.0,0.0,0.0,0.0,0.0,0.0,0.6581,0.7025,0.0,0.0,0.0,1.0451,1.1403,1.2764,1.3657,0.0,0.0,0.0,0.0,0.0,0.0,0.0,1.7337,1.9284,2.0881,2.1685,2.1911,2.2253,2.2867,2.3277,2.3655,2.4112,0.0,2.459,2.4412,2.4645,2.4651,2.4048,2.3487,2.3503,2.4688,2.4876,2.5067,2.5374,2.5784,2.6078,2.6215,2.6424,2.6618,2.6606,2.5803,2.518,2.5292,2.5704,2.5693,2.4765,2.4731,2.4791,2.7281,2.7335,2.6523,2.5646,2.4873,2.5509,2.5836,2.5908,2.5901,2.5693,2.5378,2.5723,2.5616,2.5092,2.4147,0.0,2.4783,2.4861,2.5247,2.5901,2.5955,2.599,2.599,2.6008,2.5955,2.589,2.5901,2.5848,2.577,2.5752,2.5455,2.4742,2.2455,2.1188,2.1005,2.0886,2.0858,2.0934,2.0934,2.0859,2.0709,1.9791,1.9121,1.8714,1.7985,1.7567,1.7515,1.7486,1.7194,1.6547,1.7122,1.626,1.3644,0.0,0.0,0.0,0.0,0.0,0.0,0.0,0.0,0.0,0.0,0.0,0.0,0.0,0.0,0.0,1.2312,0.0,1.4292,1.5437,0.0,0.0,0.0,1.5857,1.6934,1.7623,1.8191,1.8654,0.0,0.0,2.2708,2.3798,2.4506,2.4309,2.4229,2.4265,2.4422,2.4959,2.5153,2.4781,2.5177,2.5309,2.4873,2.4715,2.5108,2.6335,2.6166,2.5928,2.6348,2.66,2.6765,2.6763,2.6792,2.6794,2.6807,2.6708,2.6687,2.627,2.6286,2.6326,2.6174,2.6159,2.6158,2.9976,2.9953,2.9667,2.8002,2.5562,2.5729,2.6157,2.6699,2.6717,2.6996,2.7429,2.6925,2.6318,2.5634,2.5366,2.5348,2.5569,2.6175,2.6556,2.6753,2.7346,2.7625,2.7625,2.7649,2.7304,2.6753,2.6717,2.6407,2.5812,2.5794,2.5723,2.5509,2.4919,2.4035,2.2885,2.2228,2.2235,2.2827,2.2827,2.2446,2.1686,2.124,2.0332,1.8961,1.865,1.8178,1.7525,1.7486,1.7426,1.7254,1.7403,1.7177,1.6475,1.4201,0.0,0.0,0.0,0.0,0.0,0.0,0.0,0.0,0.0,0.9278,0.9905,0.0,1.1058,0.0,1.3749,1.4968,1.5522,1.6704,0.0,0.0,1.7805,1.8369,1.9147,2.0081,2.0645,2.0568,2.2507,2.4028,2.45,2.4921,2.5343,2.5706,2.5379,2.5277,2.5746,2.6023,2.6145,2.6068,2.6262,2.6412,2.6268,2.6252,2.6366,2.6721,2.6636,2.6566,2.6724,2.6752,2.6807,2.6807,2.6807,2.6807,2.6821,2.6807,2.6766,2.6687,2.6674,2.6608,2.6367,2.6313,2.6326,3.1119,3.139,3.097,2.9717,2.7978,2.7919,2.8149,2.8548,2.8548,2.8434,2.8206,2.8452,2.8185,2.7614,2.7792,2.7899,2.7917,2.8352,2.8548,2.8566,2.8659,2.8731,2.8713,2.8374,2.7964,2.7549,2.7531,2.731,2.6876,2.6882,2.6668,2.6354,2.6342,2.5723,2.4563,2.4088,2.3927,2.4028,2.3643,2.3153,2.2541,2.2,2.1053,1.9644,1.9155,1.8488,1.7533,1.7488,1.7488,1.7486,1.7486,1.7486,1.7453,1.5814,1.3884,0.0,0.0,0.0,0.0,0.0,0.0,0.0,0.0,0.0,0.0,0.0,1.391,1.5102,1.5918,1.6636,1.7317,1.8528,1.9344,1.9483,2.0201,2.0882,2.1414,2.2312,2.2778,2.2535,2.3898,2.5144,2.5827,2.6207,2.6542,2.6874,2.6901,2.6744,2.6462,2.6688,2.697,2.7037,2.7378,2.7576,2.7388,2.733,2.7489,2.7823,2.7752,2.7577,2.7388,2.7519,2.7605,2.7402,2.7504,2.7576,2.7373,2.7023,2.6996,2.7708,2.7765,2.7364,2.6683,2.6528,2.654,3.1674,3.2188,3.1506,3.1146,3.103,3.0884,3.0707,3.0478,3.0478,2.9729,2.8588,2.9986,3.0343,2.9925,3.0307,3.0478,3.0478,3.0478,3.0478,3.0443,2.9826,2.9487,2.9369,2.8684,2.8303,2.8189,2.8189,2.8189,2.8189,2.8189,2.7839,2.7181,2.7139,2.68,2.6127,2.6097,2.5634,2.4712,2.3958,2.346,2.3223,2.2482,2.1534,2.0411,1.9652,1.8737,1.7609,1.7524,1.7523,1.7486,1.7486,1.7486,1.7486,1.7366,1.6117,0.0,1.3779,0.0,0.0,0.0,0.0,0.0,0.0,0.0,0.0,1.5217,1.6765,1.8435,1.8394,1.8577,1.9323,2.054,2.1349,2.1568,2.2531,2.3331,2.3666,2.4332,2.4661,2.4358,2.5231,2.6192,2.6932,2.753,2.788,2.7895,2.8244,2.8129,2.7166,2.7342,2.7688,2.7812,2.826,2.8303,2.8115,2.8115,2.839,2.9,2.8825,2.8535,2.8027,2.8332,2.8564,2.8288,2.8419,2.8505,2.8144,2.7519,2.7562,2.8797,2.8956,2.8535,2.7461,2.7129,2.7039,3.3024,3.3154,3.2935,3.2819,3.2807,3.2611,3.1752,3.0496,3.0478,3.0325,3.0129,3.0822,3.085,3.0379,3.045,3.0478,3.0478,3.0478,3.0478,3.0478,3.0361,2.9968,2.9423,2.9237,2.8845,2.8231,2.8189,2.8189,2.8189,2.8189,2.8124,2.7981,2.7964,2.791,2.775,0.0,0.0,0.0,2.454,2.4118,2.3465,2.3177,2.2306,2.0775,2.0402,0.0,1.785,1.7635,1.7547,1.7498,1.7486,0.0,0.0,0.0,0.0,0.0,0.0,0.0,0.0,0.0,0.0,0.0,1.8291,1.8237,1.6939,1.7292,1.8438,2.0393,2.0683,2.0804,2.097,2.2109,2.3004,2.3402,2.4596,2.5458,2.5644,2.6018,2.6081,2.557,2.6661,2.766,2.821,2.86,2.8852,2.8852,2.8873,2.8759,2.8512,2.8461,2.8492,2.8507,2.8448,2.8317,2.852,2.8855,2.8985,2.8884,2.8767,2.855,2.8216,2.8448,2.8854,2.8971,2.8854,2.8723,2.8593,2.8433,2.8448,2.8753,2.9581,2.9842,2.8608,2.8332,2.8332,3.3393,3.3386,3.3367,3.3322,0.0,3.3175,3.2627,3.1735,3.1686,3.1982,3.2481,3.2757,3.2739,3.2464,3.2323,3.2269,3.2287,3.2269,3.2287,3.2234,3.1457,3.0903,3.0529,3.0136,2.9736,2.9326,2.898,2.8791,2.8773,2.841,2.8189,2.8189,2.8189,2.8189,2.8189,2.8189,2.7411,2.5854,2.5105,2.4498,2.4094,2.3596,2.2746,2.15,2.1255,0.0,0.0,0.0,0.0,0.0,0.0,0.0,0.0,0.0,0.0,1.7854,1.736,1.6891,1.6575,1.7844,1.8968,1.965,2.1034,2.1295,1.9916,1.8989,1.9409,2.1676,2.2547,2.296,2.293,2.374,2.4542,2.5216,2.6317,2.7029,2.7084,2.7543,2.7895,2.7913,2.8328,2.899,3.0014,3.0181,3.016,3.0056,3.0116,3.0111,2.9912,2.9463,2.9232,2.9566,2.9464,2.9377,2.961,2.9784,2.9886,2.9682,2.9639,2.9522,2.9319,2.9464,2.9726,2.99,2.9769,2.9639,2.9639,2.9639,2.9624,2.9682,3.0147,3.0423,2.9711,2.9145,2.8694,3.3665,3.3628,3.3755,3.379,3.374,3.3733,3.3615,3.3407,0.0,0.0,0.0,3.4346,3.4364,3.4203,3.3972,3.3964,3.4089,3.4089,3.4089,3.4035,3.2741,3.1982,3.1678,3.1028,3.0628,3.0486,2.9879,2.9522,2.938,2.8738,2.832,2.8213,2.8189,2.8189,2.8189,2.8189,2.7881,2.7199,2.5825,2.4962,2.4694,2.3993,2.3152,2.2162,2.1931,2.1298,2.0208,2.0012,1.9818,1.9588,1.8574,1.8365,1.9121,1.9518,1.9467,1.8948,1.9393,1.9395,1.8755,2.0044,2.1163,2.1811,2.2985,2.3265,2.2264,2.0678,2.0639,2.2908,2.433,2.506,2.4849,2.5354,2.6021,2.6787,2.7737,2.8318,2.8413,2.89,2.9501,3.006,2.9965,3.0225,3.1316,3.157,3.1589,3.141,3.1385,3.1437,3.1028,3.028,2.9943,3.0365,3.0394,3.0525,3.0583,3.0539,3.0612,3.051,3.0539,3.0612,3.0612,3.0612,3.0612,3.0525,3.0598,3.0569,3.0583,3.051,3.0612,3.0612,3.0612,3.0612,3.0525,2.9784,2.9116,3.4632,3.449,3.517,3.546,3.5436,3.5371,3.5251,3.5008,3.4273,3.3642,3.3176,3.3856,3.3766,3.3114,3.3096,3.3437,3.4071,3.4089,3.4089,3.4089,3.3875,3.3027,3.1706,3.1589,3.1171,3.0521,3.0396,3.0022,2.9451,2.928,2.888,2.8285,2.8189,2.8189,2.8189,2.8189,2.8135,2.8017,2.7139,2.6032,2.473,2.4593,2.3808,2.2365,2.2094,2.1464,2.0406,2.0139,1.985,1.9621,1.985,2.0062,2.0178,2.0169,2.0066,2.0029,2.0695,2.106,2.0947,2.2264,2.3334,2.3973,2.4257,2.3855,2.267,2.2755,2.3465,2.4887,2.6332,2.7013,2.6527,2.6945,2.7471,2.7908,2.8638,2.9396,3.0061,3.019,3.0446,3.1002,3.1306,3.1306,3.1441,3.2084,3.2627,3.2598,3.2221,3.168,3.1248,3.0733,3.051,3.0583,3.0612,3.0612,3.0612,3.0612,3.0612,3.0612,3.0612,3.0613,3.0612,3.0627,3.0627,3.0612,3.0612,3.0612,3.0612,3.0612,3.0612,3.0612,3.0612,3.0612,3.0612,3.0365,3.0249,3.5617,3.574,3.5872,3.5916,3.5908,3.5846,3.575,3.568,3.5689,3.5092,3.4177,3.4115,3.3893,3.3552,3.3544,3.3758,3.4125,3.4517,3.4481,3.4107,3.4089,3.3465,3.2382,3.191,3.1724,3.1732,3.0903,3.0564,3.059,2.9826,2.9201,2.882,2.8427,2.8189,2.8189,2.8189,2.8189,2.8178,2.7413,2.6646,2.5961,2.5122,2.4355,2.3594,2.2982,2.2303,2.1674,2.139,2.1089,2.0818,2.1033,2.1149,2.1159,2.1617,2.1796,2.1652,2.2332,2.2712,2.2614,2.349,2.4346,2.5049,2.547,2.5273,2.4304,2.4488,2.5095,2.6212,2.7846,2.8613,2.7929,2.8125,2.8636,2.9563,2.9966,3.0477,3.1178,3.1311,3.1526,3.2095,3.2396,3.2558,3.271,3.3185,3.352,3.3539,3.2897,3.2258,3.1838,3.1509,3.1146,3.0806,3.0643,3.0612,3.0612,3.0612,3.0612,3.0612,3.0672,3.0672,3.0642,3.0672,3.0717,3.0642,3.0612,3.0612,3.0612,3.0612,3.0612,3.0612,3.0612,3.0612,3.0612,3.0612,3.0612,3.6769,3.6796,3.6728,3.6677,3.667,3.6618,3.658,3.6631,3.6997,3.6602,3.5652,3.4793,3.4218,3.3864,3.3838,3.4008,3.4401,3.4945,3.4892,3.4392,3.4357,3.3847,3.2918,3.2232,3.2311,3.2721,3.1625,3.1189,3.126,3.0218,2.9451,2.9112,2.8499,2.8189,2.8189,2.8189,2.8189,2.8153,2.7578,2.7181,2.6973,2.5825,2.5129,2.4908,2.41,2.3477,2.3197,2.2937,2.2639,2.2325,2.2302,2.231,2.2327,2.3022,2.3346,2.3175,2.3737,2.4131,2.4107,2.4498,2.5086,2.5785,2.6361,2.6571,2.6286,2.6131,2.6523,2.7618,2.8989,2.9621,2.9135,2.9049,2.9561,3.0742,3.092,3.1237,3.2077,3.2255,3.253,3.319,3.3319,3.3522,3.3955,3.4088,3.4025,3.3822,3.3337,3.2832,3.2533,3.2244,3.1824,3.1367,3.0909,3.0627,3.0612,3.0612,3.0612,3.0612,3.0702,3.0717,3.0672,3.0777,3.0851,3.0702,3.0627,3.0612,3.0612,3.0612,3.0612,3.0612,3.0612,3.0612,3.0612,3.0612,3.0612,3.8311,3.7491,3.828,3.8734,3.8653,3.8665,3.8611,3.8487,3.794,3.7487,3.7025,3.5907,3.4525,3.322,3.3102,3.3802,3.4999,3.5159,3.5141,3.5044,3.5088,3.4329,3.2989,3.2793,3.2829,3.289,3.265,3.1839,3.0771,3.0457,2.9683,2.8463,2.8231,2.8189,2.8189,2.8189,2.8189,2.8189,2.8124,2.7739,2.7045,2.686,2.6431,2.5723,2.5365,2.5048,2.4604,2.4429,2.4134,2.3825,2.3744,2.3768,2.3785,2.3893,2.3934,2.3901,2.4463,2.5008,2.5419,2.557,2.5872,2.65,2.6701,2.7128,2.7927,2.7727,2.8109,2.9248,2.9751,2.9843,2.9826,2.9783,3.0128,3.0856,3.1034,3.1422,3.2692,3.2995,3.3255,3.3951,3.3922,3.402,3.4072,3.4088,3.3962,3.3707,3.3487,3.3195,3.2926,3.2804,3.2686,3.2442,3.1619,3.0863,3.0788,3.0627,3.0759,3.07,3.0732,3.0806,3.0836,3.0925,3.0895,3.1014,3.0702,3.0613,3.0612,3.0612,3.0612,3.0642,3.0627,3.0612,3.0612,3.0612,3.0612,3.9336,3.8851,3.908,3.9175,3.9193,3.9175,3.9161,3.9097,3.8787,3.8263,3.7541,3.6439,3.5154,3.3885,3.3725,3.4004,3.4579,3.4999,3.4937,3.4571,3.4553,3.3955,3.2953,3.24,3.2418,3.2811,3.2436,3.1857,3.1161,3.0315,2.9291,2.8313,2.8189,2.8189,2.8189,2.8189,2.8189,2.8189,2.8189,2.8035,2.7703,2.7199,2.6768,2.6364,2.5678,2.5135,2.4805,2.4569,2.4306,2.4025,2.3992,2.3992,2.3992,2.4414,2.4646,2.4696,2.5214,2.5634,2.5802,2.6136,2.6467,2.6694,2.7488,2.8109,2.838,2.8757,2.927,2.9751,2.9907,2.9907,2.9945,3.0242,3.0781,3.145,3.1919,3.2595,3.355,3.368,3.3825,3.4068,3.4088,3.4088,3.4088,3.4088,3.4025,3.3873,3.3813,3.3713,3.3591,3.3752,3.3851,3.373,3.3329,3.284,3.2211,3.1836,3.166,3.1469,3.1368,3.1321,3.1495,3.1823,3.1921,3.1508,3.0955,3.0628,3.0612,3.0687,3.0717,3.0732,3.0732,3.0717,3.0702,3.0657,3.0627,3.9895,3.9843,3.9581,3.9446,3.9464,3.9471,3.9464,3.9464,3.9464,3.8995,3.8201,3.7149,3.6161,3.5219,3.4539,3.4368,3.474,3.507,3.491,3.441,3.4214,3.3677,3.29,3.2321,3.2329,3.2739,3.2347,3.1821,3.1268,2.9815,2.8773,2.8267,2.8189,2.8189,2.8189,2.8189,2.8189,2.8189,2.8189,2.8189,2.811,2.7543,2.7146,2.6971,2.6218,2.5592,2.5255,2.5037,2.4845,2.4605,2.4605,2.4605,2.4613,2.5118,2.5491,2.5706,2.6099,2.6413,2.6463,2.6885,2.7169,2.7336,2.8266,2.8816,2.8935,2.948,2.9875,2.9929,3.022,3.0469,3.0258,3.0797,3.1514,3.221,3.2817,3.3368,3.3971,3.4088,3.4072,3.4088,3.4088,3.4088,3.4088,3.4088,3.4153,3.4367,3.4412,3.4538,3.4674,3.4948,3.5062,3.4949,3.5145,3.471,3.3683,3.3216,3.2901,3.2497,3.2295,3.2308,3.2308,3.2602,3.2573,3.1722,3.1102,3.0687,3.0642,3.0702,3.0895,3.0925,3.0969,3.0955,3.0866,3.0747,3.0642,3.9895,3.9876,3.9859,3.9832,3.9873,3.9843,3.9867,3.982,3.9837,3.968,3.9233,3.8236,3.753,3.689,3.5167,3.4994,3.6033,3.5498,3.5177,3.4999,3.4357,3.3651,3.2944,3.2872,3.2854,3.2908,3.2801,3.2017,3.0593,2.9105,2.8224,2.8231,2.826,2.8224,2.826,2.8224,2.8189,2.8189,2.8189,2.8189,2.8175,2.8017,2.7801,2.7593,2.7278,2.6838,2.6564,2.6387,2.6206,2.6078,2.5987,2.6029,2.6062,2.6103,2.6452,2.7024,2.7216,2.7411,2.7745,2.7892,2.8113,2.8567,2.8735,2.9102,2.9621,2.9815,2.9913,2.994,3.1068,3.1498,3.1098,3.1563,3.2222,3.2854,3.3076,3.3465,3.402,3.4088,3.4088,3.4088,3.4088,3.4088,3.4088,3.4088,3.4453,3.4891,3.5117,3.5344,3.5836,3.5972,3.6089,3.6288,3.6285,3.5919,3.4788,3.4372,3.4049,3.3725,3.3555,3.3451,3.301,3.2668,3.2396,3.195,3.1204,3.0777,3.0687,3.0791,3.1029,3.119,3.1335,3.1335,3.1073,3.0791,3.0657,3.8939,3.9895,3.9895,3.9895,3.9895,3.9895,3.9895,3.9895,3.9895,3.9775,3.9394,3.842,3.7998,3.8013,3.6548,3.6053,3.6319,3.557,3.5195,3.5052,3.3927,3.3178,3.2936,3.2908,3.2908,3.2908,3.289,3.2071,3.0611,2.9915,2.9433,2.9023,2.8945,2.8962,2.8891,2.8438,2.8189,2.8189,2.8189,2.8189,2.8182,2.8053,2.7893,2.7683,2.7367,2.703,2.6649,2.6537,2.6381,2.6203,2.6194,2.6194,2.6227,2.6651,2.7017,2.7298,2.7746,2.7998,2.8066,2.8459,2.8721,2.8816,2.9248,2.9589,2.9843,2.9913,3.0058,3.0619,3.1385,3.1951,3.2324,3.2562,3.2817,3.3076,3.3485,3.3809,3.402,3.4088,3.4088,3.4088,3.4088,3.4088,3.423,3.4489,3.4891,3.5166,3.5603,3.6011,3.6273,3.6573,3.6895,3.7083,3.74,3.7539,3.7174,3.5986,3.529,3.51,3.4921,3.4818,3.4502,3.3791,3.3444,3.2956,3.1998,3.1235,3.1249,3.1407,3.158,3.1695,3.1837,3.1581,3.1263,3.0896,3.0702,3.885,3.98,3.9895,3.9895,3.9895,3.9895,3.9895,3.9895,3.9895,3.9792,3.9517,3.8808,3.8583,3.8559,3.7709,3.7146,3.6816,3.6005,3.5463,3.5106,3.3865,3.315,3.2944,3.2908,3.2908,3.2836,3.2614,3.191,3.0967,3.0611,3.0229,2.9779,2.9558,2.9387,2.9255,2.8599,2.8189,2.8189,2.8189,2.8189,2.8182,2.8074,2.794,2.7723,2.7446,2.7086,2.6649,2.6537,2.6381,2.6254,2.6419,2.6667,2.6941,2.7381,2.7763,2.7995,2.8449,2.8732,2.8761,2.919,2.9374,2.9189,2.9599,2.9961,3.0145,3.0026,3.0344,3.1142,3.2146,3.2886,3.3044,3.3271,3.3404,3.3465,3.3854,3.4088,3.4088,3.4088,3.4088,3.4088,3.4088,3.4214,3.4522,3.491,3.5377,3.5765,3.6335,3.6645,3.6999,3.7325,3.7649,3.7681,3.8009,3.8222,3.8026,3.7211,3.6521,3.6296,3.611,3.6053,3.5783,3.5057,3.4407,3.3879,3.3135,3.2258,3.1931,3.2093,3.2233,3.2361,3.2132,3.1893,3.1451,3.094,3.0849,3.9862,3.9895,3.9895,3.9895,3.9895,3.9895,3.9895,3.9895,3.9895,3.982,3.9669,3.95,3.9211,3.8937,3.8384,3.8119,3.7705,3.6835,3.6006,3.5284,3.441,3.3659,3.3017,3.2918,3.2908,3.2872,3.2142,3.176,3.1571,3.1046,3.0682,3.0414,2.9904,2.9708,2.9476,2.8873,2.8356,2.841,2.8463,2.8367,2.8217,2.8329,2.8213,2.7924,2.7754,2.7417,2.6835,2.6555,2.6372,2.6354,2.6901,2.7623,2.8111,2.8359,2.8664,2.9135,2.9373,2.9652,3.0035,3.0085,3.0005,2.9854,2.9907,3.0231,3.0576,3.0388,3.0631,3.1898,3.3097,3.3793,3.3368,3.3663,3.4003,3.4084,3.4072,3.4088,3.4088,3.4088,3.4088,3.4101,3.4165,3.4525,3.5156,3.5496,3.5898,3.6759,3.7228,3.7487,3.7938,3.8151,3.8327,3.8327,3.8329,3.8375,3.8391,3.8315,3.785,3.7466,3.727,3.7107,3.6869,3.6295,3.5743,3.5173,3.4326,3.3473,3.3177,3.332,3.3267,3.3279,3.28,3.2481,3.2133,3.1768,3.1216,3.9895,3.9895,3.9895,3.9895,3.9895,3.9895,3.9895,3.9895,3.9895,3.9862,3.9745,3.9629,3.9389,3.9082,3.8643,3.829,3.8024,3.7461,3.68,3.5935,3.4731,3.3982,3.3651,3.316,3.2908,3.2864,3.265,3.2232,3.1857,3.199,3.191,3.1367,3.1089,3.0975,3.0875,3.0208,2.9808,2.9783,2.979,2.9783,2.9765,2.9743,2.9482,2.8991,2.911,2.8809,2.7833,2.6987,2.6702,2.6943,2.7175,2.763,2.8326,2.8847,2.9185,2.9423,2.9893,3.0125,3.0193,3.0205,3.0119,3.0043,3.0312,3.064,3.092,3.1186,3.1704,3.2676,3.3582,3.3971,3.3874,3.3955,3.4101,3.4088,3.4088,3.4101,3.4165,3.412,3.4088,3.4165,3.4534,3.5182,3.593,3.627,3.6726,3.7244,3.7714,3.8151,3.8327,3.8391,3.8391,3.8391,3.8391,3.8391,3.8391,3.8391,3.8183,3.794,3.7876,3.7795,3.7614,3.7441,3.6915,3.6228,3.5393,3.486,3.4573,3.4471,3.4415,3.4347,3.4132,3.3737,3.3258,3.2691,3.2075,3.9895,3.9895,3.9895,3.9895,3.9895,3.9895,3.9895,3.9895,3.9895,3.9865,3.982,3.9753,3.9557,3.9265,3.8811,3.8465,3.8176,3.7783,3.7336,3.6729,3.5578,3.4696,3.4097,3.3285,3.2908,3.2908,3.289,3.2632,3.2214,3.2596,3.2632,3.2204,3.1857,3.1678,3.1617,3.0921,3.0478,3.0478,3.046,3.0478,3.0496,3.0466,3.0223,2.9818,2.9869,2.948,2.8638,2.7826,2.7499,2.7703,2.7853,2.835,2.9112,2.9589,2.9794,2.9893,3.0181,3.0405,3.0221,3.0216,3.0255,3.0346,3.0657,3.1207,3.1595,3.2146,3.2595,3.3388,3.3858,3.4088,3.4072,3.4088,3.4088,3.4088,3.4088,3.4214,3.4421,3.4518,3.4343,3.4437,3.4972,3.5946,3.6886,3.705,3.7455,3.7681,3.81,3.8391,3.8391,3.8391,3.8391,3.8391,3.8391,3.8391,3.8391,3.8391,3.8391,3.8329,3.828,3.8215,3.8116,3.8068,3.7747,3.6925,3.6087,3.5705,3.5427,3.5536,3.555,3.5487,3.529,3.4624,3.4005,3.3397,3.2834,3.9895,3.9895,3.9895,3.9895,3.9895,3.9895,3.9895,3.9895,3.9895,3.9895,3.9889,3.9873,3.9735,3.9414,3.8978,3.8624,3.8332,3.7827,3.7595,3.7327,3.664,3.565,3.4151,3.341,3.3061,3.29,3.2908,3.2872,3.2775,3.2854,3.2908,3.2747,3.2186,3.1803,3.1768,3.1021,3.0807,3.0878,3.0789,3.0789,3.0781,3.0681,3.0493,3.0364,3.0159,2.9825,2.9261,2.8961,2.8724,2.8564,2.8887,2.9489,3.0241,3.0489,3.0423,3.0406,3.0472,3.0401,3.0253,3.0347,3.0473,3.076,3.1098,3.1551,3.2659,3.2858,3.3165,3.389,3.4056,3.4088,3.4088,3.4088,3.4104,3.4182,3.4279,3.4538,3.5069,3.5198,3.5053,3.4764,3.5525,3.6807,3.7987,3.773,3.7811,3.8102,3.8343,3.8391,3.8391,3.8391,3.8391,3.8391,3.8391,3.8391,3.8391,3.8391,3.8391,3.8391,3.8391,3.8391,3.8391,3.8375,3.8359,3.7547,3.6959,3.6594,3.6494,3.665,3.66,3.6414,3.598,3.5293,3.4806,3.4364,3.3824,3.9895,3.9895,3.9895,3.9895,3.9895,3.9895,3.9895,3.9895,3.9876,3.9824,3.9876,3.9895,3.9715,3.9464,3.9001,3.8662,3.8324,3.7854,3.7595,3.7568,3.7425,3.6042,3.4454,3.3893,3.3437,3.2989,3.2908,3.2908,3.2908,3.2908,3.2908,3.2908,3.2686,3.2553,3.2517,3.2285,3.2293,3.2285,3.2249,3.2214,3.2172,3.2038,3.1619,3.0972,3.1098,3.0708,2.9942,2.9981,2.9729,2.9261,2.9787,3.0208,3.0472,3.0489,3.0489,3.0489,3.0479,3.0411,3.0368,3.0691,3.0963,3.1003,3.1854,3.2659,3.3028,3.3501,3.3809,3.4088,3.4088,3.4088,3.4088,3.4133,3.4343,3.4826,3.4923,3.5069,3.5312,3.5701,3.5914,3.5866,3.6532,3.7406,3.8035,3.8246,3.8149,3.8327,3.8391,3.8391,3.8391,3.8391,3.8391,3.8391,3.8391,3.8391,3.8391,3.8391,3.8391,3.8391,3.8391,3.8391,3.8391,3.8391,3.8359,3.8056,3.7801,3.7443,3.7667,3.788,3.7669,3.7249,3.7089,3.662,3.6191,3.5737,3.5097,3.9895,3.9895,3.9895,3.9895,3.9895,3.9895,3.9895,3.9824,3.9526,3.938,3.9399,3.9394,3.9248,3.8989,3.888,3.8685,3.8366,3.7889,3.764,3.7595,3.7577,3.6444,3.491,3.4303,3.3687,3.2971,3.2908,3.2908,3.2908,3.2908,3.2908,3.2908,3.2908,3.2908,3.2864,3.2908,3.2908,3.2872,3.2908,3.2908,3.2892,3.2681,3.2209,3.1602,3.1623,3.1189,3.0454,3.0434,3.0274,3.0026,3.0257,3.0489,3.0489,3.0489,3.0489,3.0489,3.0489,3.0521,3.0729,3.1101,3.1452,3.1843,3.2736,3.3157,3.3498,3.3906,3.4088,3.4088,3.4088,3.4088,3.4149,3.4356,3.4729,3.515,3.5717,3.6041,3.606,3.6497,3.6856,3.7147,3.7519,3.7876,3.8375,3.8391,3.8391,3.8391,3.8391,3.8391,3.8391,3.8391,3.8391,3.8391,3.8391,3.8391,3.8391,3.8391,3.8391,3.8391,3.8391,3.8391,3.8391,3.8391,3.8375,3.8359,3.8391,3.8391,3.8391,3.8391,3.822,3.7961,3.8017,3.7727,3.7148,3.6477,3.5928,3.9895,3.9895,3.9895,3.9895,3.9895,3.9895,3.9895,3.9748,3.912,3.886,3.8912,3.8784,3.8763,3.8451,3.8852,3.873,3.839,3.7915,3.7685,3.7613,3.7488,3.6676,3.5177,3.4588,3.3812,3.3043,3.2908,3.2908,3.2908,3.2908,3.2908,3.2908,3.2908,3.2908,3.2908,3.2908,3.2908,3.2908,3.2908,3.2908,3.2834,3.2623,3.223,3.1863,3.1395,3.113,3.07,3.0558,3.0456,3.0472,3.0489,3.0489,3.0489,3.0489,3.0489,3.0555,3.0644,3.0873,3.1227,3.1466,3.197,3.2784,3.3076,3.342,3.389,3.4056,3.4088,3.4088,3.4088,3.4165,3.4376,3.4826,3.5263,3.5668,3.6613,3.718,3.7406,3.7422,3.7681,3.8262,3.8359,3.8391,3.8391,3.8391,3.8391,3.8391,3.8391,3.8391,3.8391,3.8391,3.8391,3.8391,3.8391,3.8391,3.8391,3.8391,3.8391,3.8391,3.8391,3.8391,3.8391,3.8391,3.8391,3.8391,3.8391,3.8391,3.8391,3.8391,3.8391,3.8363,3.8221,3.7932,3.752,3.683,3.6227,3.9895,3.9895,3.9895,3.9895,3.9895,3.9895,3.9895,3.9824,3.9044,3.9007,3.9356,3.8969,3.8895,3.917,3.8958,3.8733,3.842,3.7948,3.7658,3.7604,3.7595,3.6676,3.5463,3.4945,3.4187,3.3221,3.2908,3.2908,3.2908,3.2908,3.2908,3.2908,3.2908,3.2908,3.2908,3.2908,3.2908,3.2908,3.29,3.2874,3.2802,3.2522,3.2153,3.1732,3.112,3.0699,3.0582,3.0499,3.0489,3.0489,3.0489,3.0489,3.0489,3.0489,3.0489,3.0621,3.1058,3.1319,3.1489,3.2225,3.2933,3.3129,3.3566,3.3939,3.4023,3.4088,3.4088,3.4088,3.4088,3.4327,3.4826,3.5069,3.5733,3.6529,3.7082,3.7584,3.8003,3.8135,3.8213,3.8327,3.8391,3.8391,3.8391,3.8391,3.8391,3.8391,3.8391,3.8391,3.8391,3.8391,3.8391,3.8391,3.8391,3.8391,3.8391,3.8391,3.8391,3.8391,3.8391,3.8391,3.8391,3.8391,3.8391,3.8391,3.8391,3.8391,3.8391,3.8391,3.8391,3.8391,3.8363,3.8062,3.7653,3.7057,3.6569,3.9895,3.9895,3.9895,3.9895,3.9895,3.9895,3.9895,3.973,3.9044,3.8931,3.9191,3.8855,3.882,3.8958,3.8929,3.8785,3.8426,3.793,3.7462,3.7274,3.7327,3.6711,3.548,3.5052,3.4427,3.3096,3.2908,3.2908,3.2908,3.2908,3.2908,3.2908,3.2908,3.2908,3.2908,3.2908,3.2908,3.2892,3.2852,3.282,3.2705,3.2404,3.1903,3.1403,3.0828,3.0489,3.0489,3.0489,3.0489,3.0489,3.0489,3.0489,3.0489,3.0489,3.0489,3.0621,3.1184,3.1671,3.2009,3.2733,3.3423,3.3558,3.3935,3.402,3.4088,3.4088,3.4088,3.4088,3.4165,3.4405,3.5134,3.5963,3.661,3.7096,3.7617,3.7973,3.828,3.8391,3.8391,3.8391,3.8391,3.8391,3.8391,3.8391,3.8391,3.8391,3.8391,3.8391,3.8391,3.8391,3.8391,3.8391,3.8391,3.8391,3.8391,3.8391,3.8391,3.8391,3.8391,3.8391,3.8391,3.8391,3.8391,3.8391,3.8391,3.8391,3.8391,3.8391,3.8391,3.8391,3.8321,3.8119,3.7844,3.7372,3.6967,3.9824,3.9735,3.9838,3.9895,3.9895,3.9895,3.9895,3.9786,3.9044,3.8836,3.885,3.8769,3.8654,3.8633,3.883,3.8744,3.8364,3.8,3.7452,3.705,3.7149,3.6461,3.5409,3.4892,3.4258,3.3007,3.2908,3.2908,3.2908,3.2908,3.2908,3.2908,3.2908,3.2908,3.2908,3.2908,3.2908,3.2892,3.2796,3.2681,3.2513,3.2214,3.171,3.1114,3.0722,3.0499,3.0489,3.0489,3.0489,3.0489,3.0489,3.0489,3.0489,3.0489,3.0489,3.0539,3.1344,3.1918,3.2326,3.3048,3.3782,3.4109,3.4088,3.4088,3.4088,3.4088,3.4088,3.4165,3.4291,3.4732,3.5458,3.64,3.7147,3.7568,3.8084,3.8343,3.8391,3.8391,3.8391,3.8391,3.8391,3.8391,3.8391,3.8391,3.8391,3.8391,3.8391,3.8391,3.8391,3.8391,3.8391,3.8391,3.8391,3.8391,3.8391,3.8456,3.8456,3.8537,3.8505,3.8489,3.8472,3.8391,3.8391,3.8391,3.8391,3.8391,3.8391,3.8391,3.8391,3.8391,3.8335,3.8235,3.799,3.7683,3.7328,3.9508,3.895,3.9621,3.9895,3.9895,3.9895,3.9895,3.9767,3.9082,3.9115,3.9535,3.8898,3.8874,3.9071,3.8894,3.8525,3.803,3.78,3.7587,3.7113,3.6899,3.6078,3.5195,3.4588,3.3812,3.315,3.2908,3.2908,3.2908,3.2908,3.2908,3.2908,3.2908,3.2908,3.2908,3.2908,3.2908,3.2876,3.2721,3.2538,3.2309,3.1957,3.153,3.0952,3.064,3.051,3.0489,3.0489,3.0489,3.0489,3.0489,3.0489,3.0489,3.0489,3.0489,3.0754,3.1708,3.237,3.2462,3.3535,3.4084,3.4159,3.4088,3.4088,3.4088,3.412,3.4198,3.4441,3.4874,3.5555,3.6823,3.7228,3.7584,3.8005,3.8248,3.8391,3.8391,3.8391,3.8391,3.8391,3.8391,3.8391,3.8391,3.8391,3.8391,3.8391,3.8391,3.8391,3.8391,3.8391,3.8391,3.8391,3.8391,3.8391,3.8391,3.8489,3.8553,3.8748,3.8764,3.8715,3.8651,3.8456,3.8408,3.8651,3.8553,3.8391,3.8391,3.8408,3.8391,3.8391,3.8363,3.8335,3.8134,3.7903,3.7625,3.866,3.8779,3.9564,3.9895,3.9895,3.9895,3.9895,3.9843,3.9508,3.9545,3.9642,3.9305,3.9089,3.9152,3.8887,3.8211,3.7602,3.7711,3.7291,3.6612,3.6354,3.5712,3.4767,3.4232,3.3633,3.3096,3.2908,3.2908,3.2908,3.2908,3.2908,3.2908,3.2908,3.2908,3.2908,3.2908,3.2908,3.286,3.2681,3.2421,3.21,3.1637,3.1134,3.0855,3.0603,3.0499,3.0489,3.0489,3.0489,3.0489,3.0489,3.0489,3.0489,3.0489,3.0506,3.0787,3.1885,3.2579,3.2577,3.3617,3.4309,3.4122,3.4088,3.4088,3.4088,3.4149,3.4424,3.5202,3.5833,3.6529,3.7196,3.763,3.8035,3.8264,3.8391,3.8391,3.8391,3.8391,3.8391,3.8391,3.8391,3.8391,3.8391,3.8391,3.8391,3.8391,3.8391,3.8391,3.8391,3.8406,3.842,3.8406,3.8406,3.8391,3.8667,3.9153,3.9185,3.9266,3.9232,3.9169,3.9232,3.9215,3.9199,3.928,3.9007,3.8728,3.8424,3.844,3.8424,3.844,3.8507,3.8511,3.8357,3.8135,3.8019,3.7699,3.8514,3.9323,3.9767,3.9881,3.9895,3.9895,3.9895,3.9876,3.9857,3.9843,3.9562,3.9209,3.892,3.8542,3.7956,3.7032,3.7434,3.6745,3.6013,3.5693,3.5141,3.441,3.3847,3.3473,3.2989,3.2908,3.2908,3.2908,3.2908,3.2908,3.2908,3.2908,3.2908,3.2908,3.2908,3.2908,3.282,3.2607,3.2292,3.1777,3.1198,3.0763,3.0661,3.0541,3.0489,3.0489,3.0489,3.0489,3.0489,3.0489,3.0489,3.0489,3.0489,3.0638,3.1079,3.2094,3.2408,3.2731,3.3661,3.4386,3.4138,3.4101,3.4088,3.4088,3.425,3.4781,3.6322,3.6837,3.7261,3.76,3.8051,3.8327,3.8391,3.8391,3.8391,3.8391,3.8391,3.8391,3.8391,3.8391,3.8391,3.8391,3.8391,3.8391,3.8391,3.8391,3.8448,3.8462,3.8462,3.8476,3.8448,3.8434,3.8391,3.8928,4.0077,4.0189,4.0286,4.014,3.9994,4.0121,4.0233,4.0168,4.0084,3.9693,3.9383,3.8936,3.8586,3.8634,3.8715,3.8748,3.8897,3.9143,3.9132,3.902,3.7035,3.7623,3.8495,3.9229,3.9824,3.9876,3.9895,3.9895,3.9895,3.9895,3.9878,3.9458,3.8944,3.8365,3.818,3.7883,3.7424,3.6852,3.6424,3.5791,3.5034,3.4454,3.3982,3.332,3.316,3.2908,3.2908,3.2908,3.2908,3.2908,3.2908,3.2908,3.2908,3.2908,3.2908,3.2892,3.2908,3.2818,3.2496,3.1958,3.1361,3.0855,3.0582,3.052,3.0499,3.0489,3.0489,3.0489,3.0489,3.0489,3.0489,3.0489,3.0489,3.0489,3.1278,3.2017,3.2586,3.2595,3.2659,3.3694,3.4386,3.4176,3.4088,3.4088,3.4266,3.4538,3.5445,3.789,3.7596,3.7482,3.7987,3.8294,3.8391,3.8391,3.8391,3.8391,3.8391,3.8391,3.8391,3.8391,3.8391,3.8391,3.8391,3.8391,3.8391,3.8391,3.8422,3.8541,3.8711,3.8885,3.9028,3.9127,3.8788,3.8713,3.9122,4.0287,4.1112,4.1225,4.1079,4.0869,4.1012,4.114,4.1116,4.0951,4.0559,4.0289,4.0071,3.9703,3.9201,3.9347,3.9865,4.0108,4.027,4.0146,3.9859,3.605,3.6846,3.814,3.8893,3.9267,3.9697,3.9895,3.9895,3.9895,3.9895,3.9792,3.9345,3.8512,3.7662,3.7309,3.6919,3.6422,3.6004,3.5514,3.5212,3.4401,3.3847,3.3427,3.3096,3.2908,3.2908,3.2908,3.2908,3.2908,3.2908,3.2908,3.2908,3.2908,3.2908,3.2892,3.287,3.2796,3.2581,3.2109,3.1564,3.1107,3.0733,3.0489,3.0489,3.0489,3.0489,3.0489,3.0489,3.0489,3.0489,3.0489,3.0489,3.0737,3.1228,3.2116,3.2525,3.3122,3.3195,3.3107,3.3968,3.4203,3.4188,3.4149,3.4343,3.48,3.5445,3.6238,3.8149,3.8049,3.8049,3.8262,3.8391,3.8391,3.8391,3.8391,3.8391,3.8391,3.8391,3.8391,3.8391,3.8424,3.8472,3.8521,3.8553,3.8551,3.8499,3.8799,3.9176,3.9522,3.9922,4.0034,4.013,3.9615,3.9102,3.9638,4.0449,4.1726,4.2034,4.2035,4.1904,4.1968,4.2031,4.1972,4.1931,4.17,4.1449,4.122,4.061,3.9914,4.0464,4.1193,4.1128,4.0998,4.0546,4.0219,3.5268,3.6031,3.7661,3.85,3.8784,3.957,3.9895,3.9895,3.9895,3.9878,3.9689,3.9156,3.8174,3.7227,3.6839,3.643,3.5735,3.5158,3.4633,3.4222,3.3847,3.3463,3.3132,3.2908,3.2908,3.2908,3.2908,3.2908,3.2908,3.2908,3.2908,3.2908,3.2908,3.2908,3.2876,3.2797,3.2648,3.231,3.1704,3.1259,3.0965,3.0671,3.052,3.0489,3.0489,3.0489,3.0489,3.0489,3.0489,3.0489,3.0489,3.0489,3.0654,3.1719,3.279,3.3254,3.3718,3.3707,3.3761,3.4161,3.4301,3.4249,3.4437,3.4874,3.5771,3.6594,3.732,3.8278,3.8343,3.8327,3.8391,3.8391,3.8391,3.8391,3.8391,3.8391,3.8391,3.8391,3.8391,3.8391,3.8472,3.8697,3.8746,3.8748,3.8711,3.8624,3.9032,3.9732,4.0287,4.0816,4.0828,4.0873,4.0816,4.0272,4.0499,4.1184,4.2257,4.2712,4.2712,4.268,4.258,4.2703,4.2805,4.2751,4.2617,4.2449,4.2103,4.1347,4.0723,4.1371,4.1841,4.1744,4.1534,4.1113,4.0817,3.4932,3.5116,3.6808,3.7945,3.8727,3.9545,3.9895,3.9895,3.9895,3.9792,3.9557,3.8894,3.8263,3.7643,3.6947,3.6467,3.6131,3.4811,3.424,3.383,3.341,3.3078,3.2908,3.2908,3.2908,3.2908,3.2908,3.2908,3.2908,3.2908,3.2908,3.2908,3.2908,3.2908,3.281,3.2664,3.2327,3.193,3.1374,3.109,3.0885,3.0661,3.0499,3.0489,3.0489,3.0489,3.0489,3.0489,3.0489,3.0489,3.0489,3.0671,3.098,3.2221,3.3368,3.4057,3.4013,3.4049,3.4238,3.4325,3.4313,3.4379,3.4777,3.5539,3.6384,3.6416,3.7112,3.8213,3.8375,3.8391,3.8391,3.8391,3.8391,3.8391,3.8391,3.8391,3.8391,3.8391,3.8391,3.8391,3.8586,3.8892,3.9215,3.928,3.9311,3.9241,3.9899,4.0585,4.1177,4.1624,4.149,4.1552,4.1878,4.1765,4.1645,4.2239,4.2843,4.2991,4.2976,4.2961,4.2913,4.3115,4.3251,4.3247,4.3066,4.3046,4.2845,4.1945,4.1548,4.2165,4.2441,4.2214,4.215,4.1924,4.1737,3.4908,3.5059,3.6713,3.7585,3.8026,3.9337,3.9895,3.9895,3.9895,3.9647,3.9234,3.8617,3.7931,3.7281,3.6831,3.6009,3.5092,3.4489,3.3891,3.341,3.3025,3.2908,3.2908,3.2908,3.2908,3.2908,3.2908,3.2908,3.2908,3.2908,3.2908,3.2908,3.29,3.2908,3.2794,3.2471,3.2029,3.167,3.1249,3.0942,3.0773,3.062,3.0489,3.0489,3.0489,3.0489,3.0489,3.0489,3.0489,3.0489,3.0489,3.0803,3.1433,3.2826,3.3879,3.46,3.4312,3.4307,3.4333,3.4436,3.4374,3.4452,3.515,3.6089,3.6689,3.708,3.7663,3.8262,3.8391,3.8391,3.8391,3.8391,3.8391,3.8391,3.844,3.8472,3.8537,3.8618,3.8699,3.8829,3.9007,3.9264,3.9588,3.988,3.9893,3.9953,4.071,4.1439,4.1988,4.2429,4.2332,4.227,4.258,4.2774,4.2652,4.2953,4.3314,4.3267,4.3221,4.3191,4.3146,4.3237,4.3357,4.3419,4.3373,4.3159,4.2813,4.2287,4.2211,4.2489,4.2586,4.2538,4.2539,4.2539,4.2397,3.4908,3.5078,3.6448,3.7187,3.7604,3.9204,3.9889,3.9873,3.9837,3.9495,3.891,3.8494,3.7922,3.7217,3.6713,3.6154,3.5136,3.4434,3.3838,3.3401,3.3106,3.2936,3.2908,3.2908,3.2908,3.2908,3.2908,3.2908,3.2908,3.2908,3.2908,3.29,3.2894,3.2876,3.2753,3.2275,3.1836,3.1669,3.1352,3.127,3.1245,3.1032,3.087,3.0803,3.0671,3.0489,3.0489,3.0489,3.0489,3.0489,3.0594,3.1014,3.2017,3.3129,3.4098,3.4419,3.4493,3.4423,3.4362,3.4312,3.43,3.4288,3.5445,3.6079,3.6613,3.7536,3.8246,3.8343,3.8391,3.8391,3.8391,3.8391,3.8391,3.8408,3.8829,3.8942,3.9039,3.9136,3.9217,3.9331,3.9588,3.9912,4.0511,4.0868,4.0896,4.0952,4.1334,4.2054,4.2744,4.3094,4.3236,4.3206,4.3259,4.3421,4.3537,4.3494,4.345,4.3449,4.3387,4.3342,4.3342,4.3417,4.3387,4.3373,4.3298,4.3143,4.2891,4.2558,4.25,4.257,4.2602,4.2602,4.2602,4.2571,4.2587,3.4908,3.5003,3.5879,3.6694,3.749,3.9166,3.9835,3.9792,3.9693,3.9345,3.8818,3.8554,3.8244,3.7698,3.71,3.6511,3.5933,3.4864,3.4125,3.3847,3.3374,3.3043,3.2908,3.2908,3.2908,3.2908,3.2908,3.2908,3.2908,3.2908,3.2908,3.2923,3.292,3.2845,3.2821,3.2126,3.193,3.2111,3.1671,3.1877,3.1873,3.157,3.1432,3.1085,3.0754,3.0506,3.0704,3.0721,3.077,3.0919,3.0772,3.1198,3.2088,3.2961,3.378,3.4362,3.4431,3.4411,3.4296,3.4188,3.4138,3.4307,3.5445,3.6208,3.6594,3.7485,3.8391,3.8391,3.8391,3.8391,3.8391,3.8391,3.8391,3.8537,3.8942,3.9296,3.9377,3.9701,3.9768,3.9881,4.0301,4.0754,4.1436,4.1921,4.195,4.2021,4.216,4.2619,4.3269,4.3524,4.3615,4.36,4.3539,4.3553,4.3583,4.3615,4.3585,4.3583,4.3553,4.3494,4.3494,4.3524,4.3479,4.3358,4.3252,4.3113,4.3052,4.2959,4.2806,4.2618,4.2602,4.2602,4.2602,4.2602,4.2602,3.4908,3.4984,3.5822,3.6353,3.6827,3.8395,3.9332,3.9637,3.9433,3.9064,3.8707,3.8446,3.8229,3.7885,3.7576,3.7058,3.646,3.6149,3.5382,3.4125,3.3776,3.3338,3.3088,3.2936,3.2908,3.2908,3.2908,3.2908,3.2908,3.2963,3.2918,3.2913,3.3085,3.2879,3.2547,3.2122,3.2149,3.1587,3.1439,3.1515,3.1344,3.1466,3.1399,3.0969,3.0654,3.0704,3.1101,3.1118,3.1317,3.162,3.15,3.1753,3.2617,3.3498,3.3872,3.4243,3.4312,3.4226,3.4176,3.4126,3.4101,3.4538,3.5364,3.6241,3.6435,3.763,3.8197,3.8391,3.8391,3.8391,3.8391,3.8391,3.8424,3.8553,3.8893,3.9296,3.9572,4.0059,4.0351,4.0495,4.0787,4.1419,4.2084,4.2246,4.2325,4.2466,4.2515,4.276,4.3307,4.3509,4.3615,4.3615,4.36,4.3615,4.3615,4.3583,4.3568,4.3553,4.3568,4.3568,4.36,4.3615,4.3464,4.3281,4.3205,4.3114,4.2991,4.2852,4.2743,4.2634,4.2618,4.2602,4.2602,4.2602,4.2602,3.4908,3.4965,3.5519,3.5931,3.6434,3.7988,3.9036,3.9439,3.9178,3.8833,3.8549,3.837,3.8182,3.7994,3.7791,3.7551,3.6934,3.6515,3.6185,3.482,3.425,3.383,3.341,3.3025,3.2908,3.2908,3.2908,3.2908,3.2936,3.3145,3.319,3.3218,3.3379,3.2838,3.2363,3.2032,3.209,3.1623,3.1576,3.1625,3.1526,3.1493,3.1399,3.1002,3.0787,3.0803,3.1356,3.1703,3.1935,3.2309,3.2457,3.2464,3.3273,3.3676,3.3961,3.4074,3.4147,3.4113,3.4101,3.4101,3.4088,3.4169,3.5496,3.6192,3.6532,3.7614,3.8181,3.8391,3.8391,3.8391,3.8391,3.8391,3.844,3.857,3.9136,3.9556,4.0011,4.0513,4.1225,4.1322,4.1452,4.2084,4.2456,4.2505,4.2537,4.2695,4.2835,4.3068,4.3281,4.3449,4.3539,4.3524,4.3524,4.3509,4.3524,4.3553,4.3522,4.3522,4.3539,4.3553,4.3615,4.3615,4.3402,4.3219,4.3143,4.3036,4.2852,4.2696,4.2649,4.2618,4.2602,4.2602,4.2602,4.2602,4.2602,3.4908,3.4908,3.4908,3.5386,3.6329,3.7735,3.871,3.9204,3.9003,3.8687,3.8401,3.8305,3.8058,3.7853,3.78,3.7596,3.7193,3.6577,3.6185,3.5774,3.4785,3.4267,3.3723,3.3312,3.3096,3.2961,3.2908,3.29,3.2991,3.3334,3.3485,3.3596,3.3702,3.2982,3.2317,3.1935,3.1937,3.1546,3.1765,3.1879,3.1918,3.205,3.1923,3.1581,3.1289,3.1394,3.1764,3.2007,3.2259,3.2528,3.2685,3.2908,3.3134,3.3229,3.3616,3.3911,3.4081,3.4084,3.4088,3.4088,3.4246,3.4441,3.5525,3.6079,3.6662,3.7533,3.8213,3.8391,3.8391,3.8391,3.8391,3.8391,3.8408,3.8926,3.959,4.0059,4.0529,4.1193,4.2003,4.2294,4.2295,4.257,4.2554,4.2602,4.2602,4.2681,4.279,4.2946,4.3144,4.3325,4.3402,4.3388,4.3372,4.3372,4.3387,4.3387,4.3387,4.3357,4.3432,4.3462,4.3524,4.3509,4.3296,4.3143,4.3098,4.2975,4.2759,4.2649,4.2618,4.2602,4.2602,4.2602,4.2602,4.2602,4.2602,3.4908,3.4908,3.4908,3.5059,3.54,3.6255,3.7216,3.8174,3.8508,3.851,3.8239,3.8147,3.7719,3.7149,3.7011,3.6933,3.6523,3.6033,3.5658,3.5275,3.4999,3.4187,3.3731,3.3499,3.3302,3.3061,3.2908,3.2936,3.3033,3.3437,3.4147,3.4486,3.3901,3.3127,3.2568,3.2051,3.1654,3.1518,3.1933,3.2105,3.2398,3.2597,3.2486,3.226,3.1962,3.2155,3.2633,3.2762,3.3116,3.3672,3.3756,3.3909,3.3934,3.3904,3.4,3.4036,3.4101,3.4088,3.4088,3.4088,3.4295,3.4858,3.5801,3.6127,3.6662,3.7452,3.8343,3.8391,3.8391,3.8391,3.8391,3.8391,3.8391,3.8764,3.9476,4.014,4.0642,4.1387,4.2181,4.2554,4.2602,4.2602,4.2602,4.2602,4.2618,4.2665,4.2744,4.2868,4.3007,4.3174,4.325,4.3236,4.3222,4.3207,4.3176,4.3176,4.3175,4.319,4.3281,4.3342,4.3358,4.3313,4.3161,4.3037,4.2929,4.2805,4.2649,4.2602,4.2602,4.2602,4.2602,4.2602,4.2602,4.2602,4.2683,3.4908,3.4908,3.4908,3.4908,3.5002,3.5553,3.6278,3.6949,3.7754,3.811,3.8163,3.7778,3.7279,3.6781,3.6382,3.6108,3.5942,3.5595,3.5427,3.5739,3.5034,3.4543,3.4088,3.3606,3.3231,3.3007,3.2979,3.3096,3.334,3.3943,3.465,3.4778,3.4005,3.3467,3.2943,3.2402,3.1994,3.1867,3.1945,3.21,3.2503,3.2945,3.2851,3.2811,3.2616,3.2983,3.344,3.3444,3.3785,3.4309,3.4308,3.4259,3.4222,3.4122,3.4084,3.4088,3.4088,3.4088,3.412,3.4457,3.4777,3.5312,3.6108,3.6613,3.705,3.7728,3.8181,3.8391,3.8391,3.8391,3.8391,3.8391,3.8391,3.844,3.9233,4.0058,4.0771,4.1468,4.2003,4.2473,4.2602,4.2602,4.2602,4.2602,4.2602,4.2634,4.2649,4.2713,4.2868,4.3036,4.3067,4.3053,4.3038,4.3024,4.2977,4.2961,4.3023,4.3053,4.3128,4.3174,4.3207,4.3223,4.3146,4.2961,4.2728,4.2649,4.2602,4.2602,4.2602,4.2602,4.2602,4.2602,4.2602,4.2602,4.2732,3.4903,3.4894,3.4875,3.4874,3.4945,3.5407,3.5562,3.5508,3.6657,3.7473,3.7698,3.7196,3.6708,3.6151,3.5645,3.5294,3.5093,3.4837,3.5007,3.6114,3.4838,3.4214,3.4026,3.3723,3.3302,3.3025,3.2973,3.3183,3.3985,3.4299,3.4385,3.4803,3.4166,3.3584,3.3134,3.273,3.2503,3.2669,3.247,3.242,3.2762,3.2878,3.28,3.2819,3.2861,3.3029,3.3378,3.3569,3.3708,3.4097,3.4263,3.4201,3.4151,3.4113,3.4101,3.4088,3.4088,3.4088,3.4279,3.4648,3.5101,3.5717,3.6497,3.7099,3.76,3.7938,3.8311,3.8391,3.8391,3.8391,3.8391,3.8391,3.8391,3.8618,3.9217,3.9944,4.0594,4.1436,4.2278,4.2602,4.2602,4.2602,4.2602,4.2602,4.2602,4.2602,4.2618,4.265,4.2712,4.2882,4.2898,4.2883,4.2868,4.2837,4.2791,4.279,4.2868,4.2914,4.2975,4.2975,4.2945,4.3038,4.3146,4.2915,4.2649,4.2634,4.2602,4.2602,4.2602,4.2602,4.2602,4.2602,4.2602,4.2602,4.2894,3.4865,3.4805,3.4769,3.4704,3.4647,3.4654,3.4909,3.5248,3.5385,3.5851,3.626,3.6098,3.5688,3.5149,3.4748,3.4461,3.4341,3.4015,3.4034,3.4508,3.4143,3.3883,3.3749,3.3651,3.332,3.3043,3.2993,3.3201,3.3609,3.375,3.3924,3.4401,3.3851,3.3278,3.3593,3.3204,3.3105,3.3458,3.3375,3.3226,3.3486,3.4059,3.431,3.411,3.406,3.3862,3.4031,3.3958,3.3989,3.4134,3.4134,3.4126,3.4088,3.4088,3.4088,3.4088,3.4088,3.412,3.4408,3.4923,3.549,3.6092,3.6837,3.7487,3.7973,3.8246,3.8391,3.8391,3.8391,3.8391,3.8391,3.8391,3.8456,3.8796,3.9266,3.9881,4.0513,4.1501,4.2505,4.2602,4.2602,4.2602,4.2602,4.2602,4.2602,4.2602,4.2602,4.2602,4.2618,4.2712,4.2743,4.2712,4.2696,4.2649,4.2618,4.2649,4.2744,4.2744,4.2774,4.2743,4.2712,4.279,4.2899,4.2774,4.2618,4.2602,4.2602,4.2602,4.2602,4.2602,4.2602,4.2602,4.2602,4.2602,4.3023,3.4821,3.4697,3.4594,3.4525,3.4392,3.4239,3.4339,3.4507,3.4396,3.4484,3.478,3.4981,3.4864,3.4294,3.3934,3.3693,3.3589,3.3156,3.3596,3.3919,3.374,3.3624,3.3552,3.3517,3.3231,3.2963,3.3232,3.3404,3.3263,3.3462,3.3758,3.4154,3.3551,3.3469,3.4083,3.3884,3.3801,3.4253,3.4237,3.4237,3.4237,3.4639,3.4775,3.4643,3.4521,3.4399,3.425,3.4126,3.4113,3.4084,3.4101,3.4101,3.4088,3.4088,3.4088,3.4088,3.412,3.4246,3.4651,3.5263,3.5976,3.6659,3.7371,3.81,3.8151,3.8391,3.8391,3.8391,3.8391,3.8391,3.8391,3.8391,3.8391,3.8618,3.959,4.0464,4.1225,4.21,4.2586,4.2602,4.2602,4.2602,4.2602,4.2602,4.2602,4.2602,4.2602,4.2602,4.2602,4.2602,4.2602,4.2602,4.2602,4.2602,4.2602,4.2618,4.2634,4.2618,4.2602,4.2618,4.2649,4.2634,4.2602,4.2602,4.2602,4.2602,4.2602,4.2602,4.2602,4.2602,4.2602,4.2602,4.2602,4.2635,4.3023,3.4722,3.4545,3.441,3.4269,3.4142,3.3999,3.3906,3.381,3.3665,3.3542,3.3603,3.4119,3.4214,3.3892,3.3402,3.3106,3.2934,3.2944,3.3418,3.3517,3.3213,3.3267,3.3328,3.3275,3.3037,3.2983,3.3169,3.3055,3.2871,3.2941,3.3124,3.3843,3.4057,3.4061,3.4662,3.4878,3.4795,3.4762,3.475,3.4804,3.4854,3.4875,3.472,3.4582,3.446,3.4337,3.4176,3.4088,3.4088,3.4088,3.4088,3.4088,3.4088,3.4088,3.4088,3.4104,3.4343,3.4631,3.5117,3.5914,3.6594,3.7261,3.8003,3.8359,3.8391,3.8391,3.8391,3.8391,3.8391,3.8391,3.8391,3.8391,3.8391,3.8586,3.9719,4.0836,4.1647,4.2392,4.2456,4.2505,4.2602,4.2602,4.2602,4.2602,4.2602,4.2602,4.2602,4.2602,4.2602,4.2602,4.2602,4.2602,4.2602,4.2602,4.2602,4.2602,4.2602,4.2602,4.2602,4.2602,4.2602,4.2602,4.2602,4.2602,4.2602,4.2602,4.2602,4.2602,4.2602,4.2602,4.2602,4.2602,4.2602,4.2699,4.3007,3.4498,3.4263,3.413,3.3998,3.3868,3.38,3.373,3.3622,3.3567,3.3473,3.3414,3.3308,3.3343,3.3337,3.3086,3.2908,3.2916,3.2908,3.2908,3.2989,3.2989,3.3061,3.3096,3.3078,3.2847,3.2779,3.2701,3.2371,3.2321,3.2025,3.2229,3.3232,3.3145,3.363,3.4762,3.4899,3.4887,3.4875,3.4851,3.4828,3.4756,3.472,3.4659,3.4521,3.437,3.425,3.4138,3.4101,3.4088,3.4088,3.4104,3.412,3.4218,3.4279,3.4327,3.457,3.4793,3.5134,3.572,3.6451,3.7099,3.7455,3.8051,3.8375,3.8391,3.8391,3.8391,3.8391,3.8391,3.8391,3.8391,3.8391,3.8424,3.8667,3.9428,4.0511,4.1467,4.184,4.2035,4.2311,4.2602,4.2602,4.2602,4.2602,4.2602,4.2602,4.2602,4.2602,4.2602,4.2602,4.2602,4.2602,4.2602,4.2602,4.2602,4.2602,4.2602,4.2602,4.2602,4.2602,4.2602,4.2602,4.2602,4.2602,4.2602,4.2602,4.2602,4.2602,4.2602,4.2602,4.2602,4.2602,4.2602,4.2667,4.291]}]]